[[[{"header":{"parameterUnit":"kt","parameterCategory":2,"dx":1,"dy":1,"la1":29.587661999999998,"la2":31.0,"lo1":-88.76705300000003,"lo2":-86.6583820000003,"nx":115,"ny":88,"refTime":"2022-10-27T18:00:00:Z","depth":0,"parameterNumber":1,"parameterNumberName":"U-component_of_WINDS"},"data":[-14.7102,-14.7167,-14.7496,-14.8285,-14.9206,-14.8548,-14.9469,-15.177,-15.2099,-15.2823,-15.4401,-15.5453,-15.5913,-15.5913,-15.5913,-15.5913,-15.5913,-15.5913,-15.5913,-15.5913,-15.5913,-15.5913,-15.5979,-15.6308,-15.7623,-15.9201,-16.0779,-16.1787,-16.2999,-16.3286,-16.2927,-16.1312,-16.0964,-15.8737,-15.5735,-15.4782,-15.3938,-15.278,-15.1482,-14.9807,-14.8323,-14.6553,-14.4321,-14.3846,-14.3846,-14.4661,-14.5184,-14.5533,-14.5533,-14.5533,-14.5533,-14.5533,-14.5533,-14.5533,-14.5533,-14.5533,-14.4673,-14.4539,-14.3672,-14.2447,-14.0123,-13.9087,-13.7103,-13.3535,-12.976,-12.6815,-12.5579,-12.3912,-12.3333,-12.2434,-12.2117,-12.2117,-12.2117,-12.2117,-12.2117,-12.2117,-12.2117,-12.2117,-12.2117,-12.2117,-12.2117,-12.2117,-12.2117,-12.2117,-12.2117,-12.2117,-12.2117,-12.2117,-12.2117,-12.2117,-12.2117,-12.2117,-12.2117,-12.2117,-12.2117,-12.2117,-12.1763,-12.1556,-12.0712,-11.738,-11.3608,-10.9596,-10.5981,-10.3222,-9.981,-9.7769,-9.6702,-9.5988,-9.4952,-9.4952,-9.4952,-9.4952,-9.4952,-9.4952,-9.4952,-14.7102,-14.7365,-14.8614,-14.9337,-14.96,-15.0455,-15.1902,-15.3283,-15.348,-15.4203,-15.5453,-15.5782,-15.5913,-15.5913,-15.5913,-15.5913,-15.5913,-15.5913,-15.5913,-15.5913,-15.5913,-15.5913,-15.5913,-15.5979,-15.69,-15.8412,-16.0582,-16.1833,-16.2608,-16.2006,-16.1138,-15.9252,-15.7543,-15.5729,-15.5498,-15.4483,-15.2718,-15.1551,-15.0499,-14.8649,-14.6988,-14.5597,-14.4605,-14.4269,-14.4602,-14.53,-14.5475,-14.5533,-14.5533,-14.5533,-14.5533,-14.5533,-14.5533,-14.5533,-14.5533,-14.4673,-14.3865,-14.2993,-14.1979,-14.0319,-13.7586,-13.5233,-13.3975,-13.1164,-12.6969,-12.4695,-12.3912,-12.3017,-12.2592,-12.2117,-12.2117,-12.2117,-12.2117,-12.2117,-12.2117,-12.2117,-12.2117,-12.2117,-12.2117,-12.2117,-12.2117,-12.2117,-12.2117,-12.2117,-12.2117,-12.2117,-12.2117,-12.2117,-12.2117,-12.2117,-12.2117,-12.2117,-12.2117,-12.2117,-12.2117,-12.1812,-12.1312,-12.0788,-11.8777,-11.458,-11.0438,-10.6665,-10.2917,-9.9458,-9.8084,-9.7058,-9.5848,-9.5131,-9.4952,-9.4952,-9.4952,-9.4952,-9.4952,-9.4952,-9.4952,-14.7102,-14.7365,-14.8811,-15.0389,-15.1639,-15.1639,-15.2428,-15.3612,-15.3809,-15.4598,-15.5782,-15.5913,-15.5913,-15.5913,-15.5913,-15.5913,-15.5913,-15.5913,-15.5913,-15.5913,-15.5913,-15.5913,-15.5913,-15.5913,-15.6505,-15.736,-15.9692,-16.1572,-16.2027,-16.1247,-15.9637,-15.7658,-15.6731,-15.5498,-15.4604,-15.4,-15.2473,-15.0694,-15.0064,-14.7755,-14.4836,-14.3963,-14.3279,-14.3846,-14.4253,-14.4835,-14.5126,-14.5533,-14.5533,-14.5533,-14.5533,-14.5533,-14.5533,-14.54,-14.4865,-14.3865,-14.2584,-14.1566,-13.9704,-13.7586,-13.4851,-13.2597,-13.1014,-12.8752,-12.4538,-12.349,-12.2751,-12.2592,-12.2117,-12.2117,-12.2117,-12.2117,-12.2117,-12.2117,-12.2117,-12.2117,-12.2117,-12.2117,-12.2117,-12.2117,-12.2117,-12.2117,-12.2117,-12.2117,-12.2117,-12.2117,-12.2117,-12.2117,-12.2117,-12.2117,-12.2117,-12.2117,-12.2117,-12.2117,-12.1763,-12.1312,-12.0545,-11.881,-11.7112,-11.2732,-10.8151,-10.4004,-10.0513,-9.7907,-9.6167,-9.5848,-9.5669,-9.5131,-9.4952,-9.4952,-9.4952,-9.4952,-9.4952,-9.4952,-9.4914,-14.7102,-14.7299,-14.8811,-15.1179,-15.348,-15.2954,-15.3349,-15.4269,-15.4269,-15.4927,-15.5716,-15.5913,-15.5913,-15.5913,-15.5913,-15.5913,-15.5913,-15.5913,-15.5913,-15.5913,-15.5913,-15.5913,-15.5913,-15.5913,-15.5913,-15.6834,-15.8309,-16.0487,-16.0301,-15.9809,-15.8574,-15.6152,-15.526,-15.4604,-15.3758,-15.3208,-15.1794,-14.9692,-14.8869,-14.7027,-14.4021,-14.2755,-14.2741,-14.3323,-14.4195,-14.4893,-14.5184,-14.5533,-14.5533,-14.5533,-14.5533,-14.5533,-14.5533,-14.4999,-14.3807,-14.2253,-14.0875,-13.9284,-13.7301,-13.456,-13.2259,-13.0015,-12.8042,-12.5473,-12.3805,-12.2751,-12.2117,-12.2117,-12.2117,-12.2117,-12.2117,-12.2117,-12.2117,-12.2117,-12.2117,-12.2117,-12.2117,-12.2117,-12.2117,-12.2117,-12.2117,-12.2117,-12.2117,-12.2117,-12.2117,-12.2117,-12.2117,-12.2117,-12.2117,-12.2117,-12.2117,-12.2117,-12.2117,-12.1763,-12.1264,-12.0497,-11.8523,-11.6781,-11.3727,-11.0064,-10.6238,-10.2322,-9.8792,-9.6345,-9.4952,-9.5131,-9.5311,-9.4952,-9.4952,-9.4952,-9.4952,-9.4952,-9.4952,-9.4952,-9.4914,-14.7102,-14.7299,-14.8811,-15.1047,-15.3677,-15.4861,-15.5387,-15.5716,-15.5584,-15.5782,-15.5847,-15.5913,-15.5913,-15.5913,-15.5913,-15.5913,-15.5913,-15.5913,-15.5913,-15.5913,-15.5913,-15.5913,-15.5913,-15.5913,-15.5913,-15.6834,-15.8112,-15.8963,-15.7978,-15.7403,-15.656,-15.4123,-15.3697,-15.3331,-15.284,-15.2346,-15.0918,-14.8913,-14.7629,-14.6426,-14.3891,-14.3846,-14.4835,-14.4195,-14.4661,-14.5359,-14.5475,-14.5533,-14.5533,-14.5533,-14.5533,-14.5533,-14.4999,-14.4135,-14.2993,-14.129,-13.8579,-13.6729,-13.456,-13.1962,-12.9614,-12.7634,-12.5834,-12.4119,-12.3017,-12.2275,-12.2117,-12.2117,-12.2117,-12.2117,-12.2117,-12.2117,-12.2117,-12.2117,-12.2117,-12.2117,-12.2117,-12.2117,-12.2117,-12.2117,-12.2117,-12.2117,-12.2117,-12.2117,-12.2117,-12.2117,-12.2117,-12.2117,-12.2117,-12.2117,-12.2117,-12.2117,-12.1909,-12.1604,-12.0532,-11.8347,-11.6319,-11.3243,-10.9809,-10.6322,-10.3023,-10.0097,-9.7058,-9.6026,-9.4952,-9.4952,-9.4952,-9.4952,-9.4952,-9.4952,-9.4952,-9.4952,-9.4952,-9.4952,-9.4876,-14.7102,-14.7365,-14.8811,-15.0126,-15.1507,-15.3612,-15.5124,-15.5847,-15.5913,-15.5913,-15.5913,-15.5913,-15.5913,-15.5913,-15.5913,-15.5913,-15.5913,-15.5913,-15.5913,-15.5913,-15.5913,-15.5913,-15.5913,-15.5913,-15.5815,-15.6109,-15.6787,-15.7496,-15.7527,-15.6536,-15.5203,-15.3758,-15.3147,-15.2593,-15.1974,-15.1039,-14.9646,-14.8033,-14.6739,-14.5554,-14.4983,-14.4951,-14.5242,-14.501,-14.5184,-14.5475,-14.5533,-14.5533,-14.5533,-14.5533,-14.5533,-14.5533,-14.5266,-14.4673,-14.3672,-13.976,-13.6729,-13.4414,-13.211,-12.9462,-12.7481,-12.5679,-12.4119,-12.2909,-12.2275,-12.2117,-12.2117,-12.2117,-12.2117,-12.2117,-12.2117,-12.2117,-12.2117,-12.2117,-12.2117,-12.2117,-12.2117,-12.2117,-12.2117,-12.2117,-12.2117,-12.2117,-12.2117,-12.2117,-12.2117,-12.2117,-12.2117,-12.2117,-12.2117,-12.2117,-12.2117,-12.1958,-12.1702,-12.0712,-11.82,-11.5841,-11.2607,-10.8929,-10.5769,-10.294,-9.9976,-9.7396,-9.6307,-9.549,-9.4952,-9.4952,-9.4952,-9.4952,-9.4952,-9.4952,-9.4952,-9.4914,-9.4838,-9.4914,-9.48,-14.7102,-14.7299,-14.8811,-14.9732,-15.0389,-15.2296,-15.4269,-15.5782,-15.5913,-15.5913,-15.5913,-15.5913,-15.5913,-15.5913,-15.5913,-15.5913,-15.5913,-15.5913,-15.5913,-15.5913,-15.5913,-15.5913,-15.5913,-15.5913,-15.5453,-15.5414,-15.5481,-15.5763,-15.5739,-15.6093,-15.482,-15.3636,-15.2717,-15.1849,-15.0913,-14.9901,-14.8233,-14.6725,-14.6065,-14.5492,-14.555,-14.5417,-14.5417,-14.5417,-14.5533,-14.5533,-14.5533,-14.5533,-14.5533,-14.5533,-14.5533,-14.5533,-14.54,-14.4673,-14.3265,-13.9058,-13.5486,-13.2703,-12.9817,-12.7532,-12.5989,-12.4745,-12.3175,-12.2275,-12.2117,-12.2117,-12.2117,-12.2117,-12.2117,-12.2117,-12.2117,-12.2117,-12.2117,-12.2117,-12.2117,-12.2117,-12.2117,-12.2117,-12.2117,-12.2117,-12.2117,-12.2117,-12.2117,-12.2117,-12.2117,-12.2117,-12.2117,-12.2117,-12.2117,-12.2117,-12.2117,-12.1799,-12.1176,-11.8872,-11.6399,-11.288,-10.8602,-10.4746,-10.2167,-9.9466,-9.7633,-9.6408,-9.5452,-9.4952,-9.4952,-9.4952,-9.4952,-9.4952,-9.4952,-9.4952,-9.4952,-9.4838,-9.4762,-9.4876,-9.4876,-14.7102,-14.7365,-14.8877,-15.0192,-15.131,-15.1639,-15.3349,-15.5847,-15.5913,-15.5913,-15.5913,-15.5913,-15.5913,-15.5913,-15.5913,-15.5913,-15.5913,-15.5913,-15.5815,-15.5716,-15.5453,-15.5354,-15.5354,-15.5452,-15.468,-15.4329,-15.4367,-15.4263,-15.283,-15.3726,-15.3973,-15.3024,-15.2222,-15.0787,-14.9391,-14.8162,-14.6857,-14.6197,-14.5666,-14.5666,-14.5533,-14.5533,-14.5533,-14.5533,-14.5533,-14.5533,-14.5533,-14.5533,-14.5533,-14.5533,-14.54,-14.54,-14.4673,-14.3401,-14.1152,-13.7926,-13.3147,-13.1119,-12.8907,-12.6403,-12.4851,-12.4119,-12.2909,-12.2275,-12.2117,-12.2117,-12.2117,-12.2117,-12.2117,-12.2117,-12.2117,-12.2117,-12.2117,-12.2117,-12.2117,-12.2117,-12.2117,-12.2117,-12.2117,-12.2117,-12.2117,-12.2117,-12.2117,-12.2117,-12.2117,-12.2117,-12.2117,-12.2117,-12.2117,-12.2117,-12.141,-12.13,-11.9128,-11.7072,-11.3437,-10.9616,-10.5428,-10.0995,-9.8414,-9.7378,-9.633,-9.5131,-9.4952,-9.4952,-9.4952,-9.4952,-9.4952,-9.4952,-9.4952,-9.4952,-9.4952,-9.4838,-9.4648,-9.48,-9.4914,-14.7102,-14.7167,-14.7759,-14.8219,-14.8943,-15.0784,-15.3217,-15.5584,-15.5913,-15.5913,-15.5913,-15.5913,-15.5913,-15.5913,-15.5913,-15.5913,-15.5913,-15.5913,-15.5716,-15.4289,-15.4289,-15.3681,-15.3389,-15.328,-15.328,-15.3269,-15.3318,-15.3592,-15.3083,-15.2845,-15.2827,-15.2657,-15.1849,-15.0028,-14.8103,-14.6857,-14.5799,-14.5666,-14.5533,-14.5533,-14.5533,-14.5533,-14.5533,-14.5533,-14.5533,-14.5533,-14.5533,-14.5533,-14.5533,-14.5133,-14.427,-14.3265,-14.2584,-14.1152,-13.8917,-13.7158,-13.3735,-13.1664,-12.8399,-12.5679,-12.4119,-12.3175,-12.2592,-12.2117,-12.2117,-12.2117,-12.2117,-12.2117,-12.2117,-12.2117,-12.2117,-12.2117,-12.2117,-12.2117,-12.2117,-12.2117,-12.2117,-12.2117,-12.2117,-12.2117,-12.2117,-12.2117,-12.2117,-12.2117,-12.2019,-12.2068,-12.2068,-12.2117,-12.2117,-12.1264,-12.0619,-11.9113,-11.691,-11.3062,-10.9281,-10.6068,-10.2067,-9.7613,-9.6354,-9.5873,-9.4952,-9.4952,-9.4952,-9.4952,-9.4952,-9.4952,-9.4952,-9.4952,-9.4952,-9.4952,-9.4952,-9.4838,-9.461,-9.4724,-9.4952,-14.7102,-14.7102,-14.7102,-14.743,-14.8285,-15.0587,-15.2954,-15.4993,-15.565,-15.5913,-15.5913,-15.5913,-15.5913,-15.5913,-15.5913,-15.5913,-15.5651,-15.5552,-15.4857,-15.3309,-15.2691,-15.1751,-15.1521,-15.1819,-15.1728,-15.1427,-15.166,-15.1999,-15.2513,-15.2198,-15.2223,-15.2168,-15.0926,-14.9203,-14.7381,-14.6065,-14.5533,-14.5533,-14.5533,-14.5533,-14.5533,-14.5533,-14.5533,-14.5533,-14.5533,-14.5533,-14.5533,-14.5533,-14.5533,-14.54,-14.3401,-14.239,-14.1979,-13.8861,-13.707,-13.5865,-13.3294,-13.1216,-12.8093,-12.4901,-12.3333,-12.2592,-12.2117,-12.2117,-12.2117,-12.2117,-12.2117,-12.2117,-12.2117,-12.2117,-12.2117,-12.2117,-12.2117,-12.2117,-12.2117,-12.2117,-12.2117,-12.2117,-12.2117,-12.2117,-12.2117,-12.2117,-12.2117,-12.2117,-12.1775,-12.1629,-12.1385,-12.1385,-12.1384,-12.0642,-11.8411,-11.6446,-11.3346,-10.9069,-10.5299,-10.2711,-9.9123,-9.647,-9.5554,-9.4952,-9.4952,-9.4952,-9.4952,-9.4952,-9.4952,-9.4952,-9.4952,-9.4952,-9.4952,-9.4952,-9.4952,-9.4876,-9.4762,-9.4838,-9.4914,-14.7102,-14.7102,-14.7102,-14.8088,-14.96,-15.1047,-15.2559,-15.4335,-15.5387,-15.5913,-15.5913,-15.5913,-15.5913,-15.5913,-15.5913,-15.5913,-15.5552,-15.439,-15.3309,-15.2587,-15.1435,-15.069,-15.0451,-15.0335,-15.0198,-14.8919,-14.967,-14.9999,-14.908,-15.057,-15.0824,-15.0577,-15.0179,-14.9135,-14.7453,-14.6139,-14.5666,-14.5533,-14.5533,-14.5533,-14.5533,-14.5533,-14.5533,-14.5533,-14.5533,-14.5533,-14.5533,-14.5533,-14.5266,-14.4539,-14.272,-14.129,-14.0541,-13.7158,-13.5142,-13.4467,-13.1567,-12.9211,-12.6917,-12.3962,-12.2445,-12.1873,-12.2019,-12.197,-12.2019,-12.2117,-12.2117,-12.2117,-12.2117,-12.2117,-12.2117,-12.2117,-12.2117,-12.2117,-12.2117,-12.2117,-12.2117,-12.2117,-12.2117,-12.2117,-12.2117,-12.2117,-12.2117,-12.1922,-12.1433,-12.0934,-12.0701,-12.0522,-12.0345,-11.8759,-11.5681,-11.2943,-10.9361,-10.5428,-10.2322,-9.9594,-9.7591,-9.6026,-9.4952,-9.4952,-9.4952,-9.4952,-9.4952,-9.4952,-9.4952,-9.4952,-9.4952,-9.4952,-9.4952,-9.4952,-9.4952,-9.4952,-9.4952,-9.4914,-9.4724,-14.7102,-14.7102,-14.7102,-14.8614,-15.085,-15.1376,-15.302,-15.5058,-15.5716,-15.5913,-15.5913,-15.5913,-15.5913,-15.5913,-15.5815,-15.5749,-15.5156,-15.3884,-15.2691,-15.1329,-14.9829,-14.8293,-14.7949,-14.817,-14.9092,-14.9404,-14.9851,-15.0783,-15.0997,-15.058,-15.0455,-15.0193,-14.9407,-14.7784,-14.6461,-14.5799,-14.5533,-14.5533,-14.5533,-14.5533,-14.5533,-14.5533,-14.5533,-14.5533,-14.5533,-14.5533,-14.5533,-14.5266,-14.4673,-14.3129,-14.1152,-13.9143,-13.7015,-13.4759,-13.2608,-13.1321,-12.9817,-12.8145,-12.5679,-12.3284,-12.1933,-12.1482,-12.1726,-12.1678,-12.1433,-12.1678,-12.2068,-12.2117,-12.2117,-12.2117,-12.2117,-12.2117,-12.2117,-12.2117,-12.2117,-12.2117,-12.2117,-12.2117,-12.2117,-12.2117,-12.197,-12.1922,-12.1775,-12.1433,-12.0983,-12.0461,-11.9635,-11.8858,-11.8049,-11.5354,-11.2417,-10.9033,-10.5599,-10.2455,-9.9515,-9.8045,-9.6345,-9.4952,-9.4952,-9.4952,-9.4952,-9.4952,-9.4952,-9.4952,-9.4952,-9.4952,-9.4952,-9.4952,-9.4952,-9.4952,-9.4952,-9.4952,-9.4914,-9.461,-9.4421,-14.7102,-14.7233,-14.7825,-14.9403,-15.1639,-15.2165,-15.3743,-15.565,-15.5913,-15.5913,-15.5913,-15.5255,-15.4957,-15.4591,-15.439,-15.3986,-15.3681,-15.2107,-15.084,-14.9439,-14.8307,-14.7043,-14.7088,-14.7603,-14.8414,-14.9515,-15.0196,-15.1365,-15.174,-15.1005,-15.0688,-14.9474,-14.7784,-14.6461,-14.5932,-14.5666,-14.5533,-14.5533,-14.5533,-14.5533,-14.5533,-14.5533,-14.5533,-14.5533,-14.5533,-14.5533,-14.54,-14.4673,-14.3536,-14.1704,-13.9058,-13.7301,-13.5576,-13.2757,-13.0872,-12.9817,-12.8145,-12.6608,-12.4588,-12.3126,-12.1873,-12.1385,-12.1629,-12.1922,-12.1531,-12.1726,-12.2068,-12.2117,-12.2117,-12.2117,-12.2117,-12.2117,-12.2117,-12.2117,-12.2117,-12.2117,-12.2117,-12.2117,-12.2117,-12.2117,-12.197,-12.1775,-12.1385,-12.0886,-12.0461,-11.9828,-11.8426,-11.6795,-11.4278,-11.1677,-10.8658,-10.5255,-10.2322,-9.9123,-9.7336,-9.6345,-9.5131,-9.4952,-9.4952,-9.4952,-9.4952,-9.4952,-9.4952,-9.4952,-9.4952,-9.4952,-9.4952,-9.4952,-9.4952,-9.4952,-9.4952,-9.4952,-9.4648,-9.4269,-9.4117,-14.7167,-14.743,-14.8877,-15.0324,-15.1902,-15.3217,-15.4532,-15.5847,-15.5913,-15.5913,-15.5651,-15.4289,-15.3514,-15.2898,-15.2026,-15.1393,-15.0968,-14.9065,-14.8625,-14.7848,-14.662,-14.6488,-14.6933,-14.7493,-14.8414,-14.9643,-15.038,-14.9784,-14.9119,-15.0382,-14.916,-14.7713,-14.6593,-14.5932,-14.5533,-14.5533,-14.5533,-14.5533,-14.5533,-14.5533,-14.5533,-14.5533,-14.5533,-14.5533,-14.5533,-14.54,-14.5266,-14.3536,-14.1979,-14.068,-13.7586,-13.5432,-13.3735,-13.1269,-12.9363,-12.8145,-12.6403,-12.5212,-12.4119,-12.2702,-12.2068,-12.2068,-12.197,-12.1678,-12.1482,-12.1873,-12.2117,-12.2117,-12.2117,-12.2117,-12.2117,-12.2117,-12.2117,-12.2117,-12.2117,-12.2117,-12.2117,-12.2117,-12.2117,-12.2117,-12.2019,-12.1824,-12.1482,-12.0532,-11.9944,-11.8603,-11.7092,-11.477,-11.1888,-10.7516,-10.4522,-10.1791,-9.881,-9.7297,-9.549,-9.5131,-9.5131,-9.4952,-9.4952,-9.4952,-9.4952,-9.4952,-9.4952,-9.4952,-9.4952,-9.4952,-9.4952,-9.4952,-9.4952,-9.4952,-9.4952,-9.4952,-9.4724,-9.4231,-9.3889,-14.7825,-14.8943,-14.9337,-15.0916,-15.3217,-15.3612,-15.4598,-15.5782,-15.5815,-15.5815,-15.5453,-15.4087,-15.2587,-15.1541,-15.0968,-15.0432,-15.054,-14.8955,-14.8293,-14.7625,-14.662,-14.6011,-14.6633,-14.7554,-14.8476,-14.9643,-15.0383,-15.0214,-14.9777,-14.9295,-14.8103,-14.6197,-14.5799,-14.5666,-14.5533,-14.5533,-14.5533,-14.5533,-14.5533,-14.5533,-14.5533,-14.5533,-14.5533,-14.5533,-14.54,-14.4807,-14.3265,-14.1979,-13.9704,-13.8013,-13.5432,-13.3441,-13.1515,-12.9765,-12.8297,-12.6249,-12.5368,-12.3962,-12.3017,-12.2592,-12.2117,-12.1873,-12.158,-12.1238,-12.1238,-12.1775,-12.2117,-12.2117,-12.2117,-12.2117,-12.2117,-12.2117,-12.2117,-12.2117,-12.2117,-12.2117,-12.2117,-12.2117,-12.2117,-12.2117,-12.2068,-12.1824,-12.0823,-11.9961,-11.8646,-11.7253,-11.5193,-11.2719,-10.845,-10.3396,-10.0473,-9.8045,-9.6307,-9.5988,-9.5131,-9.5131,-9.5131,-9.4952,-9.4952,-9.4952,-9.4952,-9.4952,-9.4952,-9.4952,-9.4952,-9.4952,-9.4952,-9.4952,-9.4952,-9.4952,-9.4952,-9.4952,-9.4762,-9.4155,-9.3585,-14.8088,-14.9535,-15.0192,-15.1705,-15.3743,-15.4466,-15.4633,-15.446,-15.4325,-15.3819,-15.2833,-15.2002,-15.0947,-14.933,-14.8735,-14.8625,-14.8293,-14.7462,-14.695,-14.6496,-14.6163,-14.5957,-14.6633,-14.7923,-14.9213,-15.0322,-15.0638,-15.07,-14.9308,-14.8174,-14.6929,-14.5799,-14.5533,-14.5533,-14.5533,-14.5533,-14.5533,-14.5533,-14.5533,-14.5533,-14.5533,-14.5533,-14.5533,-14.5533,-14.4539,-14.3401,-14.1841,-14.0597,-13.7444,-13.5142,-13.3147,-13.1418,-12.9211,-12.7685,-12.6762,-12.4538,-12.3962,-12.3067,-12.2275,-12.2117,-12.2117,-12.1922,-12.1678,-12.1189,-12.1336,-12.1775,-12.2117,-12.2117,-12.2117,-12.2117,-12.2117,-12.2117,-12.2117,-12.2117,-12.2117,-12.2117,-12.2117,-12.2117,-12.2117,-12.2117,-12.1958,-12.0809,-11.9545,-11.7867,-11.5657,-11.3949,-11.1721,-10.9552,-10.5466,-10.0904,-9.7907,-9.5311,-9.5131,-9.4952,-9.4952,-9.4952,-9.4952,-9.4952,-9.4952,-9.4952,-9.4952,-9.4952,-9.4952,-9.4952,-9.4952,-9.4952,-9.4952,-9.4952,-9.4876,-9.4914,-9.4952,-9.4952,-9.4914,-9.4231,-9.3206,-14.8351,-14.9863,-15.0892,-15.2239,-15.365,-15.4303,-15.3653,-15.2042,-15.2002,-15.0777,-14.9485,-14.9376,-14.872,-14.7562,-14.6444,-14.5819,-14.5819,-14.5819,-14.5872,-14.5872,-14.5704,-14.6141,-14.7308,-14.8844,-14.9892,-15.021,-15.1066,-15.0035,-14.8362,-14.7583,-14.6593,-14.5799,-14.5533,-14.5533,-14.5533,-14.5533,-14.5533,-14.5533,-14.5533,-14.5533,-14.5533,-14.5133,-14.4999,-14.4404,-14.2993,-14.129,-14.0123,-13.7444,-13.456,-13.2555,-13.0368,-12.8602,-12.6917,-12.5368,-12.4695,-12.3962,-12.3067,-12.2117,-12.2117,-12.2117,-12.2117,-12.2117,-12.2068,-12.2117,-12.197,-12.2068,-12.2117,-12.2117,-12.2117,-12.2117,-12.2117,-12.2117,-12.2117,-12.2117,-12.2117,-12.2117,-12.2117,-12.2117,-12.2117,-12.1958,-12.0794,-11.9688,-11.8305,-11.5585,-11.2702,-11.0526,-10.8328,-10.6108,-10.3173,-10.0026,-9.7236,-9.5669,-9.4952,-9.4952,-9.4952,-9.4952,-9.4952,-9.4952,-9.4952,-9.4952,-9.4952,-9.4952,-9.4952,-9.4952,-9.4952,-9.4952,-9.4838,-9.4762,-9.4762,-9.4686,-9.4496,-9.461,-9.48,-9.4079,-9.313,-14.9863,-15.1149,-15.0736,-15.1358,-15.2214,-15.1032,-15.0026,-14.9702,-14.9594,-14.9204,-14.883,-14.8057,-14.75,-14.6938,-14.6154,-14.5588,-14.5588,-14.5588,-14.5588,-14.5588,-14.5473,-14.565,-14.6694,-14.8051,-14.9231,-14.9059,-15.0143,-15.0222,-14.7713,-14.6535,-14.5932,-14.5666,-14.5533,-14.5533,-14.5533,-14.5533,-14.5533,-14.5533,-14.5533,-14.5533,-14.5075,-14.3807,-14.2857,-14.2527,-14.0597,-13.8635,-13.696,-13.456,-13.2407,-13.0218,-12.8551,-12.6917,-12.5318,-12.4745,-12.3962,-12.2909,-12.2275,-12.2117,-12.2117,-12.2117,-12.2117,-12.2117,-12.2117,-12.2117,-12.2117,-12.2117,-12.2117,-12.2117,-12.2117,-12.2117,-12.2117,-12.2117,-12.2117,-12.2117,-12.2117,-12.2117,-12.2117,-12.2117,-12.2117,-12.0954,-11.9832,-11.8285,-11.6776,-11.4196,-11.0526,-10.7988,-10.5593,-10.3173,-10.143,-9.8655,-9.688,-9.549,-9.4952,-9.4952,-9.4952,-9.4952,-9.4952,-9.4952,-9.4952,-9.4952,-9.4952,-9.4952,-9.4952,-9.4952,-9.4952,-9.4914,-9.4686,-9.4572,-9.4534,-9.4421,-9.4079,-9.3889,-9.3737,-9.3206,-9.2598,-14.8526,-14.9826,-14.8932,-14.9333,-15.0329,-14.9376,-14.8279,-14.7388,-14.7163,-14.6599,-14.5749,-14.5519,-14.5519,-14.5519,-14.5411,-14.5588,-14.5588,-14.5588,-14.5588,-14.5357,-14.5009,-14.4599,-14.4965,-14.6689,-14.7055,-14.7408,-14.8463,-14.8491,-14.6666,-14.5932,-14.5666,-14.5533,-14.5533,-14.5533,-14.5533,-14.5533,-14.5533,-14.5533,-14.5533,-14.5533,-14.54,-14.3401,-14.1566,-14.0319,-13.8352,-13.6154,-13.4121,-13.2407,-12.9916,-12.7634,-12.6299,-12.5057,-12.3962,-12.3224,-12.3017,-12.2275,-12.2117,-12.2117,-12.2117,-12.2117,-12.2117,-12.2117,-12.2117,-12.2117,-12.2117,-12.2117,-12.2117,-12.2117,-12.2117,-12.2117,-12.2117,-12.2117,-12.2117,-12.2117,-12.2117,-12.2117,-12.2117,-12.2117,-12.1113,-11.9993,-11.7149,-11.4856,-11.3865,-11.1489,-10.8158,-10.5421,-10.2825,-10.1079,-9.9538,-9.7591,-9.6026,-9.5131,-9.4952,-9.4952,-9.4952,-9.4952,-9.4952,-9.4952,-9.4952,-9.4952,-9.4952,-9.4952,-9.4952,-9.4952,-9.4952,-9.4952,-9.4648,-9.4041,-9.4193,-9.4269,-9.3699,-9.3206,-9.2864,-9.2446,-9.1915,-14.6635,-14.7804,-14.6933,-14.7151,-14.8153,-14.7835,-14.6486,-14.5058,-14.4826,-14.3717,-14.241,-14.3067,-14.3835,-14.413,-14.5009,-14.5588,-14.5473,-14.5125,-14.5125,-14.4893,-14.3895,-14.3304,-14.373,-14.5298,-14.5573,-14.5538,-14.6317,-14.6635,-14.5815,-14.5533,-14.5533,-14.5533,-14.5533,-14.5533,-14.5533,-14.5533,-14.5533,-14.5533,-14.5533,-14.5133,-14.4539,-14.2857,-14.1013,-13.7444,-13.5287,-13.3388,-13.1664,-12.9765,-12.7532,-12.5007,-12.4432,-12.349,-12.2592,-12.2275,-12.2275,-12.2117,-12.2117,-12.2117,-12.2117,-12.2117,-12.2117,-12.2117,-12.2117,-12.2117,-12.2117,-12.2117,-12.2117,-12.2117,-12.2117,-12.2117,-12.2117,-12.2117,-12.2117,-12.2117,-12.2117,-12.2117,-12.1958,-12.1321,-12.0153,-11.7637,-11.3865,-11.0526,-10.9684,-10.7818,-10.5421,-10.3214,-10.0945,-9.9185,-9.8301,-9.688,-9.549,-9.5131,-9.4952,-9.4952,-9.4952,-9.4952,-9.4952,-9.4952,-9.4952,-9.4952,-9.4952,-9.4952,-9.4914,-9.4838,-9.4838,-9.4686,-9.4193,-9.3585,-9.3433,-9.313,-9.2902,-9.2636,-9.2408,-9.2143,-9.1535,-14.6138,-14.6889,-14.6069,-14.5731,-14.5573,-14.3952,-14.2948,-14.253,-14.241,-14.241,-14.2109,-14.3127,-14.3659,-14.3895,-14.5009,-14.5473,-14.5241,-14.4599,-14.3895,-14.3777,-14.259,-14.211,-14.2468,-14.3772,-14.4328,-14.2645,-14.3905,-14.494,-14.5317,-14.5533,-14.5533,-14.5533,-14.5533,-14.5533,-14.5533,-14.5533,-14.54,-14.5266,-14.5133,-14.4539,-14.2663,-14.1979,-13.8806,-13.4996,-13.211,-12.9916,-12.8399,-12.6712,-12.5212,-12.4538,-12.3175,-12.2434,-12.2117,-12.2117,-12.2117,-12.2117,-12.2117,-12.2117,-12.2117,-12.2117,-12.2117,-12.2117,-12.2117,-12.2117,-12.2117,-12.2117,-12.2117,-12.2117,-12.2117,-12.2117,-12.2117,-12.2117,-12.2117,-12.2117,-12.2117,-12.2117,-12.164,-11.9993,-11.7474,-11.4691,-11.1154,-10.8328,-10.6622,-10.4559,-10.304,-10.1295,-9.9185,-9.7769,-9.7236,-9.6523,-9.549,-9.4952,-9.4952,-9.4952,-9.4952,-9.4952,-9.4952,-9.4952,-9.4952,-9.4952,-9.4952,-9.4914,-9.4876,-9.48,-9.4458,-9.4079,-9.3623,-9.294,-9.2332,-9.1877,-9.1725,-9.1763,-9.1763,-9.1725,-9.1117,-14.4196,-14.479,-14.3927,-14.3481,-14.3423,-14.241,-14.1868,-14.1868,-14.1868,-14.1868,-14.2109,-14.3067,-14.3659,-14.3659,-14.4248,-14.4482,-14.4248,-14.3186,-14.259,-14.235,-14.1325,-14.0776,-14.1129,-14.1748,-14.2053,-14.1383,-14.2625,-14.3788,-14.4602,-14.5126,-14.5475,-14.5533,-14.5533,-14.5533,-14.5533,-14.5533,-14.4999,-14.4077,-14.3672,-14.2584,-14.0458,-13.9143,-13.6298,-13.3241,-12.9916,-12.7378,-12.5989,-12.4901,-12.4119,-12.3333,-12.2592,-12.2117,-12.2117,-12.2117,-12.2117,-12.2117,-12.2117,-12.2117,-12.2117,-12.2117,-12.2117,-12.2117,-12.2117,-12.2117,-12.2117,-12.2117,-12.2117,-12.2117,-12.2117,-12.2117,-12.2117,-12.2117,-12.2117,-12.2117,-12.2117,-12.1432,-11.9671,-11.6333,-11.3035,-11.0818,-10.8455,-10.628,-10.404,-10.143,-9.989,-9.9361,-9.7413,-9.6562,-9.6026,-9.6026,-9.5131,-9.4952,-9.4952,-9.4952,-9.4952,-9.4952,-9.4952,-9.4952,-9.4952,-9.4952,-9.4952,-9.4914,-9.48,-9.4421,-9.4041,-9.3623,-9.294,-9.2143,-9.1459,-9.1345,-9.1269,-9.1004,-9.0966,-9.1117,-9.0738,-14.2239,-14.2957,-14.2229,-14.1868,-14.1868,-14.1868,-14.1868,-14.1868,-14.1868,-14.1868,-14.2109,-14.277,-14.3186,-14.3186,-14.3186,-14.3186,-14.3067,-14.235,-14.1506,-14.1264,-13.9981,-13.9364,-13.9409,-13.9487,-13.9611,-14.0182,-14.1927,-14.309,-14.3788,-14.4602,-14.5242,-14.5475,-14.5533,-14.5533,-14.54,-14.4999,-14.3807,-14.239,-14.1566,-14.0319,-13.8068,-13.601,-13.4121,-13.1962,-12.8551,-12.5834,-12.4432,-12.4119,-12.349,-12.2434,-12.2117,-12.2117,-12.2117,-12.2117,-12.2117,-12.2117,-12.2117,-12.2117,-12.2117,-12.2117,-12.2117,-12.2117,-12.2117,-12.2117,-12.2117,-12.2117,-12.2117,-12.2117,-12.2117,-12.2117,-12.2117,-12.2117,-12.164,-12.1113,-12.0794,-11.9832,-11.666,-11.2869,-10.9684,-10.7306,-10.4904,-10.2692,-10.0418,-9.8832,-9.7946,-9.7058,-9.6205,-9.5311,-9.5131,-9.5131,-9.4952,-9.4952,-9.4952,-9.4952,-9.4952,-9.4952,-9.4952,-9.4952,-9.4952,-9.4952,-9.4952,-9.4914,-9.4572,-9.4155,-9.3699,-9.294,-9.2256,-9.1497,-9.089,-9.1042,-9.1117,-9.0814,-9.0624,-9.0586,-9.0434,-14.1324,-14.199,-14.1929,-14.1868,-14.1868,-14.1868,-14.1747,-14.1868,-14.1747,-14.1747,-14.1868,-14.1929,-14.199,-14.1869,-14.199,-14.1869,-14.1869,-14.1506,-14.0899,-13.9917,-13.8925,-13.8175,-13.8233,-13.8272,-13.8669,-13.96,-13.9891,-14.1461,-14.2916,-14.3614,-14.437,-14.5126,-14.5417,-14.5475,-14.5266,-14.3536,-14.2527,-14.1566,-14.004,-13.7926,-13.5432,-13.3828,-13.1962,-12.9614,-12.6608,-12.4432,-12.3067,-12.2434,-12.2434,-12.2117,-12.2117,-12.2117,-12.2117,-12.2117,-12.2117,-12.2117,-12.2117,-12.2117,-12.2117,-12.2117,-12.2117,-12.2117,-12.2117,-12.2117,-12.2117,-12.2117,-12.2117,-12.2117,-12.2117,-12.2117,-12.2117,-12.1958,-12.0794,-11.8979,-11.8495,-11.617,-11.2369,-11.0571,-10.8541,-10.46,-10.3735,-10.1645,-9.9361,-9.7769,-9.7236,-9.6205,-9.5669,-9.4952,-9.4952,-9.4952,-9.4952,-9.4952,-9.4952,-9.4952,-9.4952,-9.4952,-9.4952,-9.4952,-9.4952,-9.4952,-9.4952,-9.4838,-9.4458,-9.3889,-9.332,-9.256,-9.1801,-9.1117,-9.0472,-9.0472,-9.1004,-9.0776,-9.0396,-9.0358,-9.0358,-14.097,-14.1383,-14.1383,-14.1139,-14.0773,-14.0773,-14.0773,-14.0773,-14.0773,-14.0832,-14.0895,-14.108,-14.1142,-14.1142,-14.0717,-14.0595,-14.0532,-13.9794,-13.9174,-13.8551,-13.8049,-13.7797,-13.7855,-13.7855,-13.8088,-13.8669,-13.9367,-14.0298,-14.1345,-14.2218,-14.3206,-14.4253,-14.4428,-14.4835,-14.515,-14.3265,-14.1566,-14.004,-13.7926,-13.5142,-13.211,-13.1269,-12.9462,-12.6866,-12.5473,-12.3805,-12.2275,-12.2117,-12.2117,-12.2117,-12.2117,-12.2117,-12.2117,-12.2117,-12.2117,-12.2117,-12.2117,-12.2117,-12.2117,-12.2117,-12.2117,-12.2117,-12.2117,-12.2117,-12.2117,-12.2117,-12.2117,-12.1958,-12.2117,-12.2117,-12.1799,-12.0634,-11.8656,-11.6333,-11.4526,-11.1534,-10.6793,-10.6494,-10.4386,-10.1604,-10.0066,-9.9008,-9.674,-9.6205,-9.5848,-9.5349,-9.4952,-9.4952,-9.4952,-9.4952,-9.4952,-9.4952,-9.4952,-9.4952,-9.4952,-9.4952,-9.4952,-9.4952,-9.4952,-9.4952,-9.4952,-9.4952,-9.4458,-9.3851,-9.3054,-9.2294,-9.1725,-9.1117,-9.051,-9.0434,-9.0852,-9.0852,-9.0358,-9.013,-9.013,-14.0609,-14.0591,-14.065,-14.0405,-13.9912,-13.9912,-13.9735,-13.944,-13.9735,-13.9858,-13.9622,-14.0045,-14.0164,-14.0164,-13.9488,-13.9299,-13.905,-13.83,-13.7855,-13.7855,-13.7855,-13.7855,-13.7855,-13.7855,-13.7855,-13.7971,-13.8728,-13.9426,-13.9775,-14.0763,-14.2043,-14.3555,-14.307,-14.3325,-14.3962,-14.1566,-13.948,-13.7784,-13.5287,-13.2259,-12.9817,-12.8755,-12.6917,-12.4695,-12.4119,-12.3175,-12.2275,-12.2117,-12.2117,-12.2117,-12.2117,-12.2117,-12.2117,-12.2117,-12.2117,-12.2117,-12.2117,-12.2117,-12.2117,-12.2117,-12.2117,-12.2117,-12.2117,-12.2117,-12.2117,-12.2117,-12.1799,-12.1113,-12.0954,-12.0634,-11.9671,-11.8171,-11.6497,-11.403,-11.1366,-10.8031,-10.46,-10.2866,-10.147,-9.8478,-9.7946,-9.7058,-9.5848,-9.5131,-9.5131,-9.5131,-9.4952,-9.4952,-9.4952,-9.4952,-9.4952,-9.4952,-9.4952,-9.4952,-9.4952,-9.4952,-9.4952,-9.4952,-9.4952,-9.4952,-9.4952,-9.4952,-9.4496,-9.3965,-9.3244,-9.275,-9.2067,-9.1497,-9.0966,-9.0548,-9.0814,-9.0852,-9.0358,-9.0016,-9.0054,-13.9976,-14.0094,-14.0035,-13.9735,-13.9611,-13.9611,-13.8904,-13.8378,-13.9204,-13.8904,-13.8373,-13.8528,-13.8808,-13.8742,-13.8367,-13.8175,-13.7923,-13.7855,-13.7855,-13.7855,-13.7855,-13.7855,-13.7855,-13.7855,-13.7855,-13.7855,-13.7971,-13.8611,-13.9484,-13.9775,-14.1112,-14.2828,-14.1412,-14.1001,-14.1444,-13.8013,-13.601,-13.5142,-13.1962,-12.9968,-12.9211,-12.6557,-12.4695,-12.4432,-12.3175,-12.2275,-12.2117,-12.2117,-12.2117,-12.2117,-12.2117,-12.2117,-12.2117,-12.2117,-12.2117,-12.2117,-12.2117,-12.2117,-12.2117,-12.2117,-12.1958,-12.1799,-12.164,-12.2117,-12.1321,-12.0954,-12.0314,-11.8656,-11.84,-11.738,-11.5678,-11.4434,-11.3939,-11.3322,-10.922,-10.5979,-10.3561,-10.182,-9.989,-9.8123,-9.7591,-9.7058,-9.5311,-9.4952,-9.4952,-9.4952,-9.4952,-9.4952,-9.4952,-9.4952,-9.4952,-9.4952,-9.4952,-9.4952,-9.4952,-9.4952,-9.4952,-9.4952,-9.4952,-9.4952,-9.4952,-9.4952,-9.4686,-9.4155,-9.3585,-9.3168,-9.2674,-9.2294,-9.1839,-9.108,-9.0662,-9.0662,-9.0434,-9.013,-9.0016,-13.7721,-13.7999,-13.7236,-13.658,-13.627,-13.627,-13.5977,-13.5685,-13.6094,-13.5977,-13.5919,-13.6666,-13.7066,-13.7241,-13.7632,-13.7797,-13.7855,-13.7855,-13.7855,-13.7855,-13.7855,-13.7855,-13.7855,-13.7855,-13.7855,-13.7855,-13.7855,-13.8088,-13.8495,-13.8611,-13.9426,-14.0666,-13.9827,-13.9593,-14.032,-13.7288,-13.4705,-13.3535,-13.0969,-12.845,-12.6557,-12.5162,-12.4119,-12.3017,-12.2434,-12.2117,-12.2117,-12.2117,-12.2117,-12.2117,-12.2117,-12.2117,-12.2117,-12.2117,-12.2117,-12.2117,-12.2117,-12.2117,-12.2117,-12.1958,-12.1481,-11.9945,-11.9624,-11.8979,-11.7521,-11.6986,-11.6823,-11.5703,-11.5169,-11.4494,-11.3802,-11.2372,-10.9784,-10.7688,-10.555,-10.3735,-10.182,-10.0066,-9.8123,-9.674,-9.6205,-9.5848,-9.5311,-9.4952,-9.4952,-9.4952,-9.4952,-9.4952,-9.4952,-9.4952,-9.4952,-9.4952,-9.4952,-9.4952,-9.4952,-9.4952,-9.4952,-9.4952,-9.4952,-9.4952,-9.4952,-9.4952,-9.4838,-9.4307,-9.4003,-9.3585,-9.2902,-9.2674,-9.2143,-9.1497,-9.0738,-9.0548,-9.0282,-9.0054,-9.0016,-13.57,-13.6036,-13.5159,-13.4564,-13.4132,-13.4132,-13.3842,-13.3551,-13.4016,-13.39,-13.3842,-13.5296,-13.6052,-13.6401,-13.7739,-13.8204,-13.7855,-13.8262,-13.8669,-13.896,-13.8669,-13.8495,-13.8379,-13.803,-13.7855,-13.7855,-13.7855,-13.7855,-13.7729,-13.7222,-13.7546,-13.8112,-13.7127,-13.6958,-13.7776,-13.5069,-13.2999,-13.1664,-12.9311,-12.6917,-12.4851,-12.4119,-12.3333,-12.2275,-12.2117,-12.2117,-12.2117,-12.2117,-12.2117,-12.2117,-12.2117,-12.2117,-12.2117,-12.2117,-12.2117,-12.2117,-12.2117,-12.1799,-12.1113,-12.1481,-12.0954,-11.8818,-11.8124,-11.7149,-11.5678,-11.4856,-11.3865,-11.2945,-11.2282,-11.1725,-11.1433,-10.9405,-10.6743,-10.3077,-10.2561,-10.1698,-9.9681,-9.8221,-9.6786,-9.5413,-9.4952,-9.4952,-9.4952,-9.4952,-9.4952,-9.4952,-9.4952,-9.4952,-9.4952,-9.4952,-9.4952,-9.4952,-9.4952,-9.4952,-9.4952,-9.4952,-9.4952,-9.4952,-9.4952,-9.4952,-9.4952,-9.4952,-9.4762,-9.4458,-9.4307,-9.3889,-9.3168,-9.256,-9.1915,-9.1269,-9.089,-9.051,-9.013,-9.0016,-9.0016,-13.4074,-13.4197,-13.4074,-13.3842,-13.3783,-13.3725,-13.326,-13.2446,-13.3493,-13.3318,-13.2795,-13.4947,-13.6052,-13.6459,-13.832,-13.8902,-13.8204,-13.9018,-14.0065,-14.0996,-14.0065,-13.96,-13.9484,-13.8495,-13.7971,-13.7855,-13.7855,-13.7855,-13.7418,-13.5887,-13.5496,-13.5825,-13.3703,-13.2852,-13.3588,-13.1317,-12.9713,-12.8907,-12.6557,-12.4851,-12.4382,-12.3067,-12.2275,-12.2117,-12.2117,-12.2117,-12.2117,-12.2117,-12.2117,-12.2117,-12.2117,-12.2117,-12.2117,-12.2117,-12.1958,-12.1799,-12.1909,-12.0746,-11.8884,-12.0281,-12.0137,-11.7469,-11.7658,-11.6821,-11.5425,-11.4205,-11.2221,-11.034,-10.9749,-10.9083,-10.7091,-10.6153,-10.4406,-10.1324,-10.0515,-9.9472,-9.7487,-9.6556,-9.6165,-9.5299,-9.4952,-9.4952,-9.4952,-9.4914,-9.4952,-9.4952,-9.4952,-9.4952,-9.4952,-9.4952,-9.4952,-9.4952,-9.4952,-9.4952,-9.4952,-9.4952,-9.4952,-9.4952,-9.4914,-9.4952,-9.4952,-9.4648,-9.4421,-9.4193,-9.4003,-9.3699,-9.2978,-9.2332,-9.1687,-9.1042,-9.108,-9.0738,-9.032,-9.0016,-9.0016,-13.2795,-13.262,-13.1864,-13.1457,-13.1515,-13.1457,-13.1224,-13.105,-13.2213,-13.2562,-13.2678,-13.4889,-13.6052,-13.6343,-13.7739,-13.8146,-13.7971,-13.9135,-13.9949,-14.0298,-13.9949,-13.9716,-13.9658,-13.9309,-13.8669,-13.7913,-13.7855,-13.7037,-13.5758,-13.5112,-13.411,-13.3049,-13.1557,-13.0607,-13.0451,-12.9188,-12.7528,-12.6302,-12.5162,-12.3962,-12.2909,-12.2275,-12.2117,-12.2117,-12.2117,-12.2117,-12.2117,-12.2117,-12.2117,-12.2117,-12.2117,-12.2117,-12.2117,-12.2117,-12.1273,-11.9897,-12.0325,-11.989,-11.7837,-11.7266,-11.5613,-11.1534,-11.0927,-11.0063,-10.825,-10.742,-10.6631,-10.5833,-10.5154,-10.4859,-10.3944,-10.2121,-9.9783,-9.7665,-9.764,-9.6902,-9.5073,-9.5258,-9.5286,-9.4979,-9.4838,-9.4648,-9.4307,-9.4648,-9.4914,-9.4952,-9.4952,-9.4952,-9.4952,-9.4952,-9.4952,-9.4952,-9.4952,-9.4952,-9.4724,-9.4648,-9.4648,-9.4648,-9.4827,-9.4876,-9.4876,-9.4345,-9.3965,-9.3737,-9.3471,-9.3206,-9.275,-9.2105,-9.1345,-9.0548,-9.0472,-9.0548,-9.032,-9.0016,-8.9979,-13.1399,-13.134,-13.0584,-13.0235,-13.0293,-13.0701,-13.0875,-13.105,-13.2271,-13.2853,-13.3202,-13.5063,-13.6052,-13.6052,-13.7273,-13.8088,-13.8611,-13.9367,-14.0007,-14.0414,-13.9949,-13.9716,-13.9716,-13.9251,-13.8553,-13.7913,-13.7855,-13.6783,-13.4853,-13.3095,-13.1579,-13.0185,-12.8742,-12.7818,-12.7423,-12.6479,-12.5394,-12.4096,-12.3763,-12.3175,-12.2275,-12.2117,-12.2117,-12.2117,-12.2117,-12.2117,-12.2117,-12.2117,-12.2117,-12.2117,-12.1113,-12.0968,-12.1264,-11.9736,-11.7784,-11.6185,-11.6741,-11.6203,-11.387,-11.3633,-11.1822,-10.8023,-10.7532,-10.6962,-10.51,-10.3433,-10.2427,-10.2175,-10.1504,-10.0501,-10.0208,-9.8532,-9.6334,-9.484,-9.4757,-9.4591,-9.3352,-9.3282,-9.3737,-9.4003,-9.4079,-9.4041,-9.3889,-9.4458,-9.4952,-9.4952,-9.4952,-9.4952,-9.4952,-9.4952,-9.4952,-9.4952,-9.4952,-9.48,-9.4307,-9.4117,-9.4117,-9.4117,-9.4155,-9.4117,-9.4003,-9.3433,-9.3092,-9.2826,-9.2864,-9.2522,-9.1687,-9.1117,-9.1117,-9.0396,-9.013,-9.0168,-9.0016,-8.9599,-8.9637,-13.0235,-13.0293,-13.0293,-13.041,-13.0526,-13.1689,-13.2213,-13.2329,-13.3609,-13.4191,-13.4365,-13.5587,-13.6168,-13.6285,-13.7332,-13.8437,-13.9484,-13.9484,-14.0182,-14.1229,-14.0298,-13.9716,-13.96,-13.8495,-13.7845,-13.7581,-13.7454,-13.6502,-13.4354,-13.0401,-12.8163,-12.7887,-12.5478,-12.4284,-12.4114,-12.342,-12.2999,-12.2884,-12.227,-12.2068,-12.2117,-12.2068,-12.2019,-12.2117,-12.2117,-12.2117,-12.2117,-12.2068,-12.2019,-12.2019,-11.9432,-11.8634,-11.9612,-11.5395,-11.2393,-11.1685,-11.1456,-11.0328,-10.8425,-10.9662,-10.9779,-10.7475,-10.6687,-10.6983,-10.5987,-10.2842,-10.0664,-10.0534,-9.8894,-9.6932,-9.5471,-9.4976,-9.4226,-9.2841,-9.2673,-9.2292,-9.1404,-9.1649,-9.1725,-9.2408,-9.2636,-9.2788,-9.3547,-9.4345,-9.461,-9.48,-9.4876,-9.4876,-9.4876,-9.4876,-9.48,-9.48,-9.4648,-9.4307,-9.294,-9.2902,-9.2788,-9.2826,-9.3054,-9.2712,-9.256,-9.2408,-9.2105,-9.1915,-9.2256,-9.1915,-9.0814,-9.0472,-9.0814,-9.0776,-9.051,-9.0244,-9.0358,-8.9485,-8.9333,-13.0235,-13.0352,-13.1224,-13.2155,-13.3085,-13.3434,-13.3551,-13.3725,-13.4947,-13.5528,-13.5645,-13.6808,-13.7332,-13.739,-13.7681,-13.7971,-13.832,-13.8379,-13.9077,-14.0124,-13.9949,-13.9716,-13.9716,-13.9309,-13.8111,-13.6236,-13.5974,-13.4971,-13.2932,-12.8893,-12.5925,-12.4211,-12.2413,-12.1228,-12.0952,-12.0707,-12.069,-12.114,-12.1113,-12.1336,-12.1922,-12.1385,-12.1336,-12.2068,-12.2117,-12.2117,-12.2117,-12.1385,-12.0945,-12.0788,-11.7757,-11.6077,-11.6314,-11.1798,-10.9716,-11.118,-11.0654,-10.9125,-10.659,-10.6365,-10.5207,-10.2909,-10.2583,-10.2583,-10.2093,-10.0244,-9.888,-9.8424,-9.6047,-9.3441,-9.1673,-9.1504,-9.1335,-9.0866,-9.1231,-9.1614,-9.1193,-9.1801,-9.2143,-9.237,-9.1877,-9.1877,-9.2636,-9.3054,-9.3471,-9.3927,-9.4079,-9.4193,-9.4762,-9.4421,-9.4079,-9.4041,-9.3509,-9.2978,-9.2636,-9.237,-9.2484,-9.2484,-9.2446,-9.2598,-9.3282,-9.275,-9.2256,-9.2408,-9.2446,-9.2181,-9.1649,-9.1687,-9.1953,-9.1725,-9.1307,-9.0852,-9.0662,-9.0168,-8.9865,-13.1806,-13.1922,-13.262,-13.3434,-13.4132,-13.4714,-13.4889,-13.5063,-13.6226,-13.675,-13.6866,-13.7506,-13.7855,-13.7855,-13.7855,-13.7855,-13.7855,-13.7855,-13.8262,-13.8902,-13.896,-13.896,-13.8833,-13.788,-13.6685,-13.5371,-13.4033,-13.2739,-13.0964,-12.8402,-12.5547,-12.2586,-12.0275,-11.925,-11.8959,-11.8657,-11.8738,-11.914,-11.9628,-12.0164,-12.0653,-12.0213,-12.0164,-12.075,-12.0799,-12.0848,-12.0593,-11.9067,-11.8258,-11.8053,-11.4271,-11.2278,-11.286,-10.8008,-10.6248,-10.8187,-10.7008,-10.5456,-10.3841,-10.3158,-10.2252,-10.0836,-10.0716,-10.0716,-10.0553,-9.8997,-9.727,-9.5781,-9.3318,-9.1166,-9.0187,-9.0016,-9.0016,-9.0054,-9.0396,-9.07,-9.0738,-9.1155,-9.1459,-9.1459,-9.1042,-9.1042,-9.1763,-9.1953,-9.2332,-9.3016,-9.3244,-9.3357,-9.3813,-9.3547,-9.3244,-9.3054,-9.2181,-9.1573,-9.1421,-9.1459,-9.1611,-9.1839,-9.1991,-9.2256,-9.2864,-9.2712,-9.2636,-9.3054,-9.275,-9.2522,-9.2522,-9.2294,-9.1953,-9.1725,-9.1307,-9.0738,-9.0738,-9.0092,-8.9789,-13.4074,-13.4132,-13.4191,-13.4307,-13.4481,-13.5645,-13.6168,-13.6343,-13.7332,-13.7855,-13.7739,-13.7855,-13.7855,-13.7855,-13.7855,-13.7855,-13.7855,-13.7855,-13.7855,-13.7855,-13.7855,-13.7855,-13.766,-13.4998,-13.4054,-13.4324,-13.175,-12.9873,-12.8833,-12.7896,-12.582,-12.2248,-11.9256,-11.7965,-11.7866,-11.7407,-11.7138,-11.7285,-11.8163,-11.8651,-11.8749,-11.8798,-11.8847,-11.8895,-11.8944,-11.8944,-11.8577,-11.6418,-11.5067,-11.4278,-11.0147,-10.808,-10.8672,-10.4676,-10.2497,-10.373,-10.1875,-10.0461,-10.0418,-10.0418,-10.0496,-10.0418,-10.0256,-10.0178,-10.0015,-9.8747,-9.6199,-9.317,-9.1065,-9.0144,-8.9751,-8.9827,-8.9827,-8.9789,-8.9979,-9.0016,-9.0054,-9.0016,-9.0016,-9.0016,-9.013,-9.0282,-9.0966,-9.1117,-9.1421,-9.2029,-9.2256,-9.2446,-9.2712,-9.2522,-9.237,-9.2105,-9.1345,-9.0548,-9.0548,-9.0282,-9.089,-9.1383,-9.1421,-9.1915,-9.256,-9.2788,-9.2712,-9.3282,-9.2864,-9.275,-9.2522,-9.1953,-9.1497,-9.1611,-9.1155,-9.0358,-9.0054,-8.9637,-8.9409,-13.4132,-13.4249,-13.5179,-13.5587,-13.5703,-13.6924,-13.7448,-13.7448,-13.7681,-13.7855,-13.7855,-13.7855,-13.7855,-13.7855,-13.7855,-13.7855,-13.7855,-13.7855,-13.7855,-13.7855,-13.7855,-13.7855,-13.7544,-13.4812,-13.2937,-13.164,-12.8893,-12.7016,-12.6186,-12.5122,-12.3971,-12.2609,-11.9195,-11.735,-11.735,-11.646,-11.6406,-11.7138,-11.6699,-11.6797,-11.7578,-11.7626,-11.8066,-11.8847,-11.8895,-11.7966,-11.6104,-11.6476,-11.4911,-11.1261,-10.9148,-10.7381,-10.5521,-10.1981,-10.0147,-10.033,-9.9167,-9.8465,-9.8465,-9.8465,-9.8465,-9.8465,-9.7858,-9.7466,-9.7383,-9.6436,-9.4367,-9.1309,-9.0274,-8.9574,-8.8565,-8.865,-8.9067,-8.9105,-8.9599,-8.9903,-8.9979,-9.0016,-9.0016,-9.0016,-9.0016,-9.0016,-9.0244,-9.0282,-9.0358,-9.0662,-9.1117,-9.1763,-9.2256,-9.1877,-9.1573,-9.1535,-9.1801,-9.1763,-9.1915,-9.1839,-9.1915,-9.2105,-9.2219,-9.2598,-9.3168,-9.3433,-9.3623,-9.4041,-9.3813,-9.3357,-9.332,-9.2712,-9.2181,-9.2029,-9.1725,-9.1497,-9.0928,-9.0206,-8.9865,-13.5819,-13.5936,-13.6517,-13.6866,-13.6924,-13.7506,-13.7855,-13.7855,-13.7855,-13.7855,-13.7855,-13.7855,-13.7855,-13.7855,-13.7855,-13.7855,-13.7855,-13.7855,-13.7855,-13.7855,-13.7855,-13.7855,-13.7418,-13.3508,-13.1272,-13.0594,-12.6538,-12.4386,-12.4026,-12.3118,-12.2209,-12.1434,-11.8679,-11.6992,-11.6504,-11.5967,-11.5918,-11.6455,-11.4991,-11.4259,-11.4308,-11.4308,-11.4356,-11.4503,-11.5528,-11.5363,-11.3948,-11.3043,-11.1365,-10.8578,-10.643,-10.4269,-10.2385,-10.058,-9.9234,-9.8709,-9.8083,-9.7786,-9.7786,-9.7786,-9.7786,-9.7786,-9.734,-9.6022,-9.3313,-9.2221,-9.0881,-8.912,-8.8956,-8.8463,-8.7549,-8.7928,-8.8194,-8.8194,-8.8574,-8.8878,-8.8915,-8.9181,-8.9295,-8.8953,-8.9181,-8.9295,-8.8915,-8.9219,-8.9447,-8.9523,-9.0168,-9.0814,-9.1231,-9.1231,-9.1117,-9.0814,-9.1383,-9.1839,-9.1877,-9.1915,-9.2256,-9.2978,-9.3054,-9.3395,-9.4117,-9.3889,-9.3927,-9.4231,-9.3699,-9.3244,-9.313,-9.2484,-9.2029,-9.1877,-9.1687,-9.1269,-9.0814,-9.0358,-9.0016,-13.7797,-13.7855,-13.7855,-13.7855,-13.7855,-13.7855,-13.7855,-13.7855,-13.7855,-13.7913,-13.8088,-13.8088,-13.8204,-13.8379,-13.8204,-13.8088,-13.8088,-13.7913,-13.7855,-13.7855,-13.7855,-13.7544,-13.7037,-13.1601,-12.9395,-12.9546,-12.4512,-12.2052,-12.2312,-12.1556,-12.0645,-11.9782,-11.8183,-11.665,-11.5528,-11.543,-11.5381,-11.5186,-11.3478,-11.216,-11.1379,-11.1477,-11.0842,-10.9476,-11.1477,-11.2209,-11.143,-10.881,-10.7115,-10.6045,-10.3441,-10.1275,-9.9867,-9.9671,-9.9107,-9.816,-9.8004,-9.7847,-9.762,-9.7349,-9.7234,-9.7046,-9.6741,-9.4261,-8.9021,-8.7781,-8.7334,-8.7169,-8.7093,-8.7169,-8.7169,-8.7245,-8.7359,-8.7359,-8.7473,-8.7549,-8.7625,-8.8194,-8.8422,-8.7966,-8.827,-8.8346,-8.8042,-8.8308,-8.865,-8.8878,-8.9447,-8.9903,-9.0206,-9.0624,-9.0738,-9.0434,-9.0852,-9.1345,-9.1573,-9.1421,-9.2029,-9.3357,-9.3433,-9.3585,-9.4193,-9.3813,-9.3509,-9.3547,-9.2864,-9.237,-9.2294,-9.1611,-9.1155,-9.1042,-9.0624,-9.0168,-9.013,-8.9903,-8.9789,-13.7855,-13.7855,-13.7855,-13.7855,-13.7855,-13.7855,-13.7855,-13.7855,0.0,0.0,0.0,-13.9426,-14.0007,-14.0938,-13.9891,-13.9426,-13.9309,-13.832,-13.7855,-13.7855,-13.7855,-13.6597,-13.4162,-13.0744,-12.7917,-12.5766,-12.2413,-12.0888,-12.1205,-12.0356,-11.9602,-11.8796,-11.7791,-11.6309,-11.4503,-11.4405,-11.3966,-11.3136,-11.2746,-11.2892,-11.3575,-11.4405,-11.3039,-10.9378,-11.1379,-11.0411,-10.5795,-10.7709,-10.6608,-10.1657,-10.2781,-10.2492,-10.0246,-9.9375,-9.9229,-9.9837,-9.9206,-9.8233,-9.7244,-9.5889,-9.4559,-9.359,-9.1615,-8.9304,-8.6937,-8.7127,-8.6832,-8.5546,-8.5423,-8.5423,-8.5423,-8.6068,-8.6524,-8.6524,-8.7131,-8.7511,-8.7511,-8.7701,-8.7928,-8.8384,-8.8042,-8.7928,-8.8346,-8.808,-8.7966,-8.8612,-8.8953,-8.9219,-8.9865,-9.0168,-9.0434,-9.089,-9.1535,-9.2181,-9.2219,-9.2181,-9.237,-9.2674,-9.275,-9.275,-9.2864,-9.2788,-9.2712,-9.2712,-9.2029,-9.1535,-9.1383,-9.0814,-9.0244,-9.0206,-9.0092,-9.0016,-8.9941,-8.9485,-8.9029,-13.7855,0.0,-13.7855,-13.7855,0.0,-13.7855,-13.7855,-13.7855,-13.7855,-13.8553,-13.9775,-14.0473,-14.1112,-14.1694,-14.1054,-14.0356,-13.9716,-13.9077,-13.8437,-13.7855,-13.7855,-13.6284,-13.3508,-13.0475,-12.7533,-12.4657,-12.1526,-11.9692,-11.9405,-11.8213,-11.7022,-11.6324,-11.47,-11.3527,-11.2502,-11.1965,-11.1428,-11.0891,-11.0891,-11.0891,-11.0891,-11.0168,-10.8815,-10.6751,-10.7554,0.0,0.0,0.0,0.0,0.0,0.0,0.0,0.0,0.0,0.0,-9.7051,-9.6254,-9.5716,-9.5386,-9.3129,-9.1732,-9.194,-8.9326,-8.6267,-8.3319,-8.4206,-8.4623,-8.3714,-8.4094,-8.4511,-8.4929,-8.5347,-8.5612,-8.565,-8.5992,-8.622,-8.6258,-8.66,-8.7093,-8.7435,-8.7511,-8.7473,-8.7549,-8.7777,-8.8194,-8.8194,-8.884,-8.9561,-8.9903,-9.0016,-9.032,-9.1117,-9.1611,-9.1839,-9.1839,-9.1839,-9.1953,-9.237,-9.2484,-9.2484,-9.2484,-9.2143,-9.1839,-9.1801,-9.1155,-9.0624,-9.0586,-9.0282,-9.0016,-9.0016,-9.0016,-8.9789,-8.8878,-8.8422,-8.8156,-13.7506,-13.7506,-13.7739,-13.7855,-13.7797,-13.7332,-13.7157,-13.7099,-13.7099,-13.7739,-13.8786,-14.0298,-14.1403,-14.2043,-14.1578,-14.088,-14.0124,-13.96,-13.8786,-13.7855,-13.7855,-13.59,-13.2663,-13.0261,-12.7257,-12.386,-12.0597,-11.8748,-11.7864,-11.5983,-11.4508,-11.3771,-11.1867,-11.0696,-11.0208,0.0,0.0,0.0,-10.9085,-10.8939,-10.8163,-10.6607,-10.5177,-10.3705,-10.3836,0.0,-10.2395,-10.1801,-10.1026,-10.0022,-9.9056,0.0,0.0,0.0,0.0,0.0,0.0,0.0,0.0,0.0,0.0,0.0,-8.6689,-8.2918,-7.9953,-8.0905,-8.1702,-8.1588,-8.2613,-8.341,-8.3752,-8.3904,-8.4132,-8.4436,-8.4474,-8.4625,-8.4967,-8.5612,-8.622,-8.6486,-8.6979,-8.7131,-8.6979,-8.7777,-8.8308,-8.8004,-8.8915,-8.9751,-8.9979,-9.0016,-9.0244,-9.0852,-9.0966,-9.1004,-9.1004,-9.1004,-9.1231,-9.1801,-9.2029,-9.1991,-9.1877,-9.1383,-9.1004,-9.0966,-9.0472,-9.0016,-9.0016,-9.0016,-8.9941,-8.9789,-8.9751,-8.9333,-8.7852,-8.7435,-8.7283,-13.6285,-13.6401,-13.739,-13.7855,-13.7622,-13.5528,-13.4598,-13.4598,-13.4598,-13.4714,-13.5005,-13.7332,-14.0182,-14.3206,-14.0996,-14.0531,-14.1345,-13.9135,-13.7971,-13.7855,-13.7855,-13.4812,-12.9665,-12.9258,-12.6286,-12.1091,-11.8869,-11.7849,-11.7815,-11.529,-11.3574,-11.2697,-11.1477,-10.9915,-10.8109,-10.7035,-10.6498,-10.6498,-10.8304,-10.9671,-11.0452,-11.1138,-10.8624,-10.3092,-10.4553,-10.3211,-9.847,-9.8874,-9.8829,-9.7826,-9.7644,-9.7502,-9.7308,-9.8273,-9.7929,0.0,-9.6682,0.0,0.0,0.0,0.0,0.0,0.0,0.0,0.0,-7.8703,-7.8969,-7.8247,-8.0221,-8.1019,-7.969,-8.0221,-8.1246,-8.2613,-8.2803,-8.3373,-8.4739,-8.5043,-8.5688,-8.7207,-8.6827,-8.7017,-8.8118,-8.7966,-8.7966,-8.8498,-8.8764,-8.8991,-8.9751,-8.9865,-8.9903,-9.013,-9.0168,-9.0244,-9.0244,-9.0206,-9.0244,-9.032,-9.0434,-9.032,-9.0434,-9.0282,-9.0206,-9.0168,-9.0054,-8.9979,-9.0016,-8.9979,-8.9713,-8.9067,-8.8915,-8.8536,-8.7625,-8.6903,-8.6486,-13.4947,-13.5005,-13.5587,-13.5761,-13.5645,-13.4598,-13.4132,-13.4132,-13.4132,-13.454,-13.5238,-13.6343,-13.8146,-14.0298,-13.9193,-13.8669,-13.8495,-13.739,-13.6459,-13.5637,-13.4143,-13.1162,-12.7211,-12.6185,-12.3568,-11.95,-11.7834,-11.696,-11.6869,-11.3766,-11.1715,-11.0696,-10.9622,-10.7719,-10.5181,-10.5717,-10.6352,-10.6938,-10.7914,-10.889,-10.9915,-10.9154,-10.6981,-10.3187,-10.2886,-10.0768,-9.6981,-9.7332,-9.7113,-9.6148,-9.6105,-9.6212,-9.627,-9.5322,-9.4745,0.0,0.0,0.0,0.0,0.0,0.0,0.0,0.0,0.0,0.0,0.0,-7.5514,-7.6083,-7.9234,-8.0411,-7.8285,-7.9272,-8.0145,-8.0373,-8.0411,-8.0905,-8.2082,-8.2613,-8.3373,-8.4587,-8.4815,-8.5537,-8.7169,-8.7473,-8.7814,-8.8688,-8.7549,-8.6789,-8.7207,-8.8042,-8.8612,-8.8688,-8.9409,-9.0016,-9.0016,-9.0016,-9.0016,-9.0016,-9.0016,-9.0016,-9.0016,-9.0016,-9.0016,-8.9979,-8.9637,-8.9333,-8.9295,-8.8991,-8.8536,-8.8118,-8.7739,-8.7131,-8.6296,-8.5802,-8.5537,-13.3667,-13.3493,-13.1399,-13.0817,-13.1399,-13.1399,-13.1748,-13.2271,-13.2271,-13.2446,-13.2911,-13.3783,-13.3842,-13.3318,-13.3609,-13.39,-13.4191,-13.4191,-13.4191,-13.401,-13.1165,-12.8317,-12.5494,-12.3533,-12.119,-11.8313,-11.654,-11.5617,-11.5318,-11.1901,-10.9427,-10.8109,-10.7279,-10.5571,-10.3082,-10.4985,-10.6734,-10.767,-10.7914,-10.8451,-10.9232,-10.6943,-10.4902,-10.3274,-10.0911,-9.8515,-9.6285,-9.613,-9.579,-9.5068,-9.4633,-9.438,-9.4673,-9.2361,0.0,0.0,0.0,0.0,0.0,0.0,0.0,0.0,0.0,-7.0123,-6.7389,0.0,-7.2211,0.0,-7.707,-7.8475,-7.6804,-7.7602,0.0,0.0,-7.7678,-7.7981,-7.9006,-8.0032,-8.0981,-8.1778,-8.2613,-8.379,-8.5499,-8.622,-8.6865,-8.7473,-8.622,-8.5119,-8.4777,-8.6296,-8.7321,-8.6865,-8.7777,-8.8726,-8.846,-8.8953,-8.9447,-8.9675,-8.9865,-8.9941,-8.9751,-8.9865,-9.0016,-8.9979,-8.9485,-8.9029,-8.884,-8.827,-8.7739,-8.7017,-8.641,-8.5764,-8.5119,-8.4967,-8.4891,-13.2392,-13.1573,-12.343,-12.1452,-12.3488,-12.3488,-12.4826,-12.6978,-12.7036,-12.5756,-12.4011,-12.7385,-12.5756,-12.0405,-12.151,0.0,-12.8897,-12.8956,-13.0759,-13.3951,-13.1165,-12.8317,-12.544,-12.2786,-11.9902,-11.6579,-11.4372,-11.3256,-11.2725,-10.9624,-10.684,-10.4839,-10.4692,-10.4058,-10.3033,-10.4985,-10.6596,-10.767,-10.8646,-10.9183,-10.9232,-10.6943,-10.4622,-10.2417,-10.0035,-9.7514,-9.5307,-9.5153,-9.5153,-9.4941,-9.3339,-9.2356,-9.238,0.0,0.0,0.0,0.0,0.0,0.0,0.0,0.0,0.0,0.0,0.0,0.0,0.0,0.0,0.0,-7.2097,0.0,-7.3957,-7.3463,0.0,0.0,0.0,-7.4754,-7.6311,-7.7981,-7.931,-8.0107,0.0,0.0,-8.3714,-8.398,-8.4056,-8.4132,-8.5309,-8.5612,-8.4056,-8.5802,-8.6676,-8.4436,-8.4815,-8.5081,-8.4929,-8.6258,-8.7701,-8.846,-8.9523,-8.9523,-8.8991,-8.9371,-8.9941,-8.9903,-8.9941,-8.9637,-8.8915,-8.8536,-8.7966,-8.5575,-8.5081,-8.5043,-8.4853,-8.4815,-8.4587,-12.5115,-12.2557,-11.9067,-11.7729,-11.7962,-11.7962,-11.9416,-12.1801,-12.1801,-12.0812,-11.9242,-12.0696,-11.866,-11.4065,-11.4647,0.0,0.0,0.0,-12.2325,-12.5874,-12.1517,-12.0567,-12.1983,-11.8257,-11.5627,-11.4091,-11.2602,-11.1356,-11.0352,-10.7926,-10.3326,-9.6981,0.0,0.0,-9.8152,-10.2106,-10.4644,-10.5766,-10.8695,-10.9915,-10.928,-10.8863,-10.6645,-10.2473,-10.1243,-9.9045,-9.518,-9.4516,-9.4016,-9.3296,-9.1939,-9.0899,0.0,0.0,0.0,0.0,0.0,0.0,0.0,0.0,0.0,0.0,0.0,-6.4997,-6.2719,0.0,0.0,0.0,-6.7123,-6.7579,-6.8376,-7.0009,0.0,0.0,0.0,0.0,0.0,0.0,0.0,-7.7526,-7.8475,-7.9842,-8.1892,-8.0449,-7.9386,-7.9918,-8.0601,-8.0753,-8.0107,0.0,-8.2993,-8.2993,-8.3259,-8.3676,-8.436,-8.4056,-8.4018,-8.4853,-8.6068,-8.6789,-8.6562,-8.7587,-8.846,-8.846,-8.8118,-8.7663,-8.7359,-8.641,-8.5233,-8.379,-8.3448,-8.3448,-8.3448,-8.3448,-8.3373,-11.6392,0.0,0.0,0.0,0.0,-11.232,-11.3658,-11.5984,-11.5694,-11.453,-11.3018,-11.3716,0.0,0.0,0.0,0.0,0.0,0.0,-11.6043,-11.8849,-11.5798,-11.5769,-11.8314,-11.4281,-11.1749,-11.0644,-10.9751,-10.794,-10.5439,-10.3126,-9.8445,-9.1688,0.0,0.0,0.0,0.0,-10.3082,-10.4546,-10.8646,-11.0647,-11.0208,-11.094,-10.8862,-10.3819,-10.2166,-9.9212,-9.4797,-9.3802,-9.2674,-9.1406,-8.9876,0.0,0.0,0.0,0.0,0.0,0.0,0.0,0.0,0.0,0.0,0.0,0.0,0.0,0.0,0.0,0.0,0.0,0.0,0.0,-6.458,-6.7009,-6.8034,0.0,0.0,0.0,0.0,0.0,0.0,0.0,0.0,0.0,-7.8475,-7.6842,-7.5893,0.0,0.0,-7.8361,-7.764,-7.9158,-8.0373,-8.0335,-8.0335,0.0,-8.1588,-8.1057,-8.0905,-8.1968,-8.3486,-8.4587,-8.4625,-8.5233,-8.5726,-8.5688,-8.5423,-8.4853,-8.4018,-8.2765,-8.1816,-8.1208,-8.0829,-8.0677,-8.0639,-8.0449,-8.0221,0.0,0.0,0.0,0.0,0.0,0.0,0.0,0.0,-10.819,-10.6271,0.0,-10.6503,0.0,0.0,0.0,0.0,0.0,-10.9993,0.0,0.0,-11.6862,-11.6874,-11.449,-11.1728,-10.8795,-10.5834,-10.5492,-10.2495,-9.714,-9.368,0.0,0.0,0.0,0.0,0.0,0.0,-10.235,-10.4351,-10.8597,-11.1379,-11.2306,-11.2453,-11.0748,-10.7105,-10.1741,-9.7206,-9.3927,-9.2707,-9.1318,-8.9443,-8.6481,0.0,0.0,0.0,0.0,0.0,0.0,0.0,0.0,0.0,0.0,0.0,0.0,0.0,0.0,0.0,0.0,0.0,0.0,0.0,0.0,-6.458,0.0,0.0,0.0,0.0,0.0,0.0,0.0,0.0,0.0,0.0,-7.2856,-7.335,-7.4413,-7.6007,0.0,0.0,0.0,0.0,-7.9766,-7.5969,-7.5248,-7.5058,-7.4375,-7.6804,-7.9348,-8.0943,0.0,0.0,-8.3714,-8.2461,-8.1512,-8.1474,-8.2082,-8.1588,-7.8437,-7.7716,-7.7678,-7.7602,-7.6956,-7.6425,-7.6349,-7.5893,-7.5172,0.0,0.0,0.0,0.0,0.0,0.0,0.0,0.0,0.0,-10.1268,0.0,-10.0628,0.0,0.0,0.0,0.0,0.0,0.0,0.0,0.0,-10.6101,-10.69,-10.8179,-10.6223,-10.3266,0.0,-9.9194,-9.496,0.0,0.0,0.0,0.0,0.0,0.0,0.0,0.0,-9.8836,-10.0446,-10.723,-11.0696,-11.0501,-11.1818,-11.1236,-10.8527,-10.4398,-9.9657,-9.4147,-9.1673,-8.9837,0.0,0.0,0.0,0.0,0.0,0.0,0.0,0.0,0.0,0.0,0.0,0.0,0.0,0.0,0.0,0.0,0.0,0.0,0.0,0.0,0.0,0.0,0.0,-6.2795,0.0,0.0,0.0,0.0,0.0,0.0,0.0,0.0,0.0,-6.9363,-6.9971,-7.1527,-7.4223,-7.559,-7.6653,-7.745,0.0,0.0,0.0,0.0,0.0,0.0,0.0,-7.5476,-7.5552,-7.559,-7.6159,-7.7754,-7.8475,-7.8817,-7.8855,0.0,0.0,-7.2742,-7.2287,-7.2628,-7.2628,-7.2856,-7.2818,-7.2287,-7.2362,-7.2325,0.0,0.0,0.0,0.0,0.0,0.0,0.0,0.0,0.0,-9.6557,-9.5655,0.0,0.0,0.0,0.0,0.0,0.0,0.0,0.0,0.0,0.0,0.0,-10.3054,-10.1972,0.0,0.0,0.0,0.0,0.0,0.0,0.0,0.0,0.0,0.0,0.0,0.0,-9.7127,-9.8836,-10.6303,-11.0354,-11.0403,-11.177,-11.1672,-10.9866,-10.5699,-10.1157,-9.592,0.0,0.0,0.0,0.0,0.0,0.0,0.0,0.0,0.0,0.0,0.0,0.0,0.0,0.0,0.0,0.0,0.0,0.0,0.0,0.0,0.0,0.0,0.0,0.0,0.0,-6.0935,0.0,0.0,0.0,0.0,0.0,0.0,0.0,0.0,0.0,0.0,0.0,-6.8642,-7.1679,-7.3008,-7.4337,-7.6007,-7.6273,-7.6653,0.0,0.0,0.0,0.0,0.0,0.0,0.0,0.0,0.0,0.0,0.0,0.0,0.0,0.0,-7.2097,-6.8224,-6.7958,-6.83,-6.83,0.0,0.0,0.0,0.0,0.0,0.0,0.0,0.0,0.0,0.0,0.0,0.0,0.0,0.0,0.0,-9.1962,0.0,0.0,-9.1962,0.0,0.0,0.0,0.0,0.0,0.0,0.0,0.0,0.0,0.0,0.0,0.0,0.0,0.0,0.0,0.0,0.0,0.0,0.0,0.0,0.0,0.0,-9.7371,-9.9616,-10.5913,-11.0257,-11.2306,-11.2502,-11.1916,-11.0649,-10.5435,-10.1421,-9.9174,0.0,0.0,0.0,0.0,0.0,0.0,0.0,0.0,0.0,0.0,0.0,0.0,0.0,0.0,0.0,0.0,0.0,0.0,0.0,0.0,0.0,0.0,0.0,0.0,0.0,0.0,-5.7974,-5.9796,-6.1618,0.0,0.0,0.0,0.0,0.0,0.0,0.0,0.0,0.0,0.0,-7.1603,-7.3653,-7.3805,-7.3767,-7.3881,-7.3919,-7.2514,-7.1679,-7.2514,-7.3919,-7.4678,0.0,0.0,0.0,0.0,0.0,0.0,0.0,0.0,0.0,0.0,0.0,0.0,0.0,0.0,0.0,0.0,0.0,0.0,0.0,0.0,0.0,0.0,0.0,0.0,0.0,0.0,0.0,0.0,0.0,0.0,0.0,0.0,0.0,0.0,0.0,0.0,0.0,0.0,0.0,0.0,0.0,0.0,0.0,0.0,0.0,0.0,0.0,0.0,0.0,0.0,0.0,0.0,0.0,0.0,-9.5175,-9.742,-10.4497,-10.8841,-11.0208,-11.0989,-11.0842,-10.972,-10.5059,-10.0946,0.0,0.0,0.0,0.0,0.0,0.0,0.0,0.0,0.0,0.0,0.0,0.0,0.0,0.0,0.0,0.0,0.0,0.0,0.0,0.0,0.0,0.0,0.0,0.0,0.0,0.0,0.0,0.0,-6.0821,-6.1352,-6.1618,0.0,0.0,0.0,0.0,0.0,0.0,0.0,0.0,0.0,0.0,-7.1983,-7.4261,-7.4109,-7.3919,-7.4527,-7.3691,-7.2894,-7.2552,-7.3881,-7.4109,-7.1527,0.0,0.0,0.0,0.0,0.0,0.0,0.0,0.0,0.0,0.0,0.0,0.0,0.0,0.0,0.0,0.0,0.0,0.0,0.0,0.0,0.0,0.0,0.0,0.0,0.0,0.0,0.0,0.0,0.0,0.0,0.0,0.0,0.0,0.0,0.0,0.0,0.0,0.0,0.0,0.0,0.0,0.0,0.0,0.0,0.0,0.0,0.0,0.0,0.0,0.0,0.0,0.0,0.0,-9.4004,-9.5858,-10.2789,-10.6938,-10.8011,-10.8695,-10.8695,-10.806,-10.3438,-9.9094,0.0,0.0,0.0,0.0,0.0,0.0,0.0,0.0,0.0,0.0,0.0,0.0,0.0,0.0,0.0,0.0,0.0,0.0,0.0,0.0,0.0,0.0,0.0,0.0,0.0,0.0,0.0,0.0,-5.8771,-5.934,-5.934,0.0,0.0,0.0,0.0,0.0,0.0,0.0,0.0,0.0,0.0,-6.9401,-7.1755,-7.1641,0.0,0.0,-7.2362,-7.1755,-7.1565,-7.3198,-7.3274,-6.9629,-6.9022,0.0,0.0,0.0,0.0,0.0,0.0,0.0,0.0,0.0,0.0,0.0,0.0,0.0,0.0,0.0,0.0,0.0,0.0,0.0,0.0,0.0,0.0,0.0,0.0,0.0,0.0,0.0,0.0,0.0,0.0,0.0,0.0,0.0,0.0,0.0,0.0,0.0,0.0,0.0,0.0,0.0,0.0,0.0,0.0,0.0,0.0,0.0,0.0,0.0,0.0,0.0,0.0,0.0,-9.498,-10.1129,-10.4985,-10.601,-10.6059,-10.6059,-10.601,-10.0858,-9.643,0.0,0.0,0.0,0.0,0.0,0.0,0.0,0.0,0.0,0.0,0.0,0.0,0.0,0.0,0.0,0.0,0.0,0.0,0.0,0.0,0.0,0.0,0.0,0.0,0.0,0.0,0.0,0.0,0.0,0.0,0.0,0.0,0.0,0.0,0.0,0.0,0.0,0.0,0.0,0.0,0.0,-6.6516,-6.7351,-6.7389,-6.7958,0.0,0.0,-6.887,-6.9553,-7.1793,-7.2059,-6.7958,0.0,0.0,0.0,0.0,0.0,0.0,0.0,0.0,0.0,0.0,0.0,0.0,0.0,0.0,0.0,0.0,0.0,0.0,0.0,0.0,0.0,0.0,0.0,0.0,0.0,0.0,0.0,0.0,0.0,0.0,0.0,0.0,0.0,0.0,0.0,0.0,0.0,0.0,0.0,0.0,0.0,0.0,0.0,0.0,0.0,0.0,0.0,0.0,0.0,0.0,0.0,0.0,0.0,0.0,-9.4882,-10.1129,-10.4936,-10.601,-10.6059,-10.6059,-10.5961,-10.0797,0.0,0.0,0.0,0.0,0.0,0.0,0.0,0.0,0.0,0.0,0.0,0.0,0.0,0.0,0.0,0.0,0.0,0.0,0.0,0.0,0.0,0.0,0.0,0.0,0.0,0.0,0.0,-5.2582,0.0,0.0,0.0,0.0,0.0,0.0,0.0,0.0,0.0,0.0,0.0,0.0,0.0,0.0,-6.6516,-6.7351,-6.6933,-6.6933,0.0,0.0,-6.6706,-6.6326,-6.887,-6.9743,0.0,0.0,0.0,0.0,0.0,0.0,0.0,0.0,0.0,0.0,0.0,0.0,0.0,0.0,0.0,0.0,0.0,0.0,0.0,0.0,0.0,0.0,0.0,0.0,0.0,0.0,0.0,0.0,0.0,0.0,0.0,0.0,0.0,0.0,0.0,0.0,0.0,0.0,0.0,0.0,0.0,0.0,0.0,0.0,0.0,0.0,0.0,0.0,0.0,0.0,0.0,0.0,0.0,0.0,-9.1368,-9.3515,-9.8836,-10.2398,-10.3912,-10.4009,-10.4009,-10.4009,-9.8738,-9.4101,0.0,0.0,0.0,0.0,0.0,0.0,0.0,0.0,0.0,0.0,0.0,0.0,0.0,0.0,0.0,0.0,0.0,0.0,0.0,0.0,0.0,0.0,0.0,0.0,0.0,0.0,0.0,0.0,0.0,0.0,0.0,0.0,0.0,0.0,0.0,0.0,0.0,0.0,0.0,0.0,0.0,0.0,-6.5756,-6.5149,0.0,0.0,0.0,-6.5529,-6.5035,0.0,0.0,0.0,0.0,0.0,0.0,0.0,0.0,0.0,0.0,0.0,0.0,0.0,0.0,0.0,0.0,0.0,0.0,0.0,0.0,0.0,0.0,0.0,0.0,0.0,0.0,0.0,0.0,0.0,0.0,0.0,0.0,0.0,0.0,0.0,0.0,0.0,0.0,0.0,0.0,0.0,0.0,0.0,0.0,0.0,0.0,0.0,0.0,0.0,0.0,0.0,0.0,0.0,0.0,0.0,0.0,0.0,-9.1493,-9.5712,-9.8884,-10.0934,-10.1129,-10.1081,-10.1032,-9.6151,-9.1905,0.0,0.0,0.0,0.0,0.0,0.0,0.0,0.0,0.0,0.0,0.0,0.0,0.0,0.0,0.0,0.0,0.0,0.0,0.0,0.0,0.0,0.0,0.0,0.0,0.0,0.0,0.0,0.0,0.0,0.0,0.0,0.0,0.0,0.0,0.0,0.0,0.0,0.0,0.0,0.0,0.0,-6.2833,-6.363,-6.3061,-6.2647,0.0,0.0,-6.4693,-6.4693,-6.5908,0.0,0.0,0.0,0.0,0.0,0.0,0.0,0.0,0.0,0.0,0.0,0.0,0.0,0.0,0.0,0.0,0.0,0.0,0.0,0.0,0.0,0.0,0.0,0.0,0.0,0.0,0.0,0.0,0.0,0.0,0.0,0.0,0.0,0.0,0.0,0.0,0.0,0.0,0.0,0.0,0.0,0.0,0.0,0.0,0.0,0.0,0.0,0.0,0.0,0.0,0.0,0.0,0.0,0.0,0.0,0.0,-9.1493,-9.498,-9.7811,-9.9909,-10.0007,-10.0007,-9.9958,-9.7225,-9.3418,0.0,0.0,0.0,0.0,0.0,0.0,0.0,0.0,0.0,0.0,0.0,0.0,0.0,0.0,0.0,0.0,0.0,0.0,0.0,0.0,0.0,0.0,0.0,0.0,0.0,0.0,0.0,0.0,0.0,0.0,0.0,0.0,0.0,0.0,0.0,0.0,0.0,0.0,0.0,0.0,0.0,-6.2833,-6.363,-6.3061,0.0,0.0,0.0,0.0,-6.3023,-6.3289,0.0,0.0,0.0,0.0,0.0,0.0,0.0,0.0,0.0,0.0,0.0,0.0,0.0,0.0,0.0,0.0,0.0,0.0,0.0,0.0,0.0,0.0,0.0,0.0,0.0,0.0,0.0,0.0,0.0,0.0,0.0,0.0,0.0,0.0,0.0,0.0,0.0,0.0,0.0,0.0,0.0,0.0,0.0,0.0,0.0,0.0,0.0,0.0,0.0,0.0,0.0,0.0,0.0,0.0,0.0,0.0,-8.9953,-9.2735,-9.5663,-9.8738,-9.8884,-9.8884,-9.8787,-9.5273,-9.1514,0.0,0.0,0.0,0.0,0.0,0.0,0.0,0.0,0.0,0.0,0.0,0.0,0.0,0.0,0.0,0.0,0.0,0.0,0.0,0.0,0.0,0.0,0.0,0.0,0.0,0.0,0.0,0.0,0.0,0.0,0.0,0.0,0.0,0.0,0.0,0.0,0.0,0.0,0.0,0.0,-6.0783,-6.1504,-6.1884,0.0,0.0,0.0,0.0,0.0,0.0,-6.2453,-6.2188,0.0,0.0,0.0,0.0,0.0,0.0,0.0,0.0,0.0,0.0,0.0,0.0,0.0,0.0,0.0,0.0,0.0,0.0,0.0,0.0,0.0,0.0,0.0,0.0,0.0,0.0,0.0,0.0,0.0,0.0,0.0,0.0,0.0,0.0,0.0,0.0,0.0,0.0,0.0,0.0,0.0,0.0,0.0,0.0,0.0,0.0,0.0,0.0,0.0,0.0,0.0,0.0,0.0,0.0,0.0,-8.7561,-8.9708,-9.2614,-9.659,-9.703,-9.7127,-9.6834,-9.2442,-8.883,-8.6292,0.0,0.0,0.0,0.0,0.0,0.0,0.0,0.0,0.0,0.0,0.0,0.0,0.0,0.0,0.0,0.0,0.0,0.0,0.0,0.0,0.0,0.0,0.0,0.0,0.0,0.0,0.0,0.0,0.0,0.0,0.0,0.0,0.0,0.0,0.0,0.0,0.0,0.0,0.0,-5.9416,-6.01,0.0,0.0,0.0,0.0,0.0,0.0,0.0,0.0,-6.139,0.0,0.0,0.0,0.0,0.0,0.0,0.0,0.0,0.0,0.0,0.0,0.0,0.0,0.0,0.0,0.0,0.0,0.0,0.0,0.0,0.0,0.0,0.0,0.0,0.0,0.0,0.0,0.0,0.0,0.0,0.0,0.0,0.0,0.0,0.0,0.0,0.0,0.0,0.0,0.0,0.0,0.0,0.0,0.0,0.0,0.0,0.0,0.0,0.0,0.0,0.0,0.0,0.0,0.0,0.0,0.0,-8.639,-8.8732,-9.1173,-9.2979,-9.3467,-9.2468,-9.0929,-8.8147,-8.4193,0.0,0.0,0.0,0.0,0.0,0.0,0.0,0.0,0.0,0.0,0.0,0.0,0.0,0.0,0.0,0.0,0.0,0.0,0.0,0.0,0.0,0.0,0.0,0.0,0.0,0.0,0.0,0.0,0.0,0.0,0.0,0.0,0.0,0.0,0.0,0.0,0.0,0.0,-5.7665,-5.9037,0.0,0.0,0.0,0.0,0.0,0.0,0.0,0.0,-6.0669,0.0,0.0,0.0,0.0,0.0,0.0,0.0,0.0,0.0,0.0,0.0,0.0,0.0,0.0,0.0,0.0,0.0,0.0,0.0,0.0,0.0,0.0,0.0,0.0,0.0,0.0,0.0,0.0,0.0,0.0,0.0,0.0,0.0,0.0,0.0,0.0,0.0,0.0,0.0,0.0,0.0,0.0,0.0,0.0,0.0,0.0,0.0,0.0,0.0,0.0,0.0,0.0,0.0,0.0,0.0,0.0,0.0,0.0,-8.7805,-8.9953,-9.2051,-9.2637,-9.1444,-8.8342,-8.5121,0.0,0.0,0.0,0.0,0.0,0.0,0.0,0.0,0.0,0.0,0.0,0.0,0.0,0.0,0.0,0.0,0.0,0.0,0.0,0.0,0.0,0.0,0.0,0.0,0.0,0.0,0.0,0.0,0.0,0.0,0.0,0.0,0.0,0.0,0.0,0.0,0.0,0.0,0.0,0.0,0.0,0.0,0.0,0.0,0.0,0.0,0.0,0.0,0.0,0.0,0.0,0.0,0.0,0.0,0.0,0.0,0.0,0.0,0.0,0.0,0.0,0.0,0.0,0.0,0.0,0.0,0.0,0.0,0.0,0.0,0.0,0.0,0.0,0.0,0.0,0.0,0.0,0.0,0.0,0.0,0.0,0.0,0.0,0.0,0.0,0.0,0.0,0.0,0.0,0.0,0.0,0.0,0.0,0.0,0.0,0.0,0.0,0.0,0.0,0.0,0.0,0.0,0.0,0.0,0.0,0.0,0.0,0.0,-8.6878,-8.8635,-9.1124,-9.1856,-9.0587,-8.5999,-8.2339,0.0,0.0,0.0,0.0,0.0,0.0,0.0,0.0,0.0,0.0,0.0,0.0,0.0,0.0,0.0,0.0,0.0,0.0,0.0,0.0,0.0,0.0,0.0,0.0,0.0,0.0,0.0,0.0,0.0,0.0,0.0,0.0,0.0,0.0,0.0,0.0,0.0,0.0,0.0,0.0,0.0,0.0,0.0,0.0,0.0,0.0,0.0,0.0,-5.8277,0.0,0.0,0.0,0.0,0.0,0.0,0.0,0.0,0.0,0.0,0.0,0.0,0.0,0.0,0.0,0.0,0.0,0.0,0.0,0.0,0.0,0.0,0.0,0.0,0.0,0.0,0.0,0.0,0.0,0.0,0.0,0.0,0.0,0.0,0.0,0.0,0.0,0.0,0.0,0.0,0.0,0.0,0.0,0.0,0.0,0.0,0.0,0.0,0.0,0.0,0.0,0.0,0.0,0.0,0.0,0.0,0.0,0.0,0.0,-8.4107,-8.4242,-8.8244,-8.9367,-8.7268,-8.4877,-8.1655,0.0,0.0,0.0,0.0,0.0,0.0,0.0,0.0,0.0,0.0,0.0,0.0,0.0,0.0,0.0,0.0,0.0,0.0,0.0,0.0,0.0,0.0,0.0,0.0,0.0,0.0,0.0,0.0,0.0,0.0,0.0,0.0,0.0,0.0,0.0,0.0,0.0,0.0,0.0,0.0,0.0,0.0,0.0,0.0,0.0,0.0,0.0,0.0,0.0,0.0,0.0,0.0,0.0,0.0,0.0,0.0,0.0,0.0,0.0,0.0,0.0,0.0,0.0,0.0,0.0,0.0,0.0,0.0,0.0,0.0,0.0,0.0,0.0,0.0,0.0,0.0,0.0,0.0,0.0,0.0,0.0,0.0,0.0,0.0,0.0,0.0,0.0,0.0,0.0,0.0,0.0,0.0,0.0,0.0,0.0,0.0,0.0,0.0,0.0,0.0,0.0,0.0,0.0,0.0,0.0,0.0,0.0,0.0,-8.229,-8.3559,-8.6536,-8.678,-8.4047,-8.1899,-7.9605,0.0,0.0,0.0,0.0,0.0,0.0,0.0,0.0,0.0,0.0,0.0,0.0,0.0,0.0,0.0,0.0,0.0,0.0,0.0,0.0,0.0,0.0,0.0,0.0,0.0,0.0,0.0,0.0,0.0,0.0,0.0,0.0,0.0,0.0,0.0,0.0,0.0,0.0,0.0,0.0,0.0,0.0,0.0,0.0,0.0,0.0,0.0,0.0,0.0,0.0,0.0,0.0,0.0,0.0,0.0,0.0,0.0,0.0,0.0,0.0,0.0,0.0,0.0,0.0,0.0,0.0,0.0,0.0,0.0,0.0,0.0,0.0,0.0,0.0,0.0,0.0,0.0,0.0,0.0,0.0,0.0,0.0,0.0,0.0,0.0,0.0,0.0,0.0,0.0,0.0,0.0,0.0,0.0,0.0,0.0,0.0,0.0,0.0,0.0,0.0,0.0,0.0,0.0,0.0,0.0,0.0,0.0,0.0,0.0,-8.268,-8.3705,-8.3119,-8.0882,-7.8922,-7.7165,0.0,0.0,0.0,0.0,0.0,0.0,0.0,0.0,0.0,0.0,0.0,0.0,0.0,0.0,0.0,0.0,0.0,0.0,0.0,0.0,0.0,0.0,0.0,0.0,0.0,0.0,0.0,0.0,0.0,0.0,0.0,0.0,0.0,0.0,0.0,0.0,0.0,0.0,0.0,0.0,0.0,0.0,0.0,0.0,0.0,0.0,0.0,0.0,0.0,0.0,0.0,0.0,0.0,0.0,0.0,0.0,0.0,0.0,0.0,0.0,0.0,0.0,0.0,0.0,0.0,0.0,0.0,0.0,0.0,0.0,0.0,0.0,0.0,0.0,0.0,0.0,0.0,0.0,0.0,0.0,0.0,0.0,0.0,0.0,0.0,0.0,0.0,0.0,0.0,0.0,0.0,0.0,0.0,0.0,0.0,0.0,0.0,0.0,0.0,0.0,0.0,0.0,0.0,0.0,0.0,0.0,0.0,0.0,0.0,-8.0428,-7.8678,-7.7702,-7.7458,-7.6335,-7.4382,0.0,0.0,0.0,0.0,0.0,0.0,0.0,0.0,0.0,0.0,0.0,0.0,0.0,0.0,0.0,0.0,0.0,0.0,0.0,0.0,0.0,0.0,0.0,0.0,0.0,0.0,0.0,0.0,0.0,0.0,0.0,0.0,0.0,0.0,0.0,0.0,0.0,0.0,0.0,0.0,0.0,0.0,0.0,0.0,0.0,0.0,0.0,0.0,0.0,0.0,0.0,0.0,0.0,0.0,0.0,0.0,0.0,0.0,0.0,0.0,0.0,0.0,0.0,0.0,0.0,0.0,0.0,0.0,0.0,0.0,0.0,0.0,0.0,0.0,0.0,0.0,0.0,0.0,0.0,0.0,0.0,0.0,0.0,0.0,0.0,0.0,0.0,0.0,0.0,0.0,0.0,0.0,0.0,0.0,0.0,0.0,0.0,0.0,0.0,0.0,0.0,0.0,0.0,0.0,0.0,0.0,0.0,0.0,0.0,-7.8288,-7.7555,-7.6872,-7.6288,-7.4432,-7.2284,-6.9795,0.0,0.0,0.0,0.0,0.0,0.0,0.0,0.0,0.0,0.0,0.0,0.0,0.0,0.0,0.0,0.0,0.0,0.0,0.0,0.0,0.0,0.0,0.0,0.0,0.0,0.0,0.0,0.0,0.0,0.0,0.0,0.0,0.0,0.0,0.0,0.0,0.0,0.0,0.0,0.0,0.0,0.0,0.0,0.0,0.0,0.0,0.0,0.0,0.0,0.0,0.0,0.0,0.0,0.0,0.0,0.0,0.0,0.0,0.0,0.0,0.0,0.0,0.0,0.0,0.0,0.0,0.0,0.0,0.0,0.0,0.0,0.0,0.0,0.0,0.0,0.0,0.0,0.0,0.0,0.0,0.0,0.0,0.0,0.0,0.0,0.0,0.0,0.0,0.0,0.0,0.0,0.0,0.0,0.0,0.0,0.0,0.0,0.0,0.0,0.0,0.0,0.0,0.0,0.0,0.0,0.0,0.0,0.0,-7.614,-7.5798,-7.5115,-7.4137,-7.287,-7.1113,0.0,0.0,0.0,0.0,0.0,0.0,0.0,0.0,0.0,0.0,0.0,0.0,0.0,0.0,0.0,0.0,0.0,0.0,0.0,0.0,0.0,0.0,0.0,0.0,0.0,0.0,0.0,0.0,0.0,0.0,0.0,0.0,0.0,0.0,0.0,0.0,0.0,0.0,0.0,0.0,0.0,0.0,0.0,0.0,0.0,0.0,0.0,0.0,0.0,0.0,0.0,0.0,0.0,0.0,0.0,0.0,0.0,0.0,0.0,0.0,0.0,0.0,0.0,0.0,0.0,0.0,0.0,0.0,0.0,0.0,0.0,0.0,0.0,0.0,0.0,0.0,0.0,0.0,0.0,0.0,0.0,0.0,0.0,0.0,0.0,0.0,0.0,0.0,0.0,0.0,0.0,0.0,0.0,0.0,0.0,0.0,0.0,0.0,0.0,0.0,0.0,0.0,0.0,0.0,0.0,0.0,0.0,0.0,-7.614,-7.4041,-7.3016,-7.2231,-7.0961,-7.1747,-7.0722,0.0,0.0,0.0,0.0,0.0,0.0,0.0,0.0,0.0,0.0,0.0,0.0,0.0,0.0,0.0,0.0,0.0,0.0,0.0,0.0,0.0,0.0,0.0,0.0,0.0,0.0,0.0,0.0,0.0,0.0,0.0,0.0,0.0,0.0,0.0,0.0,0.0,0.0,0.0,0.0,0.0,0.0,0.0,0.0,0.0,0.0,0.0,0.0,0.0,0.0,0.0,0.0,0.0,0.0,0.0,0.0,0.0,0.0,0.0,0.0,0.0,0.0,0.0,0.0,0.0,0.0,0.0,0.0,0.0,0.0,0.0,0.0,0.0,0.0,0.0,0.0,0.0,0.0,0.0,0.0,0.0,0.0,0.0,0.0,0.0,0.0,0.0,0.0,0.0,0.0,0.0,0.0,0.0,0.0,0.0,0.0,0.0,0.0,0.0,0.0,0.0,0.0,0.0,0.0,0.0,0.0,0.0,0.0,0.0,-7.6091,0.0,-7.3553,0.0,-7.1503,-6.9217,0.0,0.0,0.0,0.0,0.0,0.0,0.0,0.0,0.0,0.0,0.0,0.0,0.0,0.0,0.0,0.0,0.0,0.0,0.0,0.0,0.0,0.0,0.0,0.0,0.0,0.0,0.0,0.0,0.0,0.0,0.0,0.0,0.0,0.0,0.0,0.0,0.0,0.0,0.0,0.0,0.0,0.0,0.0,0.0,0.0,0.0,0.0,0.0,0.0,0.0,0.0,0.0,0.0,0.0,0.0,0.0,0.0,0.0,0.0,0.0,0.0,0.0,0.0,0.0,0.0,0.0,0.0,0.0,0.0,0.0,0.0,0.0,0.0,0.0,0.0,0.0,0.0,0.0,0.0,0.0,0.0,0.0,0.0,0.0,0.0,0.0,0.0,0.0,0.0,0.0,0.0,0.0,0.0,0.0,0.0,0.0,0.0,0.0,0.0,0.0,0.0,0.0,0.0,0.0,0.0,0.0,0.0,0.0,0.0,-7.4871,-7.4188,-7.3895,-7.3893,-7.2675,-7.0381,0.0,0.0,0.0,0.0,0.0,0.0,0.0,0.0,0.0,0.0,0.0,0.0,0.0,0.0,0.0,0.0,0.0,0.0,0.0,0.0,0.0,0.0,0.0,0.0,0.0,0.0,0.0,0.0,0.0,0.0,0.0,0.0,0.0,0.0,0.0,0.0,0.0,0.0,0.0,0.0,0.0,0.0,0.0,0.0,0.0,0.0,0.0,0.0,0.0,0.0,0.0,0.0,0.0,0.0,0.0,0.0,0.0,0.0,0.0,0.0,0.0,0.0,0.0,0.0,0.0,0.0,0.0,0.0,0.0,0.0,0.0,0.0,0.0,0.0,0.0,0.0,0.0,0.0,0.0,0.0,0.0,0.0,0.0,0.0,0.0,0.0,0.0,0.0,0.0,0.0,0.0,0.0,0.0,0.0,0.0,0.0,0.0,0.0,0.0,0.0,0.0,0.0,0.0,0.0,0.0,0.0,0.0,0.0,0.0,0.0,-7.2919,-7.2967,-7.1107,-7.4676,-7.3407,0.0,0.0,0.0,0.0,0.0,0.0,0.0,0.0,0.0,0.0,0.0,0.0,0.0,0.0,0.0,0.0,0.0,0.0,0.0,0.0,0.0,0.0,0.0,0.0,0.0,0.0,0.0,0.0,0.0,0.0,0.0,0.0,0.0,0.0,0.0,0.0,0.0,0.0,0.0,0.0,0.0,0.0,0.0,0.0,0.0,0.0,0.0,0.0,0.0,0.0,0.0,0.0,0.0,0.0,0.0,0.0,0.0,0.0,0.0,0.0,0.0,0.0,0.0,0.0,0.0,0.0,0.0,0.0,0.0,0.0,0.0,0.0,0.0,0.0,0.0,0.0,0.0,0.0,0.0,0.0,0.0,0.0,0.0,0.0,0.0,0.0,0.0,0.0,0.0,0.0,0.0,0.0,0.0,0.0,0.0,0.0,0.0,0.0,0.0,0.0,0.0,0.0,0.0,0.0,0.0,0.0,0.0,0.0,0.0,0.0,-7.4383,0.0,-7.1991,-7.1503,-7.0289,-6.8193,0.0,0.0,0.0,0.0,0.0,0.0,0.0,0.0,0.0,0.0,0.0,0.0,0.0,0.0,0.0,0.0,0.0,0.0,0.0,0.0,0.0,0.0,0.0,0.0,0.0,0.0,0.0,0.0,0.0,0.0,0.0,0.0,0.0,0.0,0.0,0.0,0.0,0.0,0.0,0.0,0.0,0.0,0.0,0.0,0.0,0.0,0.0,0.0,0.0,0.0,0.0,0.0,0.0,0.0,0.0,0.0,0.0,0.0,0.0,0.0,0.0,0.0,0.0,0.0,0.0,0.0,0.0,0.0,0.0,0.0,0.0,0.0,0.0,0.0,0.0,0.0,0.0,0.0,0.0,0.0,0.0,0.0,0.0,0.0,0.0,0.0,0.0,0.0,0.0,0.0,0.0,0.0,0.0,0.0,0.0,0.0,0.0,0.0,0.0,0.0,0.0,0.0,0.0,0.0,0.0,0.0,0.0,0.0,0.0,0.0,0.0,-7.1792,-7.082,-6.96,0.0,0.0,0.0,0.0,0.0,0.0,0.0,0.0,0.0,0.0,0.0,0.0,0.0,0.0,0.0,0.0,0.0,0.0,0.0,0.0,0.0,0.0,0.0,0.0,0.0,0.0,0.0,0.0,0.0,0.0,0.0,0.0,0.0,0.0,0.0,0.0,0.0,0.0,0.0,0.0,0.0,0.0,0.0,0.0,0.0,0.0,0.0,0.0,0.0,0.0,0.0,0.0,0.0,0.0,0.0,0.0,0.0,0.0,0.0,0.0,0.0,0.0,0.0,0.0,0.0,0.0,0.0,0.0,0.0,0.0,0.0,0.0,0.0,0.0,0.0,0.0,0.0,0.0,0.0,0.0,0.0,0.0,0.0,0.0,0.0,0.0,0.0,0.0,0.0,0.0,0.0,0.0,0.0,0.0,0.0,0.0,0.0,0.0,0.0,0.0,0.0,0.0,0.0,0.0,0.0,0.0,0.0,0.0,0.0,0.0,0.0,-7.2626,-7.0961,-7.1357,0.0,-6.6574,0.0,0.0,0.0,0.0,0.0,0.0,0.0,0.0,0.0,0.0,0.0,0.0,0.0,0.0,0.0,0.0,0.0,0.0,0.0,0.0,0.0,0.0,0.0,0.0,0.0,0.0,0.0,0.0,0.0,0.0,0.0,0.0,0.0,0.0,0.0,0.0,0.0,0.0,0.0,0.0,0.0,0.0,0.0,0.0,0.0,0.0,0.0,0.0,0.0,0.0,0.0,0.0,0.0,0.0,0.0,0.0,0.0,0.0,0.0,0.0,0.0,0.0,0.0,0.0,0.0,0.0,0.0,0.0,0.0,0.0,0.0,0.0,0.0,0.0,0.0,0.0,0.0,0.0,0.0,0.0,0.0,0.0,0.0,0.0,0.0,0.0,0.0,0.0,0.0,0.0,0.0,0.0,0.0,0.0,0.0,0.0,0.0,0.0,0.0,0.0,0.0,0.0,0.0,0.0,0.0,0.0,0.0,0.0,0.0,0.0,0.0,0.0,-6.8965,-6.7647,-6.8193,0.0,0.0,0.0,0.0,0.0,0.0,0.0,0.0,0.0,0.0,0.0,0.0,0.0,0.0,0.0,0.0,0.0,0.0,0.0,0.0,0.0,0.0,0.0,0.0,0.0,0.0,0.0,0.0,0.0,0.0,0.0,0.0,0.0,0.0,0.0,0.0,0.0,0.0,0.0,0.0,0.0,0.0,0.0,0.0,0.0,0.0,0.0,0.0,0.0,0.0,0.0,0.0,0.0,0.0,0.0,0.0,0.0,0.0,0.0,0.0,0.0,0.0,0.0,0.0,0.0,0.0,0.0,0.0,0.0,0.0,0.0,0.0,0.0,0.0,0.0,0.0,0.0,0.0,0.0,0.0,0.0,0.0,0.0,0.0,0.0,0.0,0.0,0.0,0.0,0.0,0.0,0.0,0.0,0.0,0.0,0.0,0.0,0.0,0.0,0.0,0.0,0.0,0.0,0.0,0.0,0.0,0.0,0.0,0.0,0.0,-6.9802,-7.1547,-6.8819,-6.7559,-6.8193,0.0,0.0,0.0,0.0,0.0,0.0,0.0,0.0,0.0,0.0,0.0,0.0,0.0,0.0,0.0,0.0,0.0,0.0,0.0,0.0,0.0,0.0,0.0,0.0,0.0,0.0,0.0,0.0,0.0,0.0,0.0,0.0,0.0,0.0,0.0,0.0,0.0,0.0,0.0,0.0,0.0,0.0,0.0,0.0,0.0,0.0,0.0,0.0,0.0,0.0,0.0,0.0,0.0,0.0,0.0,0.0,0.0,0.0,0.0,0.0,0.0,0.0,0.0,0.0,0.0,0.0,0.0,0.0,0.0,0.0,0.0,0.0,0.0,0.0,0.0,0.0,0.0,0.0,0.0,0.0,0.0,0.0,0.0,0.0,0.0,0.0,0.0,0.0,0.0,0.0,0.0,0.0,0.0,0.0,0.0,0.0,0.0,0.0,0.0,0.0,0.0,0.0,0.0,0.0,0.0,0.0,0.0,0.0,0.0,0.0,0.0,0.0,0.0,0.0,-6.7257,0.0,0.0,0.0,0.0,0.0,0.0,0.0,0.0,0.0,0.0,0.0,0.0,0.0,0.0,0.0,0.0,0.0,0.0,0.0,0.0,0.0,0.0,0.0,0.0,0.0,0.0,0.0,0.0,0.0,0.0,0.0,0.0,0.0,0.0,0.0,0.0,0.0,0.0,0.0,0.0,0.0,0.0,0.0,0.0,0.0,0.0,0.0,0.0,0.0,0.0,0.0,0.0,0.0,0.0,0.0,0.0,0.0,0.0,0.0,0.0,0.0,0.0,0.0,0.0,0.0,0.0,0.0,0.0,0.0,0.0,0.0,0.0,0.0,0.0,0.0,0.0,0.0,0.0,0.0,0.0,0.0,0.0,0.0,0.0,0.0,0.0,0.0,0.0,0.0,0.0,0.0,0.0,0.0,0.0,0.0,0.0,0.0,0.0,0.0,0.0,0.0,0.0,0.0,0.0,0.0,0.0,0.0,0.0,0.0,0.0,0.0,0.0,0.0,0.0,0.0,0.0,0.0,0.0,0.0,0.0,0.0,0.0,0.0,0.0,0.0,0.0,0.0,0.0,0.0,0.0,0.0,0.0,0.0,0.0,0.0,0.0,0.0,0.0,0.0,0.0,0.0,0.0,0.0,0.0,0.0,0.0,0.0,0.0,0.0,0.0,0.0,0.0,0.0,0.0,0.0,0.0,0.0,0.0,0.0,0.0,0.0,0.0,0.0,0.0,0.0,0.0,0.0,0.0,0.0,0.0,0.0,0.0,0.0,0.0,0.0,0.0,0.0,0.0,0.0,0.0,0.0,0.0,0.0,0.0,0.0,0.0,0.0,0.0,0.0,0.0,0.0,0.0,0.0,0.0,0.0,0.0,0.0,0.0,0.0,0.0,0.0,0.0,0.0,0.0,0.0,0.0,0.0,0.0,0.0,0.0,0.0,0.0,0.0,0.0,0.0,0.0,0.0,0.0,0.0,0.0,0.0,0.0,0.0,0.0,0.0,0.0,0.0,0.0,0.0,0.0,0.0,0.0,0.0,0.0,0.0,0.0,0.0,0.0,0.0,0.0,0.0,0.0,0.0,0.0,0.0,0.0,0.0,0.0,0.0,0.0,0.0,0.0,0.0,0.0,0.0,0.0,0.0,0.0,0.0,0.0,0.0,0.0,0.0,0.0,0.0,0.0,0.0,0.0,0.0,0.0,0.0,0.0,0.0,0.0,0.0,0.0,0.0,0.0,0.0,0.0,0.0,0.0,0.0,0.0,0.0,0.0,0.0,0.0,0.0,0.0,0.0,0.0,0.0,0.0,0.0,0.0,0.0,0.0,0.0,0.0,0.0,0.0,0.0,0.0,0.0,0.0,0.0,0.0,0.0,0.0,0.0,0.0,0.0,0.0,0.0,0.0,0.0,0.0,0.0,0.0,0.0,0.0,0.0,0.0,0.0,0.0,0.0,0.0,0.0,0.0,0.0,0.0,0.0,0.0,0.0,0.0,0.0,0.0,0.0,0.0,0.0,0.0,0.0,0.0,0.0,0.0,0.0,0.0,0.0,0.0,0.0,0.0,0.0,0.0,0.0,0.0,0.0,0.0,0.0,0.0,0.0,0.0,0.0,0.0,0.0,0.0,0.0,0.0,0.0,0.0,0.0,0.0,0.0,0.0,0.0,0.0,0.0,0.0,0.0,0.0,0.0,0.0,0.0,0.0,0.0,0.0,0.0,0.0,0.0,0.0,0.0,0.0,0.0,0.0,0.0,0.0,0.0,0.0,0.0,0.0,0.0,0.0,0.0,0.0,0.0,0.0,0.0,0.0,0.0,0.0,0.0,0.0,0.0,0.0,0.0,0.0,0.0,0.0,0.0,0.0,0.0,0.0,0.0,0.0,0.0,0.0,0.0,0.0,0.0,0.0,0.0,0.0,0.0,0.0,0.0,0.0,0.0,0.0,0.0,0.0,0.0,0.0,0.0,0.0,0.0,0.0,0.0,0.0,0.0,0.0,0.0,0.0,0.0,0.0,0.0,0.0,0.0,0.0,0.0,0.0,0.0,0.0,0.0,0.0,0.0,0.0,0.0,0.0,0.0,0.0,0.0,0.0,0.0,0.0,0.0,0.0,0.0,0.0,0.0,0.0,0.0,0.0,0.0,0.0,0.0,0.0,0.0,0.0,0.0,0.0,0.0,0.0,0.0,0.0,0.0,0.0,0.0,0.0,0.0,0.0,0.0,0.0,0.0,0.0,0.0,0.0,0.0,0.0,0.0,0.0,0.0,0.0,0.0,0.0,0.0,0.0,0.0,0.0,0.0,0.0,0.0,0.0,0.0,0.0,0.0,0.0,0.0,0.0,0.0,0.0,0.0,0.0,0.0,0.0,0.0,0.0,0.0,0.0,0.0,0.0,0.0,0.0,0.0,0.0,0.0,0.0,0.0,0.0,0.0,0.0,0.0,0.0,0.0,0.0,0.0,0.0,0.0,0.0,0.0,0.0,0.0,0.0,0.0,0.0,0.0,0.0,0.0,0.0,0.0,0.0,0.0,0.0,0.0,0.0,0.0,0.0,0.0,0.0,0.0,0.0,0.0,0.0,0.0,0.0,0.0,0.0,0.0,0.0,0.0,0.0,0.0,0.0,0.0,0.0,0.0,0.0,0.0,0.0,0.0,0.0,0.0,0.0,0.0,0.0,0.0,0.0,0.0,0.0,0.0,0.0,0.0,0.0,0.0,0.0,0.0,0.0,0.0,0.0,0.0,0.0,0.0,0.0,0.0,0.0,0.0,0.0,0.0,0.0,0.0,0.0,0.0,0.0,0.0,0.0,0.0,0.0,0.0,0.0,0.0,0.0,0.0,0.0,0.0,0.0,0.0,0.0,0.0,0.0,0.0,0.0,0.0,0.0,0.0,0.0,0.0,0.0,0.0,0.0,0.0,0.0,0.0,0.0,0.0,0.0,0.0,0.0,0.0,0.0,0.0,0.0,0.0,0.0,0.0,0.0,0.0,0.0,0.0,0.0,0.0,0.0,0.0,0.0,0.0,0.0,0.0,0.0,0.0,0.0,0.0,0.0,0.0,0.0,0.0,0.0,0.0,0.0,0.0,0.0,0.0,0.0,0.0,0.0,0.0,0.0,0.0,0.0,0.0,0.0,0.0,0.0,0.0,0.0,0.0,0.0,0.0,0.0,0.0,0.0,0.0,0.0,0.0,0.0,0.0,0.0,0.0,0.0,0.0,0.0,0.0,0.0,0.0,0.0,0.0,0.0,0.0,0.0,0.0,0.0,0.0,0.0,0.0,0.0,0.0,0.0,0.0,0.0,0.0,0.0,0.0,0.0,0.0,0.0,0.0,0.0,0.0,0.0,0.0,0.0,0.0,0.0,0.0,0.0,0.0,0.0,0.0,0.0,0.0,0.0,0.0,0.0,0.0,0.0,0.0,0.0,0.0,0.0,0.0,0.0,0.0,0.0,0.0,0.0,0.0,0.0,0.0,0.0,0.0,0.0,0.0,0.0,0.0,0.0,0.0,0.0,0.0,0.0,0.0,0.0,0.0,0.0,0.0,0.0,0.0,0.0,0.0,0.0,0.0,0.0,0.0,0.0,0.0,0.0,0.0,0.0,0.0,0.0,0.0,0.0,0.0,0.0,0.0,0.0,0.0,0.0,0.0,0.0,0.0,0.0,0.0,0.0,0.0,0.0,0.0,0.0,0.0,0.0,0.0,0.0,0.0,0.0,0.0,0.0,0.0,0.0,0.0,0.0,0.0,0.0,0.0,0.0,0.0,0.0,0.0,0.0,0.0,0.0,0.0,0.0,0.0,0.0,0.0,0.0,0.0,0.0,0.0,0.0,0.0,0.0,0.0,0.0,0.0,0.0,0.0,0.0,0.0,0.0,0.0,0.0,0.0,0.0,0.0,0.0,0.0,0.0,0.0,0.0,0.0,0.0,0.0,0.0,0.0,0.0,0.0,0.0,0.0,0.0,0.0,0.0,0.0,0.0,0.0,0.0,0.0,0.0,0.0,0.0,0.0,0.0,0.0,0.0,0.0,0.0,0.0,0.0,0.0,0.0,0.0,0.0,0.0,0.0,0.0,0.0,0.0,0.0,0.0,0.0,0.0,0.0,0.0,0.0,0.0,0.0,0.0,0.0,0.0,0.0,0.0,0.0,0.0,0.0,0.0,0.0,0.0,0.0,0.0,0.0,0.0,0.0,0.0,0.0,0.0,0.0,0.0,0.0,0.0,0.0,0.0,0.0,0.0,0.0,0.0,0.0,0.0,0.0,0.0,0.0,0.0,0.0,0.0,0.0,0.0,0.0,0.0,0.0,0.0,0.0,0.0,0.0,0.0,0.0,0.0,0.0,0.0,0.0,0.0,0.0,0.0,0.0]}],[{"header":{"parameterUnit":"kt","parameterCategory":2,"dx":1,"dy":1,"la1":29.587661999999998,"la2":31.0,"lo1":-88.76705300000003,"lo2":-86.6583820000003,"nx":115,"ny":88,"refTime":"2022-10-27T18:00:00:Z","depth":0,"parameterNumber":2,"parameterNumberName":"V-component_of_WINDS"},"data":[8.4929,8.4967,8.5157,8.5612,8.6144,8.5764,8.6296,8.7625,8.7814,8.8232,8.9143,8.9751,9.0016,9.0016,9.0016,9.0016,9.0016,9.0016,9.0016,9.0016,9.0016,9.0016,9.0054,9.0244,9.1004,9.1915,9.2826,9.4115,9.6253,9.6663,9.7413,10.0066,10.0338,10.3825,10.8541,10.9896,11.1075,11.2279,11.415,11.5471,11.6144,11.7885,11.8705,11.9636,12.0701,12.1385,12.1824,12.2117,12.2117,12.2117,12.2117,12.2117,12.2117,12.2117,12.2117,12.2117,12.3017,12.3175,12.4069,12.5473,12.7838,12.8853,13.0962,13.4705,13.8241,14.1152,14.2253,14.3807,14.4404,14.5266,14.5533,14.5533,14.5533,14.5533,14.5533,14.5533,14.5533,14.5533,14.5533,14.5533,14.5533,14.5533,14.5533,14.5533,14.5533,14.5533,14.5533,14.5533,14.5533,14.5533,14.5533,14.5533,14.5533,14.5533,14.5533,14.5533,14.5433,14.5508,14.611,14.8896,15.1794,15.4716,15.7123,15.8949,16.1292,16.2714,16.3351,16.3771,16.4462,16.4462,16.4462,16.4462,16.4462,16.4462,16.4462,8.4929,8.5081,8.5802,8.622,8.6372,8.6865,8.7701,8.8498,8.8612,8.9029,8.9751,8.9941,9.0016,9.0016,9.0016,9.0016,9.0016,9.0016,9.0016,9.0016,9.0016,9.0016,9.0016,9.0054,9.0586,9.1459,9.2712,9.509,9.7946,9.8792,10.0202,10.3173,10.5765,10.8285,10.8881,11.0446,11.2491,11.3426,11.4442,11.5356,11.7707,12.0021,12.0267,12.0788,12.1336,12.1922,12.2068,12.2117,12.2117,12.2117,12.2117,12.2117,12.2117,12.2117,12.2117,12.3017,12.3962,12.4851,12.5889,12.7736,13.0565,13.2893,13.4268,13.7015,14.1013,14.3129,14.3807,14.4673,14.5133,14.5533,14.5533,14.5533,14.5533,14.5533,14.5533,14.5533,14.5533,14.5533,14.5533,14.5533,14.5533,14.5533,14.5533,14.5533,14.5533,14.5533,14.5533,14.5533,14.5533,14.5533,14.5533,14.5533,14.5533,14.5533,14.5533,14.5492,14.5216,14.5554,14.7005,15.068,15.4116,15.6659,15.9237,16.1509,16.2436,16.314,16.3941,16.4358,16.4462,16.4462,16.4462,16.4462,16.4462,16.4462,16.4462,8.4929,8.5081,8.5916,8.6827,8.7549,8.7549,8.8004,8.8688,8.8802,8.9257,8.9941,9.0016,9.0016,9.0016,9.0016,9.0016,9.0016,9.0016,9.0016,9.0016,9.0016,9.0016,9.0016,9.0016,9.0358,9.0852,9.2431,9.4936,9.832,10.0026,10.2436,10.5593,10.6965,10.8881,11.0278,11.1119,11.2567,11.3556,11.4888,11.6743,11.9393,11.9733,11.9959,12.0701,12.1043,12.1531,12.1775,12.2117,12.2117,12.2117,12.2117,12.2117,12.2117,12.2275,12.2909,12.3962,12.5318,12.6353,12.8296,13.0565,13.3388,13.5522,13.7158,13.9284,14.3265,14.427,14.4999,14.5133,14.5533,14.5533,14.5533,14.5533,14.5533,14.5533,14.5533,14.5533,14.5533,14.5533,14.5533,14.5533,14.5533,14.5533,14.5533,14.5533,14.5533,14.5533,14.5533,14.5533,14.5533,14.5533,14.5533,14.5533,14.5533,14.5533,14.5433,14.5216,14.5262,14.6391,14.756,15.1311,15.5175,15.8256,16.0855,16.2543,16.3666,16.3941,16.4046,16.4358,16.4462,16.4462,16.4462,16.4462,16.4462,16.4462,16.4396,8.4929,8.5043,8.5916,8.7283,8.8612,8.8308,8.8536,8.9067,8.9067,8.9447,8.9903,9.0016,9.0016,9.0016,9.0016,9.0016,9.0016,9.0016,9.0016,9.0016,9.0016,9.0016,9.0016,9.0016,9.0016,9.0548,9.2092,9.4534,9.8233,10.132,10.4213,10.8074,10.922,11.0278,11.1712,11.2337,11.3608,11.5122,11.6309,11.8265,11.9781,11.9521,11.9774,12.0262,12.0994,12.158,12.1824,12.2117,12.2117,12.2117,12.2117,12.2117,12.2117,12.2751,12.3912,12.5579,12.7123,12.8752,13.0864,13.3682,13.6064,13.821,14.004,14.2447,14.4,14.4999,14.5533,14.5533,14.5533,14.5533,14.5533,14.5533,14.5533,14.5533,14.5533,14.5533,14.5533,14.5533,14.5533,14.5533,14.5533,14.5533,14.5533,14.5533,14.5533,14.5533,14.5533,14.5533,14.5533,14.5533,14.5533,14.5533,14.5533,14.5433,14.5158,14.5204,14.6038,14.7143,14.9898,15.2889,15.6031,15.9078,16.2006,16.3561,16.4462,16.4358,16.4254,16.4462,16.4462,16.4462,16.4462,16.4462,16.4462,16.4462,16.4396,8.4929,8.5043,8.5916,8.7207,8.8726,8.9409,8.9713,8.9903,8.9827,8.9941,8.9979,9.0016,9.0016,9.0016,9.0016,9.0016,9.0016,9.0016,9.0016,9.0016,9.0016,9.0016,9.0016,9.0016,9.0016,9.0548,9.1977,9.4573,9.8237,10.2952,10.7349,11.1208,11.1667,11.217,11.2838,11.3504,11.5021,11.6868,11.8485,11.9369,11.9938,12.0701,12.1531,12.0994,12.1385,12.197,12.2068,12.2117,12.2117,12.2117,12.2117,12.2117,12.2751,12.3648,12.4851,12.6661,12.951,13.1462,13.3682,13.6352,13.869,14.0514,14.223,14.3729,14.4673,14.54,14.5533,14.5533,14.5533,14.5533,14.5533,14.5533,14.5533,14.5533,14.5533,14.5533,14.5533,14.5533,14.5533,14.5533,14.5533,14.5533,14.5533,14.5533,14.5533,14.5533,14.5533,14.5533,14.5533,14.5533,14.5533,14.5533,14.5608,14.5566,14.5569,14.6473,14.7219,14.9598,15.2885,15.579,15.8263,16.0578,16.314,16.3837,16.4462,16.4462,16.4462,16.4462,16.4462,16.4462,16.4462,16.4462,16.4462,16.4462,16.433,8.4929,8.5081,8.5916,8.6676,8.7473,8.8688,8.9561,8.9979,9.0016,9.0016,9.0016,9.0016,9.0016,9.0016,9.0016,9.0016,9.0016,9.0016,9.0016,9.0016,9.0016,9.0016,9.0016,9.0016,9.0187,9.104,9.2585,9.5101,9.7957,10.3854,10.9433,11.1712,11.2549,11.3171,11.4002,11.5113,11.6917,11.9074,12.0426,12.0788,12.1117,12.1629,12.1873,12.1678,12.1824,12.2068,12.2117,12.2117,12.2117,12.2117,12.2117,12.2117,12.2434,12.3017,12.4069,12.8347,13.1462,13.3828,13.6208,13.8832,14.0653,14.2367,14.3729,14.4865,14.54,14.5533,14.5533,14.5533,14.5533,14.5533,14.5533,14.5533,14.5533,14.5533,14.5533,14.5533,14.5533,14.5533,14.5533,14.5533,14.5533,14.5533,14.5533,14.5533,14.5533,14.5533,14.5533,14.5533,14.5533,14.5533,14.5533,14.5666,14.5683,14.611,14.7274,14.827,15.0457,15.342,15.6074,15.8136,16.0384,16.2495,16.3496,16.415,16.4462,16.4462,16.4462,16.4462,16.4462,16.4462,16.4462,16.4396,16.4264,16.4396,16.4199,8.4929,8.5043,8.5916,8.6448,8.6827,8.7928,8.9067,8.9941,9.0016,9.0016,9.0016,9.0016,9.0016,9.0016,9.0016,9.0016,9.0016,9.0016,9.0016,9.0016,9.0016,9.0016,9.0016,9.0016,9.0658,9.1774,9.3885,9.6624,9.9935,10.356,10.8658,11.1623,11.3004,11.4167,11.5277,11.659,11.8704,12.0682,12.1481,12.1812,12.186,12.2019,12.2019,12.2019,12.2117,12.2117,12.2117,12.2117,12.2117,12.2117,12.2117,12.2117,12.2275,12.3017,12.4538,12.9108,13.2851,13.5631,13.8604,14.071,14.2092,14.3186,14.4539,14.54,14.5533,14.5533,14.5533,14.5533,14.5533,14.5533,14.5533,14.5533,14.5533,14.5533,14.5533,14.5533,14.5533,14.5533,14.5533,14.5533,14.5533,14.5533,14.5533,14.5533,14.5533,14.5533,14.5533,14.5533,14.5533,14.5533,14.5533,14.5799,14.6022,14.7123,14.8316,15.0821,15.4024,15.6763,15.8456,16.0344,16.2087,16.326,16.4084,16.4462,16.4462,16.4462,16.4462,16.4462,16.4462,16.4462,16.4462,16.4264,16.4133,16.433,16.433,8.4929,8.5081,8.5954,8.6713,8.7359,8.7549,8.8536,8.9979,9.0016,9.0016,9.0016,9.0016,9.0016,9.0016,9.0016,9.0016,9.0016,9.0016,9.0187,9.0356,9.0658,9.0827,9.0827,9.1112,9.2712,9.388,9.5992,9.9702,10.4058,10.6643,10.9069,11.1946,11.367,11.5442,11.7243,11.8913,12.0522,12.1321,12.1958,12.1958,12.2117,12.2117,12.2117,12.2117,12.2117,12.2117,12.2117,12.2117,12.2117,12.2117,12.2275,12.2275,12.3017,12.4382,12.6815,13.0316,13.5196,13.7268,13.9451,14.1623,14.2993,14.3729,14.4865,14.54,14.5533,14.5533,14.5533,14.5533,14.5533,14.5533,14.5533,14.5533,14.5533,14.5533,14.5533,14.5533,14.5533,14.5533,14.5533,14.5533,14.5533,14.5533,14.5533,14.5533,14.5533,14.5533,14.5533,14.5533,14.5533,14.5533,14.5333,14.5524,14.7111,14.8172,15.0878,15.3677,15.6671,15.9295,16.0991,16.2064,16.3129,16.4358,16.4462,16.4462,16.4462,16.4462,16.4462,16.4462,16.4462,16.4462,16.4462,16.4264,16.3936,16.4199,16.4396,8.4929,8.4967,8.5309,8.5575,8.5992,8.7055,8.846,8.9827,9.0016,9.0016,9.0016,9.0016,9.0016,9.0016,9.0016,9.0016,9.0016,9.0016,9.0356,9.2477,9.2477,9.3485,9.4688,9.6013,9.6013,9.7878,10.0042,10.2385,10.5704,10.777,11.002,11.2189,11.4167,11.6426,11.8865,12.0522,12.1799,12.1958,12.2117,12.2117,12.2117,12.2117,12.2117,12.2117,12.2117,12.2117,12.2117,12.2117,12.2117,12.2592,12.349,12.4538,12.5318,12.6815,12.9259,13.1014,13.4613,13.664,13.9816,14.2367,14.3729,14.4539,14.5133,14.5533,14.5533,14.5533,14.5533,14.5533,14.5533,14.5533,14.5533,14.5533,14.5533,14.5533,14.5533,14.5533,14.5533,14.5533,14.5533,14.5533,14.5533,14.5533,14.5533,14.5533,14.5417,14.5475,14.5475,14.5533,14.5533,14.5158,14.4707,14.6439,14.83,15.1065,15.3915,15.6514,15.9062,16.1656,16.2763,16.3575,16.4462,16.4462,16.4462,16.4462,16.4462,16.4462,16.4462,16.4462,16.4462,16.4462,16.4462,16.4264,16.387,16.4067,16.4462,8.4929,8.4929,8.4929,8.5119,8.5612,8.6941,8.8308,8.9485,8.9865,9.0016,9.0016,9.0016,9.0016,9.0016,9.0016,9.0016,9.0318,9.0488,9.1673,9.3948,9.4949,9.6444,9.7228,9.7888,9.9005,10.0703,10.2537,10.4466,10.679,10.8812,11.0596,11.2342,11.4507,11.7359,11.988,12.1481,12.2117,12.2117,12.2117,12.2117,12.2117,12.2117,12.2117,12.2117,12.2117,12.2117,12.2117,12.2117,12.2117,12.2275,12.4382,12.5423,12.5889,12.9207,13.1216,13.2354,13.505,13.707,14.0096,14.305,14.4404,14.5133,14.5533,14.5533,14.5533,14.5533,14.5533,14.5533,14.5533,14.5533,14.5533,14.5533,14.5533,14.5533,14.5533,14.5533,14.5533,14.5533,14.5533,14.5533,14.5533,14.5533,14.5533,14.5533,14.5126,14.4951,14.4661,14.4661,14.5948,14.5379,14.6226,14.8376,15.0757,15.3973,15.6849,15.8918,16.1359,16.2959,16.3849,16.4462,16.4462,16.4462,16.4462,16.4462,16.4462,16.4462,16.4462,16.4462,16.4462,16.4462,16.4462,16.433,16.4133,16.4264,16.4396,8.4929,8.4929,8.4929,8.5499,8.6372,8.7207,8.808,8.9105,8.9713,9.0016,9.0016,9.0016,9.0016,9.0016,9.0016,9.0016,9.0488,9.2309,9.3948,9.5116,9.694,9.8093,9.8875,9.974,10.131,10.211,10.383,10.6009,10.7817,10.9899,11.1349,11.2954,11.5236,11.7568,11.9671,12.1273,12.1958,12.2117,12.2117,12.2117,12.2117,12.2117,12.2117,12.2117,12.2117,12.2117,12.2117,12.2117,12.2434,12.3175,12.5162,12.6661,12.7379,13.1014,13.3093,13.3882,13.6838,13.9169,14.1265,14.3865,14.4959,14.5242,14.5417,14.5359,14.5417,14.5533,14.5533,14.5533,14.5533,14.5533,14.5533,14.5533,14.5533,14.5533,14.5533,14.5533,14.5533,14.5533,14.5533,14.5533,14.5533,14.5533,14.5533,14.53,14.4719,14.4444,14.3846,14.459,14.6314,14.7312,14.9068,15.1249,15.3672,15.6671,15.9078,16.1336,16.2821,16.3837,16.4462,16.4462,16.4462,16.4462,16.4462,16.4462,16.4462,16.4462,16.4462,16.4462,16.4462,16.4462,16.4462,16.4462,16.4462,16.4396,16.4067,8.4929,8.4929,8.4929,8.5802,8.7093,8.7397,8.8346,8.9523,8.9903,9.0016,9.0016,9.0016,9.0016,9.0016,9.0187,9.0148,9.1166,9.315,9.4949,9.7105,9.9405,10.1681,10.3114,10.3991,10.4395,10.6323,10.7134,10.805,10.9958,11.1424,11.2862,11.4468,11.673,11.9141,12.1002,12.1799,12.2117,12.2117,12.2117,12.2117,12.2117,12.2117,12.2117,12.2117,12.2117,12.2117,12.2117,12.2434,12.3017,12.4695,12.6815,12.8904,13.1164,13.3588,13.583,13.718,13.8604,14.0152,14.2367,14.4346,14.4993,14.4777,14.5068,14.501,14.4719,14.501,14.5475,14.5533,14.5533,14.5533,14.5533,14.5533,14.5533,14.5533,14.5533,14.5533,14.5533,14.5533,14.5533,14.5533,14.5359,14.53,14.5126,14.4719,14.4502,14.4839,14.5128,14.645,14.8076,14.9993,15.1923,15.4277,15.6556,15.8903,16.1207,16.2371,16.3561,16.4462,16.4462,16.4462,16.4462,16.4462,16.4462,16.4462,16.4462,16.4462,16.4462,16.4462,16.4462,16.4462,16.4462,16.4462,16.4396,16.387,16.3541,8.4929,8.5005,8.5347,8.6258,8.7549,8.7852,8.8764,8.9865,9.0016,9.0016,9.0016,9.0997,9.1504,9.1972,9.2309,9.2982,9.3485,9.574,9.7723,9.9852,10.1929,10.4402,10.5645,10.6749,10.7829,10.838,10.9123,11.0226,11.177,11.2761,11.4068,11.652,11.9141,12.1002,12.164,12.1958,12.2117,12.2117,12.2117,12.2117,12.2117,12.2117,12.2117,12.2117,12.2117,12.2117,12.2275,12.3017,12.4226,12.6198,12.9108,13.0864,13.265,13.5685,13.7609,13.8604,14.0152,14.1541,14.3322,14.4481,14.5242,14.4661,14.4951,14.53,14.4835,14.5068,14.5475,14.5533,14.5533,14.5533,14.5533,14.5533,14.5533,14.5533,14.5533,14.5533,14.5533,14.5533,14.5533,14.5533,14.5359,14.5126,14.4661,14.4385,14.4839,14.5363,14.6898,14.8487,15.0624,15.2657,15.482,15.7153,15.9078,16.1359,16.2797,16.3561,16.4358,16.4462,16.4462,16.4462,16.4462,16.4462,16.4462,16.4462,16.4462,16.4462,16.4462,16.4462,16.4462,16.4462,16.4462,16.4462,16.3936,16.3278,16.3015,8.4967,8.5119,8.5954,8.6789,8.7701,8.846,8.9219,8.9979,9.0016,9.0016,9.0318,9.2477,9.3613,9.4616,9.6153,9.7146,9.7806,10.0546,10.1195,10.2327,10.4342,10.5699,10.6509,10.716,10.7829,10.8722,10.9257,11.0329,11.186,11.4094,11.6799,11.9349,12.0842,12.164,12.2117,12.2117,12.2117,12.2117,12.2117,12.2117,12.2117,12.2117,12.2117,12.2117,12.2117,12.2275,12.2434,12.4226,12.5889,12.7225,13.0565,13.2798,13.4613,13.7125,13.9028,14.0152,14.1623,14.2777,14.3729,14.4941,14.5475,14.5475,14.5359,14.501,14.4777,14.5242,14.5533,14.5533,14.5533,14.5533,14.5533,14.5533,14.5533,14.5533,14.5533,14.5533,14.5533,14.5533,14.5533,14.5533,14.5417,14.5184,14.4777,14.5569,14.6152,14.6462,14.7866,15.0249,15.2596,15.5708,15.7915,15.9779,16.1639,16.2732,16.415,16.4358,16.4358,16.4462,16.4462,16.4462,16.4462,16.4462,16.4462,16.4462,16.4462,16.4462,16.4462,16.4462,16.4462,16.4462,16.4462,16.4462,16.4067,16.3212,16.262,8.5347,8.5992,8.622,8.7131,8.846,8.8688,8.9257,8.9941,9.0187,9.0187,9.0658,9.2814,9.5116,9.6775,9.7806,9.8628,9.8463,10.0708,10.1681,10.2649,10.4342,10.584,10.6535,10.7204,10.7874,10.8722,10.9511,11.1153,11.3635,11.638,11.8865,12.1321,12.1799,12.1958,12.2117,12.2117,12.2117,12.2117,12.2117,12.2117,12.2117,12.2117,12.2117,12.2117,12.2275,12.286,12.4538,12.5889,12.8296,13.0114,13.2798,13.4905,13.6784,13.8549,14.0012,14.176,14.2641,14.3865,14.4673,14.5133,14.5533,14.5242,14.4893,14.4486,14.4486,14.5126,14.5533,14.5533,14.5533,14.5533,14.5533,14.5533,14.5533,14.5533,14.5533,14.5533,14.5533,14.5533,14.5533,14.5533,14.5475,14.5184,14.592,14.6825,14.75,14.7738,14.9446,15.1983,15.5243,15.8836,16.079,16.2371,16.3496,16.3771,16.4358,16.4358,16.4358,16.4462,16.4462,16.4462,16.4462,16.4462,16.4462,16.4462,16.4462,16.4462,16.4462,16.4462,16.4462,16.4462,16.4462,16.4462,16.4133,16.3081,16.2094,8.5499,8.6334,8.6713,8.7587,8.8764,8.9181,9.0406,9.1894,9.227,9.311,9.4576,9.5906,9.7558,10.0015,10.1033,10.1195,10.1681,10.3015,10.3613,10.4254,10.498,10.6044,10.6535,10.7472,10.8409,10.9466,11.0705,11.2789,11.5868,11.8656,12.0314,12.1799,12.2117,12.2117,12.2117,12.2117,12.2117,12.2117,12.2117,12.2117,12.2117,12.2117,12.2117,12.2117,12.3175,12.4382,12.6043,12.743,13.0715,13.3093,13.5196,13.6982,13.9169,14.057,14.1403,14.3265,14.3865,14.4731,14.54,14.5533,14.5533,14.53,14.501,14.4428,14.4602,14.5126,14.5533,14.5533,14.5533,14.5533,14.5533,14.5533,14.5533,14.5533,14.5533,14.5533,14.5533,14.5533,14.5533,14.5533,14.5666,14.6227,14.6969,14.8511,15.0048,15.0873,15.2718,15.4654,15.7469,16.0699,16.2543,16.4254,16.4358,16.4462,16.4462,16.4462,16.4462,16.4462,16.4462,16.4462,16.4462,16.4462,16.4462,16.4462,16.4462,16.4462,16.4462,16.4462,16.433,16.4396,16.4462,16.4462,16.4396,16.3212,16.1437,8.565,8.6524,8.7777,8.8783,8.9831,9.1118,9.3239,9.57,9.5906,9.7682,9.9647,9.981,10.0786,10.2606,10.4458,10.5458,10.5458,10.5458,10.5255,10.5255,10.5617,10.6178,10.7026,10.8142,10.9153,11.0391,11.2807,11.617,11.8542,11.951,12.0842,12.1799,12.2117,12.2117,12.2117,12.2117,12.2117,12.2117,12.2117,12.2117,12.2117,12.2592,12.2751,12.3333,12.4851,12.6661,12.7838,13.0715,13.3682,13.5775,13.7981,13.9732,14.1265,14.2641,14.3129,14.3865,14.4731,14.5533,14.5533,14.5533,14.5533,14.5533,14.5475,14.5533,14.5359,14.5475,14.5533,14.5533,14.5533,14.5533,14.5533,14.5533,14.5533,14.5533,14.5533,14.5533,14.5533,14.5533,14.5533,14.5666,14.6535,14.7145,14.8066,15.0294,15.2657,15.4239,15.5791,15.7312,15.9252,16.1247,16.3034,16.4046,16.4462,16.4462,16.4462,16.4462,16.4462,16.4462,16.4462,16.4462,16.4462,16.4462,16.4462,16.4462,16.4462,16.4462,16.4264,16.4133,16.4133,16.4001,16.3673,16.387,16.4199,16.2949,16.1305,8.6524,8.7486,9.1019,9.3207,9.4422,9.7147,9.883,9.9321,9.9484,9.9931,10.0623,10.1757,10.2563,10.3366,10.4733,10.5776,10.5776,10.5776,10.5776,10.5776,10.5935,10.5821,10.6579,10.7812,10.9671,11.1561,11.3655,11.6052,11.9349,12.0794,12.164,12.1958,12.2117,12.2117,12.2117,12.2117,12.2117,12.2117,12.2117,12.2117,12.2543,12.3912,12.5007,12.5268,12.743,12.9562,13.1111,13.3682,13.592,13.8123,13.9676,14.1265,14.2584,14.3186,14.3865,14.4865,14.54,14.5533,14.5533,14.5533,14.5533,14.5533,14.5533,14.5533,14.5533,14.5533,14.5533,14.5533,14.5533,14.5533,14.5533,14.5533,14.5533,14.5533,14.5533,14.5533,14.5533,14.5533,14.5533,14.6403,14.7322,14.8373,14.9467,15.1543,15.4239,15.6027,15.7658,15.9252,16.0368,16.2179,16.3245,16.415,16.4462,16.4462,16.4462,16.4462,16.4462,16.4462,16.4462,16.4462,16.4462,16.4462,16.4462,16.4462,16.4462,16.4396,16.4001,16.3804,16.3738,16.3541,16.2949,16.262,16.2357,16.1437,16.0385,8.9243,9.047,9.4652,9.6978,9.8092,9.981,10.1434,10.2724,10.3045,10.3846,10.5166,10.5484,10.5484,10.5484,10.589,10.5776,10.5776,10.5776,10.5776,10.6093,10.6569,10.6997,10.7268,11.0037,11.157,11.311,11.5471,11.838,12.0634,12.164,12.1958,12.2117,12.2117,12.2117,12.2117,12.2117,12.2117,12.2117,12.2117,12.2117,12.2275,12.4382,12.6353,12.7736,12.9864,13.2058,13.4121,13.592,13.8407,14.0514,14.1817,14.2914,14.3865,14.4596,14.4673,14.54,14.5533,14.5533,14.5533,14.5533,14.5533,14.5533,14.5533,14.5533,14.5533,14.5533,14.5533,14.5533,14.5533,14.5533,14.5533,14.5533,14.5533,14.5533,14.5533,14.5533,14.5533,14.5533,14.6271,14.7191,14.9272,15.1043,15.1792,15.3451,15.5909,15.7773,15.9477,16.0589,16.1638,16.2821,16.3837,16.4358,16.4462,16.4462,16.4462,16.4462,16.4462,16.4462,16.4462,16.4462,16.4462,16.4462,16.4462,16.4462,16.4462,16.4462,16.3936,16.2884,16.3147,16.3278,16.2292,16.1437,16.0845,16.0122,15.9201,9.2744,9.4161,9.841,10.0662,10.1348,10.208,10.4006,10.6117,10.6434,10.8053,11.0018,10.9037,10.7896,10.7627,10.6569,10.5776,10.5935,10.641,10.641,10.6727,10.7941,10.8725,10.9295,11.1743,11.399,11.5507,11.7694,12.0073,12.1543,12.2117,12.2117,12.2117,12.2117,12.2117,12.2117,12.2117,12.2117,12.2117,12.2117,12.2592,12.3175,12.5007,12.6969,13.0715,13.2946,13.4851,13.664,13.8549,14.071,14.2857,14.3458,14.427,14.5133,14.54,14.54,14.5533,14.5533,14.5533,14.5533,14.5533,14.5533,14.5533,14.5533,14.5533,14.5533,14.5533,14.5533,14.5533,14.5533,14.5533,14.5533,14.5533,14.5533,14.5533,14.5533,14.5533,14.5666,14.6197,14.706,14.8887,15.1792,15.4239,15.484,15.6145,15.7773,15.9316,16.0764,16.1855,16.2394,16.3245,16.415,16.4358,16.4462,16.4462,16.4462,16.4462,16.4462,16.4462,16.4462,16.4462,16.4462,16.4462,16.4396,16.4264,16.4264,16.4001,16.3147,16.2094,16.1831,16.1305,16.0911,16.045,16.0056,15.9596,15.8543,9.6727,9.8612,10.2754,10.467,10.528,10.7739,10.9193,10.9862,11.0018,11.0018,11.053,10.9083,10.8255,10.7941,10.6569,10.5935,10.6252,10.6997,10.7941,10.8098,10.966,11.0281,11.1058,11.3087,11.5319,11.8111,11.9684,12.0813,12.1665,12.2117,12.2117,12.2117,12.2117,12.2117,12.2117,12.2117,12.2275,12.2434,12.2592,12.3175,12.5112,12.5889,12.9156,13.3241,13.6208,13.8407,13.9816,14.1347,14.2777,14.3265,14.4539,14.5266,14.5533,14.5533,14.5533,14.5533,14.5533,14.5533,14.5533,14.5533,14.5533,14.5533,14.5533,14.5533,14.5533,14.5533,14.5533,14.5533,14.5533,14.5533,14.5533,14.5533,14.5533,14.5533,14.5533,14.5533,14.5932,14.7191,14.9016,15.1168,15.3694,15.5791,15.6964,15.8346,15.9428,16.0543,16.1855,16.2714,16.3034,16.3456,16.415,16.4462,16.4462,16.4462,16.4462,16.4462,16.4462,16.4462,16.4462,16.4462,16.4462,16.4396,16.433,16.4199,16.3607,16.2949,16.216,16.0977,15.9924,15.9135,15.8872,15.8938,15.8938,15.8872,15.782,10.0265,10.2328,10.6501,10.8366,10.8568,11.0018,11.0839,11.0839,11.0839,11.0839,11.053,10.9037,10.8255,10.8255,10.747,10.7155,10.747,10.8881,10.966,10.9971,11.1162,11.1979,11.2511,11.453,11.6321,11.7848,11.9676,12.0653,12.1336,12.1775,12.2068,12.2117,12.2117,12.2117,12.2117,12.2117,12.2751,12.3598,12.4069,12.5318,12.7583,12.8904,13.1909,13.4996,13.8407,14.0849,14.2092,14.305,14.3729,14.4404,14.5133,14.5533,14.5533,14.5533,14.5533,14.5533,14.5533,14.5533,14.5533,14.5533,14.5533,14.5533,14.5533,14.5533,14.5533,14.5533,14.5533,14.5533,14.5533,14.5533,14.5533,14.5533,14.5533,14.5533,14.5533,14.6006,14.7453,14.9908,15.241,15.3936,15.5611,15.7196,15.8687,16.0368,16.1421,16.1747,16.2927,16.3522,16.3837,16.3837,16.4358,16.4462,16.4462,16.4462,16.4462,16.4462,16.4462,16.4462,16.4462,16.4462,16.4462,16.4396,16.4199,16.3541,16.2884,16.216,16.0977,15.9596,15.8412,15.8215,15.8083,15.7623,15.7557,15.782,15.7163,10.4055,10.6024,10.9383,11.0839,11.0839,11.0839,11.0839,11.0839,11.0839,11.0839,11.053,10.9551,10.8881,10.8881,10.8881,10.8881,10.9037,10.9971,11.1055,11.1363,11.285,11.3612,11.4156,11.5496,11.6889,11.7626,11.9091,12.0067,12.0653,12.1336,12.1873,12.2068,12.2117,12.2117,12.2275,12.2751,12.3912,12.5423,12.6353,12.7736,13.0166,13.2206,13.4121,13.6352,13.9676,14.223,14.3458,14.3729,14.427,14.5266,14.5533,14.5533,14.5533,14.5533,14.5533,14.5533,14.5533,14.5533,14.5533,14.5533,14.5533,14.5533,14.5533,14.5533,14.5533,14.5533,14.5533,14.5533,14.5533,14.5533,14.5533,14.5533,14.5932,14.6271,14.6535,14.7322,14.9654,15.2534,15.484,15.6497,15.8117,15.9653,16.1093,16.2071,16.2608,16.314,16.3732,16.4254,16.4358,16.4358,16.4462,16.4462,16.4462,16.4462,16.4462,16.4462,16.4462,16.4462,16.4462,16.4462,16.4462,16.4396,16.3804,16.3081,16.2292,16.0977,15.9793,15.8478,15.7426,15.7689,15.782,15.7294,15.6965,15.69,15.6636,10.8442,11.0188,11.0638,11.0839,11.0839,11.0839,11.0994,11.0839,11.0994,11.0994,11.0839,11.0638,11.0436,11.0591,11.0436,11.0591,11.0591,11.1055,11.1825,11.305,11.4267,11.5174,11.5222,11.5767,11.6357,11.7138,11.7382,11.87,11.992,12.0506,12.1141,12.1775,12.2019,12.2068,12.2434,12.4226,12.5268,12.6353,12.8042,13.0316,13.2798,13.4414,13.6352,13.869,14.1541,14.3458,14.4731,14.5266,14.5266,14.5533,14.5533,14.5533,14.5533,14.5533,14.5533,14.5533,14.5533,14.5533,14.5533,14.5533,14.5533,14.5533,14.5533,14.5533,14.5533,14.5533,14.5533,14.5533,14.5533,14.5533,14.5533,14.5666,14.6535,14.7914,14.8303,15.0035,15.2902,15.4301,15.5735,15.8409,15.8977,16.0322,16.1747,16.2714,16.3034,16.3732,16.4046,16.4462,16.4462,16.4462,16.4462,16.4462,16.4462,16.4462,16.4462,16.4462,16.4462,16.4462,16.4462,16.4462,16.4462,16.4264,16.3607,16.262,16.1634,16.0319,15.9004,15.782,15.6702,15.6702,15.7623,15.7228,15.6571,15.6505,15.6505,10.9397,11.1457,11.1457,11.1766,11.2227,11.2227,11.2227,11.2227,11.2227,11.2274,11.2073,11.1718,11.1517,11.1517,11.1931,11.2085,11.2285,11.3203,11.3964,11.4721,11.5324,11.5625,11.5674,11.5674,11.5869,11.6357,11.6943,11.7724,11.8603,11.9335,12.0164,12.1043,12.1189,12.1531,12.2336,12.4538,12.6353,12.8042,13.0316,13.3093,13.6208,13.7125,13.8832,14.1208,14.2447,14.4,14.54,14.5533,14.5533,14.5533,14.5533,14.5533,14.5533,14.5533,14.5533,14.5533,14.5533,14.5533,14.5533,14.5533,14.5533,14.5533,14.5533,14.5533,14.5533,14.5533,14.5533,14.5666,14.5533,14.5533,14.5799,14.6666,14.8174,14.9908,15.1293,15.3513,15.6847,15.7143,15.846,16.0257,16.1312,16.1963,16.3416,16.3732,16.3941,16.432,16.4462,16.4462,16.4462,16.4462,16.4462,16.4462,16.4462,16.4462,16.4462,16.4462,16.4462,16.4462,16.4462,16.4462,16.4462,16.4462,16.3607,16.2555,16.1174,15.9859,15.8872,15.782,15.6768,15.6636,15.736,15.736,15.6505,15.611,15.611,11.0599,11.2333,11.238,11.2687,11.3298,11.3298,11.3155,11.2916,11.3155,11.3003,11.2812,11.265,11.2745,11.2745,11.346,11.3812,11.4115,11.5023,11.5674,11.5674,11.5674,11.5674,11.5674,11.5674,11.5674,11.5772,11.6406,11.6992,11.7285,11.8115,11.9188,12.0457,12.1386,12.2141,12.3499,12.6353,12.8652,13.0467,13.2946,13.6064,13.8604,13.9591,14.1265,14.3129,14.3729,14.4539,14.54,14.5533,14.5533,14.5533,14.5533,14.5533,14.5533,14.5533,14.5533,14.5533,14.5533,14.5533,14.5533,14.5533,14.5533,14.5533,14.5533,14.5533,14.5533,14.5533,14.5799,14.6271,14.6403,14.6666,14.7453,14.8561,14.9781,15.1667,15.3634,15.609,15.8409,15.9541,16.0432,16.2286,16.2608,16.314,16.3941,16.4358,16.4358,16.4358,16.4462,16.4462,16.4462,16.4462,16.4462,16.4462,16.4462,16.4462,16.4462,16.4462,16.4462,16.4462,16.4462,16.4462,16.4462,16.4462,16.3673,16.2752,16.1503,16.0648,15.9464,15.8478,15.7557,15.6834,15.7294,15.736,15.6505,15.5913,15.5979,11.3098,11.3193,11.3146,11.3155,11.3307,11.3307,11.2733,11.2056,11.2725,11.2733,11.2303,11.3434,11.4171,11.437,11.4824,11.5174,11.5475,11.5674,11.5674,11.5674,11.5674,11.5674,11.5674,11.5674,11.5674,11.5674,11.5772,11.6309,11.7041,11.7285,11.8407,12.0379,12.2387,12.4473,12.569,13.0114,13.2206,13.3093,13.6352,13.8462,13.9169,14.1485,14.3129,14.3458,14.4539,14.54,14.5533,14.5533,14.5533,14.5533,14.5533,14.5533,14.5533,14.5533,14.5533,14.5533,14.5533,14.5533,14.5533,14.5533,14.5666,14.5799,14.5932,14.5533,14.6197,14.6403,14.6929,14.8174,14.8184,14.8896,15.0414,15.1172,15.1546,15.2103,15.526,15.749,15.909,16.0211,16.1421,16.2501,16.2821,16.314,16.4254,16.4462,16.4462,16.4462,16.4462,16.4462,16.4462,16.4462,16.4462,16.4462,16.4462,16.4462,16.4462,16.4462,16.4462,16.4462,16.4462,16.4462,16.4462,16.4462,16.4001,16.3081,16.2094,16.1371,16.0516,15.9859,15.907,15.7754,15.7031,15.7031,15.6636,15.611,15.5913,11.2022,11.3002,11.2376,11.2338,11.2832,11.2832,11.259,11.2348,11.2687,11.259,11.2542,11.3664,11.425,11.4396,11.5231,11.5625,11.5674,11.5674,11.5674,11.5674,11.5674,11.5674,11.5674,11.5674,11.5674,11.5674,11.5674,11.5869,11.6211,11.6309,11.6992,11.882,12.155,12.3773,12.524,12.9997,13.3535,13.4705,13.7411,13.9872,14.1485,14.272,14.3729,14.4673,14.5266,14.5533,14.5533,14.5533,14.5533,14.5533,14.5533,14.5533,14.5533,14.5533,14.5533,14.5533,14.5533,14.5533,14.5533,14.5666,14.6065,14.7132,14.7394,14.7914,14.9075,14.9399,14.9527,15.0108,14.9752,14.9887,15.1364,15.1862,15.3557,15.5957,15.7595,15.8977,16.0211,16.1312,16.2501,16.3416,16.3732,16.3941,16.4254,16.4462,16.4462,16.4462,16.4462,16.4462,16.4462,16.4462,16.4462,16.4462,16.4462,16.4462,16.4462,16.4462,16.4462,16.4462,16.4462,16.4462,16.4462,16.4462,16.4264,16.3344,16.2818,16.2094,16.0911,16.0516,15.9596,15.8478,15.7163,15.6834,15.6373,15.5979,15.5913,11.1614,11.2639,11.1912,11.1916,11.255,11.255,11.2306,11.2062,11.2453,11.2355,11.2306,11.3527,11.4161,11.4454,11.5577,11.5967,11.5674,11.6016,11.6357,11.6602,11.6357,11.6211,11.6113,11.5821,11.5674,11.5674,11.5674,11.5674,11.5824,11.6424,11.7216,11.9005,12.266,12.5224,12.6803,13.1866,13.5341,13.664,13.8973,14.1265,14.2993,14.3729,14.4404,14.54,14.5533,14.5533,14.5533,14.5533,14.5533,14.5533,14.5533,14.5533,14.5533,14.5533,14.5533,14.5533,14.5533,14.5799,14.6271,14.6065,14.6403,14.8044,14.8502,14.9272,15.0414,15.1043,15.1792,15.2288,15.174,15.1679,15.3023,15.3734,15.4949,15.7593,15.793,15.8487,16.03,16.1465,16.2683,16.4019,16.4462,16.4462,16.4462,16.4462,16.4462,16.4462,16.4462,16.4462,16.4462,16.4462,16.4462,16.4462,16.4462,16.4462,16.4462,16.4462,16.4462,16.4462,16.4462,16.4462,16.4462,16.4462,16.4133,16.3607,16.3344,16.262,16.1371,16.0319,15.9201,15.8083,15.7426,15.6768,15.611,15.5913,15.5913,11.2502,11.2355,11.2502,11.2306,11.2258,11.2209,11.1818,11.1135,11.2014,11.1867,11.1428,11.3234,11.4161,11.4503,11.6065,11.6553,11.5967,11.665,11.7529,11.831,11.7529,11.7138,11.7041,11.6211,11.5772,11.5674,11.5674,11.5674,11.6076,11.7864,11.935,12.1495,12.6051,12.9136,13.0991,13.5391,13.8493,13.9451,14.1485,14.2993,14.3401,14.4731,14.54,14.5533,14.5533,14.5533,14.5533,14.5533,14.5533,14.5533,14.5533,14.5533,14.5533,14.5533,14.5666,14.5799,14.5608,14.6476,14.7796,14.6563,14.6387,14.8342,14.858,14.8853,14.9747,15.087,15.2352,15.3625,15.3862,15.4707,15.6184,15.664,15.6624,15.5654,15.6268,15.7653,15.9867,16.0697,16.1639,16.3822,16.4462,16.4462,16.4462,16.4396,16.4462,16.4462,16.4462,16.4462,16.4462,16.4462,16.4462,16.4462,16.4462,16.4462,16.4462,16.4462,16.4462,16.4462,16.4396,16.4462,16.4462,16.3936,16.3541,16.3147,16.2818,16.2292,16.1042,15.9924,15.8807,15.7689,15.7754,15.7163,15.6439,15.5913,15.5913,11.1428,11.1281,11.0647,11.0305,11.0354,11.0305,11.011,10.9964,11.094,11.1233,11.133,11.3185,11.4161,11.4405,11.5577,11.5918,11.5772,11.6748,11.7431,11.7724,11.7431,11.7236,11.7187,11.6894,11.6357,11.5723,11.5674,11.6525,11.8013,11.8751,12.0224,12.2184,12.6214,12.9472,13.1882,13.5542,13.9172,14.1509,14.272,14.3865,14.4865,14.54,14.5533,14.5533,14.5533,14.5533,14.5533,14.5533,14.5533,14.5533,14.5533,14.5533,14.5533,14.5533,14.6139,14.7074,14.5642,14.5115,14.6494,14.5784,14.6325,14.9363,14.9909,15.045,15.176,15.2348,15.2994,15.3271,15.3001,15.2927,15.4467,15.6132,15.7006,15.744,15.817,15.969,16.1402,16.2527,16.339,16.4095,16.4264,16.3936,16.3344,16.3936,16.4396,16.4462,16.4462,16.4462,16.4462,16.4462,16.4462,16.4462,16.4462,16.4462,16.4067,16.3936,16.3936,16.3936,16.3832,16.433,16.433,16.341,16.2752,16.2357,16.1897,16.1437,16.0648,15.953,15.8215,15.6834,15.6702,15.6834,15.6439,15.5913,15.5847,11.0257,11.0208,10.9573,10.928,10.9329,10.9671,10.9817,10.9964,11.0989,11.1477,11.177,11.3331,11.4161,11.4161,11.5186,11.5869,11.6309,11.6943,11.748,11.7822,11.7431,11.7236,11.7236,11.6846,11.626,11.5723,11.5674,11.6823,11.9046,12.0895,12.2432,12.4353,12.7902,13.0637,13.2817,13.6525,13.9877,14.2442,14.3635,14.4539,14.54,14.5533,14.5533,14.5533,14.5533,14.5533,14.5533,14.5533,14.5533,14.5533,14.6271,14.6095,14.5158,14.6224,14.7413,14.7711,14.6108,14.576,14.7398,14.6429,14.7054,15.0054,15.0407,15.0998,15.2208,15.3346,15.402,15.4005,15.3356,15.2926,15.3572,15.4292,15.5674,15.6677,15.7703,15.8599,16.0475,16.1568,16.2357,16.2818,16.2949,16.2884,16.262,16.3607,16.4462,16.4462,16.4462,16.4462,16.4462,16.4462,16.4462,16.4462,16.4462,16.4199,16.3344,16.3015,16.3015,16.3015,16.3081,16.3015,16.2818,16.1831,16.124,16.0779,16.0845,16.0253,15.8807,15.782,15.782,15.6571,15.611,15.6176,15.5913,15.519,15.5256,10.928,10.9329,10.9329,10.9427,10.9524,11.0501,11.094,11.1037,11.2111,11.2599,11.2746,11.3771,11.4259,11.4356,11.5235,11.6162,11.7041,11.7041,11.7626,11.8505,11.7724,11.7236,11.7138,11.6211,11.5922,11.6471,11.6621,11.7617,12.0179,12.4017,12.622,12.65,13.079,13.3278,13.4265,13.828,14.1183,14.1986,14.4112,14.5475,14.5533,14.5475,14.5417,14.5533,14.5533,14.5533,14.5533,14.5475,14.5417,14.5417,14.7158,14.6828,14.4458,14.7367,14.8813,14.754,14.7237,14.8084,14.9577,14.82,14.8019,14.9981,15.0263,15.0332,15.0664,15.2829,15.4272,15.4809,15.5232,15.5124,15.3529,15.3479,15.3762,15.4514,15.4615,15.5902,15.7918,15.8741,15.8872,16.0056,16.045,16.0714,16.2029,16.341,16.387,16.4199,16.433,16.433,16.433,16.433,16.4199,16.4199,16.3936,16.3344,16.0977,16.0911,16.0714,16.0779,16.1174,16.0582,16.0319,16.0056,15.953,15.9201,15.9793,15.9201,15.7294,15.6702,15.7294,15.7228,15.6768,15.6308,15.6505,15.4993,15.4729,10.928,10.9378,11.011,11.0891,11.1672,11.1965,11.2062,11.2209,11.3234,11.3722,11.3819,11.4796,11.5235,11.5284,11.5528,11.5772,11.6065,11.6113,11.6699,11.7578,11.7431,11.7236,11.7236,11.6894,11.7958,12.0003,12.03,12.2331,12.5872,12.8612,12.9831,13.0321,13.2425,13.4637,13.6411,13.7639,14.0068,14.2781,14.3699,14.4602,14.53,14.4661,14.4602,14.5475,14.5533,14.5533,14.5533,14.4661,14.4137,14.4269,14.5094,14.5278,14.4601,14.8025,14.9292,14.7541,14.651,14.6802,14.8746,14.7411,14.7495,14.9384,14.9608,14.9608,14.9943,15.1094,15.19,15.2286,15.3707,15.5128,15.4857,15.4957,15.5056,15.542,15.6437,15.7093,15.7952,15.9004,15.9596,15.999,15.9135,15.9135,16.045,16.1174,16.1897,16.2686,16.2949,16.3147,16.4133,16.3541,16.2949,16.2884,16.1963,16.1042,16.045,15.999,16.0187,16.0187,16.0122,16.0385,16.1568,16.0648,15.9793,16.0056,16.0122,15.9661,15.8741,15.8807,15.9267,15.8872,15.8149,15.736,15.7031,15.6176,15.565,11.0598,11.0696,11.1281,11.1965,11.255,11.3039,11.3185,11.3331,11.4308,11.4747,11.4844,11.5381,11.5674,11.5674,11.5674,11.5674,11.5674,11.5674,11.6016,11.6553,11.6602,11.6602,11.6753,11.776,11.9606,12.1888,12.3358,12.5965,12.9543,13.1234,13.2299,13.3195,13.4166,13.5382,13.6847,13.8012,13.964,14.1985,14.2567,14.3206,14.3788,14.3265,14.3206,14.3904,14.3963,14.4021,14.4036,14.412,14.4098,14.4168,14.5932,14.6324,14.5106,14.866,14.9643,14.7212,14.6946,14.7504,14.8645,14.8011,14.8085,14.9144,14.9317,14.9317,14.9427,15.028,15.1223,15.2171,15.3783,15.5156,15.5815,15.5913,15.5913,15.5979,15.6571,15.7097,15.7163,15.7886,15.8412,15.8412,15.7689,15.7689,15.8938,15.9267,15.9924,16.1108,16.1503,16.17,16.2489,16.2029,16.1503,16.1174,15.9661,15.8609,15.8346,15.8412,15.8675,15.907,15.9333,15.9793,16.0845,16.0582,16.045,16.1174,16.0648,16.0253,16.0253,15.9859,15.9267,15.8872,15.8149,15.7163,15.7163,15.6045,15.5519,11.2502,11.255,11.2599,11.2697,11.2843,11.3819,11.4259,11.4405,11.5235,11.5674,11.5577,11.5674,11.5674,11.5674,11.5674,11.5674,11.5674,11.5674,11.5674,11.5674,11.5674,11.5674,11.6024,11.8651,12.0968,12.2816,12.5573,12.9026,13.2829,13.3311,13.4337,13.6068,13.6285,13.6302,13.6488,13.838,13.96,13.9775,14.0822,14.1403,14.152,14.1578,14.1636,14.1694,14.1752,14.1752,14.2257,14.3444,14.4335,14.4961,14.784,14.8419,14.6193,14.8801,14.9483,14.6774,14.7883,14.8939,14.8876,14.8876,14.8641,14.8876,14.8986,14.9221,14.933,14.99,15.1367,15.3162,15.4598,15.4961,15.5453,15.5584,15.5584,15.5519,15.5847,15.5913,15.5979,15.5913,15.5913,15.5913,15.611,15.6373,15.7557,15.782,15.8346,15.9398,15.9793,16.0122,16.0582,16.0253,15.999,15.953,15.8215,15.6834,15.6834,15.6373,15.7426,15.828,15.8346,15.9201,16.0319,16.0714,16.0582,16.1568,16.0845,16.0648,16.0253,15.9267,15.8478,15.8675,15.7886,15.6505,15.5979,15.5256,15.4861,11.255,11.2648,11.3429,11.3771,11.3868,11.4893,11.5333,11.5333,11.5528,11.5674,11.5674,11.5674,11.5674,11.5674,11.5674,11.5674,11.5674,11.5674,11.5674,11.5674,11.5674,11.5674,11.5926,11.8748,12.2081,12.5468,12.8612,13.2682,13.7106,13.6846,13.7684,13.9809,13.9251,13.8926,13.8926,13.8484,13.8728,13.96,13.9077,13.9193,14.0124,14.0182,14.0705,14.1636,14.1694,14.2469,14.3697,14.1926,14.2221,14.4998,14.5173,14.5448,14.6242,14.7349,14.7777,14.7009,14.6331,14.5981,14.5981,14.5981,14.5981,14.5981,14.7848,14.9014,14.8887,14.8145,14.8483,15.0472,15.136,15.1687,15.263,15.3546,15.4269,15.4335,15.519,15.5716,15.5847,15.5913,15.5913,15.5913,15.5913,15.5913,15.6308,15.6373,15.6505,15.7031,15.782,15.8938,15.9793,15.9135,15.8609,15.8543,15.9004,15.8938,15.9201,15.907,15.9201,15.953,15.9727,16.0385,16.1371,16.1831,16.216,16.2884,16.2489,16.17,16.1634,16.0582,15.9661,15.9398,15.8872,15.8478,15.7491,15.6242,15.565,11.3966,11.4064,11.4552,11.4844,11.4893,11.5381,11.5674,11.5674,11.5674,11.5674,11.5674,11.5674,11.5674,11.5674,11.5674,11.5674,11.5674,11.5674,11.5674,11.5674,11.5674,11.5674,11.6076,12.0212,12.3759,12.6665,13.1034,13.515,13.8655,13.8549,13.9352,14.0931,14.0189,13.9426,13.8844,13.8204,13.8146,13.8786,13.7041,13.6168,13.6226,13.6226,13.6285,13.6459,13.7681,13.8709,13.9776,13.8358,13.8448,14.0548,14.028,14.1233,14.3539,14.3977,14.4724,14.5999,14.5414,14.4974,14.4974,14.4974,14.4974,14.4974,14.6369,14.7509,14.8251,14.8665,14.9399,15.0544,15.0641,15.0932,15.1639,15.2296,15.2757,15.2757,15.3414,15.394,15.4006,15.4466,15.4664,15.4072,15.4466,15.4664,15.4006,15.4532,15.4927,15.5058,15.6176,15.7294,15.8017,15.8017,15.782,15.7294,15.828,15.907,15.9135,15.9201,15.9793,16.1042,16.1174,16.1766,16.3015,16.262,16.2686,16.3212,16.2292,16.1503,16.1305,16.0187,15.9398,15.9135,15.8807,15.8083,15.7294,15.6505,15.5913,11.5625,11.5674,11.5674,11.5674,11.5674,11.5674,11.5674,11.5674,11.5674,11.5723,11.5869,11.5869,11.5967,11.6113,11.5967,11.5869,11.5869,11.5723,11.5674,11.5674,11.5674,11.5926,11.6525,12.2185,12.5502,12.7304,13.2649,13.6448,13.8249,13.8914,13.9707,14.0247,13.9912,13.9018,13.7681,13.7564,13.7506,13.7273,13.5238,13.3667,13.2736,13.2853,13.2097,13.0468,13.2853,13.4022,13.3683,13.4069,13.4361,13.482,13.5111,13.6553,13.9365,13.9412,14.0558,14.3158,14.3265,14.3372,14.3711,14.3986,14.4155,14.4556,14.5126,14.5845,14.7064,14.9395,15.0886,15.0981,15.085,15.0981,15.0981,15.1113,15.131,15.131,15.1507,15.1639,15.177,15.2757,15.3151,15.2362,15.2888,15.302,15.2494,15.2954,15.3546,15.394,15.4927,15.5716,15.6242,15.6965,15.7163,15.6636,15.736,15.8215,15.8609,15.8346,15.9398,16.17,16.1831,16.2094,16.3147,16.2489,16.1963,16.2029,16.0845,15.999,15.9859,15.8675,15.7886,15.7689,15.6965,15.6176,15.611,15.5716,15.5519,11.5674,11.5674,11.5674,11.5674,11.5674,11.5674,11.5674,11.5674,0.0,0.0,0.0,11.6992,11.748,11.8261,11.7382,11.6992,11.6894,11.6065,11.5674,11.5674,11.5674,11.6923,11.9482,12.2991,12.6253,12.8821,13.2425,13.5146,13.6998,13.7845,13.85,13.9092,13.9448,13.8611,13.6459,13.6343,13.5819,13.483,13.4365,13.454,13.5354,13.6343,13.4714,13.0352,13.2736,13.3346,13.1818,13.1243,13.1944,13.3989,13.2744,13.2968,13.4858,13.3992,13.41,13.5539,13.4683,13.5207,13.7597,13.8545,14.0189,14.2749,14.5552,14.6447,14.4331,14.5722,14.7045,14.7797,14.7956,14.7956,14.7956,14.9074,14.9863,14.9863,15.0916,15.1573,15.1573,15.1902,15.2296,15.3086,15.2494,15.2296,15.302,15.2559,15.2362,15.348,15.4072,15.4532,15.565,15.6176,15.6636,15.7426,15.8543,15.9661,15.9727,15.9661,15.999,16.0516,16.0648,16.0648,16.0845,16.0714,16.0582,16.0582,15.9398,15.8543,15.828,15.7294,15.6308,15.6242,15.6045,15.5913,15.5782,15.4993,15.4203,11.5674,0.0,11.5674,11.5674,0.0,11.5674,11.5674,11.5674,11.5674,11.626,11.7285,11.7871,11.8407,11.8895,11.8359,11.7773,11.7236,11.6699,11.6162,11.5674,11.5674,11.7171,12.0212,12.3276,12.6425,12.9368,13.2622,13.4991,13.6155,13.6288,13.6713,13.7407,13.6392,13.5296,13.4074,13.3434,13.2795,13.2155,13.2155,13.2155,13.2155,13.3645,13.3183,13.0948,13.4009,0.0,0.0,0.0,0.0,0.0,0.0,0.0,0.0,0.0,0.0,13.2968,12.9784,12.8764,13.0987,13.2694,13.5043,13.7923,14.0891,14.2163,14.1095,14.2953,14.4381,14.4997,14.5655,14.6378,14.7102,14.7825,14.8285,14.8351,14.8943,14.9337,14.9403,14.9995,15.085,15.1442,15.1573,15.1507,15.1639,15.2033,15.2757,15.2757,15.3875,15.5124,15.5716,15.5913,15.6439,15.782,15.8675,15.907,15.907,15.907,15.9267,15.999,16.0187,16.0187,16.0187,15.9596,15.907,15.9004,15.7886,15.6965,15.69,15.6373,15.5913,15.5913,15.5913,15.5519,15.394,15.3151,15.2691,11.5381,11.5381,11.5577,11.5674,11.5625,11.5235,11.5088,11.504,11.504,11.5577,11.6455,11.7724,11.8651,11.9188,11.8798,11.8212,11.7578,11.7138,11.6455,11.5674,11.5674,11.7617,12.1032,12.3613,12.6703,13.0236,13.3058,13.4812,13.5887,13.4903,13.4964,13.5587,13.3318,13.1922,13.134,0.0,0.0,0.0,13.0003,12.9828,12.919,13.0771,13.1341,13.096,13.4712,0.0,13.6191,13.5402,13.437,13.3035,13.2051,0.0,0.0,0.0,0.0,0.0,0.0,0.0,0.0,0.0,0.0,0.0,13.5097,13.6645,13.7787,14.0131,14.1512,14.1315,14.309,14.4471,14.5063,14.5326,14.5721,14.6247,14.6312,14.6575,14.7167,14.8285,14.9337,14.9798,15.0652,15.0916,15.0652,15.2033,15.2954,15.2428,15.4006,15.5453,15.5847,15.5913,15.6308,15.736,15.7557,15.7623,15.7623,15.7623,15.8017,15.9004,15.9398,15.9333,15.9135,15.828,15.7623,15.7557,15.6702,15.5913,15.5913,15.5913,15.5782,15.5519,15.5453,15.4729,15.2165,15.1442,15.1179,11.4356,11.4454,11.5284,11.5674,11.5479,11.3722,11.2941,11.2941,11.2941,11.3039,11.3283,11.5235,11.7626,12.0164,11.831,11.7919,11.8603,11.6748,11.5772,11.5674,11.5674,11.8748,12.4128,12.4551,12.7671,13.3019,13.3182,13.4086,13.5829,13.4097,13.3566,13.4307,13.2853,13.0991,12.8839,12.756,12.692,12.692,12.9072,13.0701,13.1631,13.3037,13.2359,12.9605,13.2032,13.2699,13.0972,13.1808,13.1747,13.0411,13.0168,13.0274,13.0608,12.7495,12.4781,0.0,11.9659,0.0,0.0,0.0,0.0,0.0,0.0,0.0,0.0,13.6317,13.6777,13.5528,13.8947,14.0328,13.8027,13.8947,14.0723,14.309,14.3419,14.4405,14.6773,14.7299,14.8417,15.1047,15.0389,15.0718,15.2625,15.2362,15.2362,15.3283,15.3743,15.4138,15.5453,15.565,15.5716,15.611,15.6176,15.6308,15.6308,15.6242,15.6308,15.6439,15.6636,15.6439,15.6636,15.6373,15.6242,15.6176,15.5979,15.5847,15.5913,15.5847,15.5387,15.4269,15.4006,15.3349,15.177,15.0521,14.9798,11.3234,11.3283,11.3771,11.3917,11.3819,11.2941,11.255,11.255,11.255,11.2892,11.3478,11.4405,11.5918,11.7724,11.6797,11.6357,11.6211,11.5284,11.4503,11.4065,11.5585,11.8618,12.2846,12.5089,12.8519,13.2718,13.3188,13.3956,13.4739,13.3203,13.2255,13.1922,13.0642,12.8374,12.5349,12.5989,12.6745,12.7443,12.8607,12.977,13.0991,13.2709,13.3593,13.387,13.5916,13.7116,13.7225,13.7721,13.7411,13.6047,13.5985,13.4884,13.2504,12.6784,12.2641,0.0,0.0,0.0,0.0,0.0,0.0,0.0,0.0,0.0,0.0,0.0,13.0793,13.178,13.7238,13.9276,13.5594,13.7304,13.8816,13.9211,13.9276,14.0131,14.217,14.309,14.4405,14.651,14.6904,14.8154,15.0981,15.1507,15.2099,15.3612,15.1639,15.0324,15.1047,15.2494,15.348,15.3612,15.4861,15.5913,15.5913,15.5913,15.5913,15.5913,15.5913,15.5913,15.5913,15.5913,15.5913,15.5847,15.5256,15.4729,15.4664,15.4138,15.3349,15.2625,15.1968,15.0916,14.9469,14.8614,14.8154,11.216,11.2014,11.0257,10.9768,11.0257,11.0257,11.0549,11.0989,11.0989,11.1135,11.1526,11.2258,11.2306,11.1867,11.2111,11.2355,11.2599,11.2599,11.2599,11.2697,11.5536,11.8356,12.1453,12.5161,12.8267,13.0824,13.2305,13.2709,13.2366,13.16,13.041,12.8839,12.785,12.5815,12.2848,12.5117,12.692,12.8316,12.8607,12.9246,13.0177,13.2064,13.4269,13.705,13.8892,14.0695,14.2414,14.2518,14.2015,14.0945,13.9314,13.7003,13.3649,12.539,0.0,0.0,0.0,0.0,0.0,0.0,0.0,0.0,0.0,12.1456,11.6721,0.0,12.5072,0.0,13.349,13.5923,13.3029,13.441,0.0,0.0,13.4542,13.5068,13.6843,13.8619,14.0263,14.1644,14.309,14.5129,14.8088,14.9337,15.0455,15.1507,14.9337,14.743,14.6838,14.9469,15.1244,15.0455,15.2033,15.3677,15.3217,15.4072,15.4927,15.5321,15.565,15.5782,15.5453,15.565,15.5913,15.5847,15.4993,15.4203,15.3875,15.2888,15.1968,15.0718,14.9666,14.8548,14.743,14.7167,14.7036,11.0844,11.0403,10.357,10.191,10.3619,10.3619,10.4741,10.6547,10.6596,10.5522,10.4058,10.6889,10.5522,10.1032,10.1959,0.0,10.8158,10.8207,10.972,11.2648,11.5536,11.8356,12.1401,12.4404,12.635,12.7783,12.9559,12.9428,12.7974,12.8353,12.7327,12.4942,12.4768,12.4011,12.279,12.5117,12.7036,12.8316,12.9479,13.0119,13.0177,13.2064,13.391,13.5604,13.7371,13.9264,14.0967,14.1071,14.1071,14.0756,13.4861,13.1288,13.0714,0.0,0.0,0.0,0.0,0.0,0.0,0.0,0.0,0.0,0.0,0.0,0.0,0.0,0.0,0.0,12.4875,0.0,12.8097,12.7242,0.0,0.0,0.0,12.9478,13.2174,13.5068,13.7369,13.875,0.0,0.0,14.4997,14.5458,14.5589,14.5721,14.7759,14.8285,14.5589,14.8614,15.0126,14.6247,14.6904,14.7365,14.7102,14.9403,15.1902,15.3217,15.5058,15.5058,15.4138,15.4795,15.5782,15.5716,15.5782,15.5256,15.4006,15.3349,15.2362,14.8219,14.7365,14.7299,14.697,14.6904,14.651,10.4751,10.2838,9.9909,9.8787,9.8982,9.8982,10.0202,10.2203,10.2203,10.1374,10.0056,10.1276,9.9568,9.5712,9.62,0.0,0.0,0.0,10.2643,10.5855,11.0378,11.4414,11.8313,12.2459,12.5359,12.7268,12.7273,12.7257,12.7225,12.7206,12.3139,11.5577,0.0,0.0,11.6973,12.1685,12.4709,12.6047,12.9537,13.0991,13.0235,13.1768,13.3473,13.5371,13.6199,13.7899,14.0778,14.0126,13.8081,13.4799,13.1303,12.6267,0.0,0.0,0.0,0.0,0.0,0.0,0.0,0.0,0.0,0.0,0.0,11.2578,10.8633,0.0,0.0,0.0,11.6261,11.705,11.8431,12.1258,0.0,0.0,0.0,0.0,0.0,0.0,0.0,13.4279,13.5923,13.829,14.1841,13.9342,13.7501,13.8421,13.9605,13.9868,13.875,0.0,14.3748,14.3748,14.4208,14.4931,14.6115,14.5589,14.5523,14.697,14.9074,15.0324,14.9929,15.1705,15.3217,15.3217,15.2625,15.1836,15.131,14.9666,14.7628,14.5129,14.4537,14.4537,14.4537,14.4537,14.4405,9.7664,0.0,0.0,0.0,0.0,9.4248,9.537,9.7322,9.7078,9.6102,9.4833,9.5419,0.0,0.0,0.0,0.0,0.0,0.0,9.7371,10.0169,10.7512,11.2286,11.5005,11.9119,12.222,12.4239,12.2696,12.2273,12.2639,12.1818,11.7322,10.9512,0.0,0.0,0.0,0.0,12.2848,12.4593,12.9479,13.1864,13.134,13.2213,13.3537,13.53,13.5888,13.7498,14.0212,13.7767,13.4213,12.9636,12.5133,0.0,0.0,0.0,0.0,0.0,0.0,0.0,0.0,0.0,0.0,0.0,0.0,0.0,0.0,0.0,0.0,0.0,0.0,0.0,11.1855,11.6064,11.7839,0.0,0.0,0.0,0.0,0.0,0.0,0.0,0.0,0.0,13.5923,13.3095,13.1451,0.0,0.0,13.5725,13.4476,13.7106,13.9211,13.9145,13.9145,0.0,14.1315,14.0394,14.0131,14.1972,14.4603,14.651,14.6575,14.7628,14.8482,14.8417,14.7956,14.697,14.5523,14.3353,14.1709,14.0657,14.0,13.9737,13.9671,13.9342,13.8947,0.0,0.0,0.0,0.0,0.0,0.0,0.0,0.0,9.0782,8.9172,0.0,8.9367,0.0,0.0,0.0,0.0,0.0,9.2295,0.0,0.0,10.8263,11.311,11.1532,11.4192,11.6159,11.7027,11.4873,11.3085,11.1747,11.0415,0.0,0.0,0.0,0.0,0.0,0.0,12.1976,12.436,12.9421,13.2736,13.3842,13.4016,13.4348,13.4951,13.6869,13.8182,13.86,13.3637,12.9512,12.656,11.5286,0.0,0.0,0.0,0.0,0.0,0.0,0.0,0.0,0.0,0.0,0.0,0.0,0.0,0.0,0.0,0.0,0.0,0.0,0.0,0.0,11.1855,0.0,0.0,0.0,0.0,0.0,0.0,0.0,0.0,0.0,0.0,12.619,12.7045,12.8886,13.1648,0.0,0.0,0.0,0.0,13.8158,13.1583,13.0333,13.0004,12.8821,13.3029,13.7435,14.0197,0.0,0.0,14.4997,14.2827,14.1183,14.1117,14.217,14.1315,13.5857,13.4607,13.4542,13.441,13.3292,13.2372,13.224,13.1451,13.0202,0.0,0.0,0.0,0.0,0.0,0.0,0.0,0.0,0.0,8.4974,0.0,8.4437,0.0,0.0,0.0,0.0,0.0,0.0,0.0,0.0,9.5954,9.9686,10.1321,10.3478,10.6006,0.0,10.6839,10.4543,0.0,0.0,0.0,0.0,0.0,0.0,0.0,0.0,11.7788,11.9707,12.7792,13.1922,13.1689,13.326,13.345,13.1947,13.3024,13.255,13.0478,12.6177,12.1685,0.0,0.0,0.0,0.0,0.0,0.0,0.0,0.0,0.0,0.0,0.0,0.0,0.0,0.0,0.0,0.0,0.0,0.0,0.0,0.0,0.0,0.0,0.0,10.8764,0.0,0.0,0.0,0.0,0.0,0.0,0.0,0.0,0.0,12.0141,12.1193,12.3889,12.8558,13.0925,13.2766,13.4147,0.0,0.0,0.0,0.0,0.0,0.0,0.0,13.0728,13.0859,13.0925,13.1911,13.4673,13.5923,13.6514,13.658,0.0,0.0,12.5993,12.5204,12.5796,12.5796,12.619,12.6125,12.5204,12.5335,12.527,0.0,0.0,0.0,0.0,0.0,0.0,0.0,0.0,0.0,8.1021,8.0442,0.0,0.0,0.0,0.0,0.0,0.0,0.0,0.0,0.0,0.0,0.0,9.4225,9.5507,0.0,0.0,0.0,0.0,0.0,0.0,0.0,0.0,0.0,0.0,0.0,0.0,11.5752,11.7788,12.6687,13.1515,13.1573,13.3202,13.3085,13.0933,13.1993,13.0352,12.5855,0.0,0.0,0.0,0.0,0.0,0.0,0.0,0.0,0.0,0.0,0.0,0.0,0.0,0.0,0.0,0.0,0.0,0.0,0.0,0.0,0.0,0.0,0.0,0.0,0.0,10.5542,0.0,0.0,0.0,0.0,0.0,0.0,0.0,0.0,0.0,0.0,0.0,11.8891,12.4152,12.6453,12.8755,13.1648,13.2109,13.2766,0.0,0.0,0.0,0.0,0.0,0.0,0.0,0.0,0.0,0.0,0.0,0.0,0.0,0.0,12.4875,11.8168,11.7708,11.8299,11.8299,0.0,0.0,0.0,0.0,0.0,0.0,0.0,0.0,0.0,0.0,0.0,0.0,0.0,0.0,0.0,7.7165,0.0,0.0,7.7165,0.0,0.0,0.0,0.0,0.0,0.0,0.0,0.0,0.0,0.0,0.0,0.0,0.0,0.0,0.0,0.0,0.0,0.0,0.0,0.0,0.0,0.0,11.6043,11.8718,12.6222,13.1399,13.3842,13.4074,13.3376,13.2159,13.4044,13.1876,12.4959,0.0,0.0,0.0,0.0,0.0,0.0,0.0,0.0,0.0,0.0,0.0,0.0,0.0,0.0,0.0,0.0,0.0,0.0,0.0,0.0,0.0,0.0,0.0,0.0,0.0,0.0,10.0413,10.3569,10.6726,0.0,0.0,0.0,0.0,0.0,0.0,0.0,0.0,0.0,0.0,12.402,12.7571,12.7834,12.7769,12.7966,12.8032,12.5599,12.4152,12.5599,12.8032,12.9347,0.0,0.0,0.0,0.0,0.0,0.0,0.0,0.0,0.0,0.0,0.0,0.0,0.0,0.0,0.0,0.0,0.0,0.0,0.0,0.0,0.0,0.0,0.0,0.0,0.0,0.0,0.0,0.0,0.0,0.0,0.0,0.0,0.0,0.0,0.0,0.0,0.0,0.0,0.0,0.0,0.0,0.0,0.0,0.0,0.0,0.0,0.0,0.0,0.0,0.0,0.0,0.0,0.0,0.0,11.3425,11.6101,12.4535,12.9712,13.134,13.2271,13.2097,13.0759,12.8015,12.3827,0.0,0.0,0.0,0.0,0.0,0.0,0.0,0.0,0.0,0.0,0.0,0.0,0.0,0.0,0.0,0.0,0.0,0.0,0.0,0.0,0.0,0.0,0.0,0.0,0.0,0.0,0.0,0.0,10.5345,10.6266,10.6726,0.0,0.0,0.0,0.0,0.0,0.0,0.0,0.0,0.0,0.0,12.4678,12.8623,12.836,12.8032,12.9084,12.7637,12.6256,12.5664,12.7966,12.836,12.3889,0.0,0.0,0.0,0.0,0.0,0.0,0.0,0.0,0.0,0.0,0.0,0.0,0.0,0.0,0.0,0.0,0.0,0.0,0.0,0.0,0.0,0.0,0.0,0.0,0.0,0.0,0.0,0.0,0.0,0.0,0.0,0.0,0.0,0.0,0.0,0.0,0.0,0.0,0.0,0.0,0.0,0.0,0.0,0.0,0.0,0.0,0.0,0.0,0.0,0.0,0.0,0.0,0.0,11.2029,11.4239,12.2499,12.7443,12.8723,12.9537,12.9537,12.8781,12.4924,11.9944,0.0,0.0,0.0,0.0,0.0,0.0,0.0,0.0,0.0,0.0,0.0,0.0,0.0,0.0,0.0,0.0,0.0,0.0,0.0,0.0,0.0,0.0,0.0,0.0,0.0,0.0,0.0,0.0,10.1794,10.278,10.278,0.0,0.0,0.0,0.0,0.0,0.0,0.0,0.0,0.0,0.0,12.0206,12.4283,12.4086,0.0,0.0,12.5335,12.4283,12.3955,12.6782,12.6914,12.0601,11.9549,0.0,0.0,0.0,0.0,0.0,0.0,0.0,0.0,0.0,0.0,0.0,0.0,0.0,0.0,0.0,0.0,0.0,0.0,0.0,0.0,0.0,0.0,0.0,0.0,0.0,0.0,0.0,0.0,0.0,0.0,0.0,0.0,0.0,0.0,0.0,0.0,0.0,0.0,0.0,0.0,0.0,0.0,0.0,0.0,0.0,0.0,0.0,0.0,0.0,0.0,0.0,0.0,0.0,11.3192,12.0521,12.5117,12.6338,12.6396,12.6396,12.6338,12.3996,11.9082,0.0,0.0,0.0,0.0,0.0,0.0,0.0,0.0,0.0,0.0,0.0,0.0,0.0,0.0,0.0,0.0,0.0,0.0,0.0,0.0,0.0,0.0,0.0,0.0,0.0,0.0,0.0,0.0,0.0,0.0,0.0,0.0,0.0,0.0,0.0,0.0,0.0,0.0,0.0,0.0,0.0,11.5209,11.6655,11.6721,11.7708,0.0,0.0,11.9286,12.0469,12.4349,12.4809,11.7708,0.0,0.0,0.0,0.0,0.0,0.0,0.0,0.0,0.0,0.0,0.0,0.0,0.0,0.0,0.0,0.0,0.0,0.0,0.0,0.0,0.0,0.0,0.0,0.0,0.0,0.0,0.0,0.0,0.0,0.0,0.0,0.0,0.0,0.0,0.0,0.0,0.0,0.0,0.0,0.0,0.0,0.0,0.0,0.0,0.0,0.0,0.0,0.0,0.0,0.0,0.0,0.0,0.0,0.0,11.3076,12.0521,12.5058,12.6338,12.6396,12.6396,12.628,12.1195,0.0,0.0,0.0,0.0,0.0,0.0,0.0,0.0,0.0,0.0,0.0,0.0,0.0,0.0,0.0,0.0,0.0,0.0,0.0,0.0,0.0,0.0,0.0,0.0,0.0,0.0,0.0,9.1075,0.0,0.0,0.0,0.0,0.0,0.0,0.0,0.0,0.0,0.0,0.0,0.0,0.0,0.0,11.5209,11.6655,11.5932,11.5932,0.0,0.0,11.5537,11.488,11.9286,12.0798,0.0,0.0,0.0,0.0,0.0,0.0,0.0,0.0,0.0,0.0,0.0,0.0,0.0,0.0,0.0,0.0,0.0,0.0,0.0,0.0,0.0,0.0,0.0,0.0,0.0,0.0,0.0,0.0,0.0,0.0,0.0,0.0,0.0,0.0,0.0,0.0,0.0,0.0,0.0,0.0,0.0,0.0,0.0,0.0,0.0,0.0,0.0,0.0,0.0,0.0,0.0,0.0,0.0,0.0,10.8888,11.1447,11.7788,12.2034,12.3837,12.3953,12.3953,12.3953,11.7671,11.2145,0.0,0.0,0.0,0.0,0.0,0.0,0.0,0.0,0.0,0.0,0.0,0.0,0.0,0.0,0.0,0.0,0.0,0.0,0.0,0.0,0.0,0.0,0.0,0.0,0.0,0.0,0.0,0.0,0.0,0.0,0.0,0.0,0.0,0.0,0.0,0.0,0.0,0.0,0.0,0.0,0.0,0.0,11.3894,11.2841,0.0,0.0,0.0,11.3499,11.2644,0.0,0.0,0.0,0.0,0.0,0.0,0.0,0.0,0.0,0.0,0.0,0.0,0.0,0.0,0.0,0.0,0.0,0.0,0.0,0.0,0.0,0.0,0.0,0.0,0.0,0.0,0.0,0.0,0.0,0.0,0.0,0.0,0.0,0.0,0.0,0.0,0.0,0.0,0.0,0.0,0.0,0.0,0.0,0.0,0.0,0.0,0.0,0.0,0.0,0.0,0.0,0.0,0.0,0.0,0.0,0.0,0.0,10.9279,11.4065,11.7846,12.0289,12.0521,12.0463,12.0405,11.4588,10.9528,0.0,0.0,0.0,0.0,0.0,0.0,0.0,0.0,0.0,0.0,0.0,0.0,0.0,0.0,0.0,0.0,0.0,0.0,0.0,0.0,0.0,0.0,0.0,0.0,0.0,0.0,0.0,0.0,0.0,0.0,0.0,0.0,0.0,0.0,0.0,0.0,0.0,0.0,0.0,0.0,0.0,10.883,11.0211,10.9225,10.8236,0.0,0.0,11.2052,11.2052,11.4157,0.0,0.0,0.0,0.0,0.0,0.0,0.0,0.0,0.0,0.0,0.0,0.0,0.0,0.0,0.0,0.0,0.0,0.0,0.0,0.0,0.0,0.0,0.0,0.0,0.0,0.0,0.0,0.0,0.0,0.0,0.0,0.0,0.0,0.0,0.0,0.0,0.0,0.0,0.0,0.0,0.0,0.0,0.0,0.0,0.0,0.0,0.0,0.0,0.0,0.0,0.0,0.0,0.0,0.0,0.0,0.0,10.9279,11.3192,11.6566,11.9067,11.9184,11.9184,11.9125,11.5868,11.1331,0.0,0.0,0.0,0.0,0.0,0.0,0.0,0.0,0.0,0.0,0.0,0.0,0.0,0.0,0.0,0.0,0.0,0.0,0.0,0.0,0.0,0.0,0.0,0.0,0.0,0.0,0.0,0.0,0.0,0.0,0.0,0.0,0.0,0.0,0.0,0.0,0.0,0.0,0.0,0.0,0.0,10.883,11.0211,10.9225,0.0,0.0,0.0,0.0,10.9159,10.9619,0.0,0.0,0.0,0.0,0.0,0.0,0.0,0.0,0.0,0.0,0.0,0.0,0.0,0.0,0.0,0.0,0.0,0.0,0.0,0.0,0.0,0.0,0.0,0.0,0.0,0.0,0.0,0.0,0.0,0.0,0.0,0.0,0.0,0.0,0.0,0.0,0.0,0.0,0.0,0.0,0.0,0.0,0.0,0.0,0.0,0.0,0.0,0.0,0.0,0.0,0.0,0.0,0.0,0.0,0.0,0.0,10.7201,11.0517,11.4007,11.7671,11.7846,11.7846,11.7729,11.3541,10.9063,0.0,0.0,0.0,0.0,0.0,0.0,0.0,0.0,0.0,0.0,0.0,0.0,0.0,0.0,0.0,0.0,0.0,0.0,0.0,0.0,0.0,0.0,0.0,0.0,0.0,0.0,0.0,0.0,0.0,0.0,0.0,0.0,0.0,0.0,0.0,0.0,0.0,0.0,0.0,0.0,10.5279,10.6529,10.7186,0.0,0.0,0.0,0.0,0.0,0.0,10.8173,10.7712,0.0,0.0,0.0,0.0,0.0,0.0,0.0,0.0,0.0,0.0,0.0,0.0,0.0,0.0,0.0,0.0,0.0,0.0,0.0,0.0,0.0,0.0,0.0,0.0,0.0,0.0,0.0,0.0,0.0,0.0,0.0,0.0,0.0,0.0,0.0,0.0,0.0,0.0,0.0,0.0,0.0,0.0,0.0,0.0,0.0,0.0,0.0,0.0,0.0,0.0,0.0,0.0,0.0,0.0,0.0,10.4351,10.691,11.0618,11.5112,11.5635,11.5752,11.5403,11.0168,10.5863,10.2839,0.0,0.0,0.0,0.0,0.0,0.0,0.0,0.0,0.0,0.0,0.0,0.0,0.0,0.0,0.0,0.0,0.0,0.0,0.0,0.0,0.0,0.0,0.0,0.0,0.0,0.0,0.0,0.0,0.0,0.0,0.0,0.0,0.0,0.0,0.0,0.0,0.0,0.0,0.0,10.2912,10.4096,0.0,0.0,0.0,0.0,0.0,0.0,0.0,0.0,10.6331,0.0,0.0,0.0,0.0,0.0,0.0,0.0,0.0,0.0,0.0,0.0,0.0,0.0,0.0,0.0,0.0,0.0,0.0,0.0,0.0,0.0,0.0,0.0,0.0,0.0,0.0,0.0,0.0,0.0,0.0,0.0,0.0,0.0,0.0,0.0,0.0,0.0,0.0,0.0,0.0,0.0,0.0,0.0,0.0,0.0,0.0,0.0,0.0,0.0,0.0,0.0,0.0,0.0,0.0,0.0,0.0,10.2955,10.5747,10.8655,11.0808,11.1389,11.0443,10.8365,10.5049,10.0338,0.0,0.0,0.0,0.0,0.0,0.0,0.0,0.0,0.0,0.0,0.0,0.0,0.0,0.0,0.0,0.0,0.0,0.0,0.0,0.0,0.0,0.0,0.0,0.0,0.0,0.0,0.0,0.0,0.0,0.0,0.0,0.0,0.0,0.0,0.0,0.0,0.0,0.0,9.9627,10.2254,0.0,0.0,0.0,0.0,0.0,0.0,0.0,0.0,10.5082,0.0,0.0,0.0,0.0,0.0,0.0,0.0,0.0,0.0,0.0,0.0,0.0,0.0,0.0,0.0,0.0,0.0,0.0,0.0,0.0,0.0,0.0,0.0,0.0,0.0,0.0,0.0,0.0,0.0,0.0,0.0,0.0,0.0,0.0,0.0,0.0,0.0,0.0,0.0,0.0,0.0,0.0,0.0,0.0,0.0,0.0,0.0,0.0,0.0,0.0,0.0,0.0,0.0,0.0,0.0,0.0,0.0,0.0,10.4642,10.7201,10.9702,11.04,10.9221,10.5282,10.1443,0.0,0.0,0.0,0.0,0.0,0.0,0.0,0.0,0.0,0.0,0.0,0.0,0.0,0.0,0.0,0.0,0.0,0.0,0.0,0.0,0.0,0.0,0.0,0.0,0.0,0.0,0.0,0.0,0.0,0.0,0.0,0.0,0.0,0.0,0.0,0.0,0.0,0.0,0.0,0.0,0.0,0.0,0.0,0.0,0.0,0.0,0.0,0.0,0.0,0.0,0.0,0.0,0.0,0.0,0.0,0.0,0.0,0.0,0.0,0.0,0.0,0.0,0.0,0.0,0.0,0.0,0.0,0.0,0.0,0.0,0.0,0.0,0.0,0.0,0.0,0.0,0.0,0.0,0.0,0.0,0.0,0.0,0.0,0.0,0.0,0.0,0.0,0.0,0.0,0.0,0.0,0.0,0.0,0.0,0.0,0.0,0.0,0.0,0.0,0.0,0.0,0.0,0.0,0.0,0.0,0.0,0.0,0.0,10.3537,10.5631,10.8597,10.947,10.7957,10.249,9.8127,0.0,0.0,0.0,0.0,0.0,0.0,0.0,0.0,0.0,0.0,0.0,0.0,0.0,0.0,0.0,0.0,0.0,0.0,0.0,0.0,0.0,0.0,0.0,0.0,0.0,0.0,0.0,0.0,0.0,0.0,0.0,0.0,0.0,0.0,0.0,0.0,0.0,0.0,0.0,0.0,0.0,0.0,0.0,0.0,0.0,0.0,0.0,0.0,10.0939,0.0,0.0,0.0,0.0,0.0,0.0,0.0,0.0,0.0,0.0,0.0,0.0,0.0,0.0,0.0,0.0,0.0,0.0,0.0,0.0,0.0,0.0,0.0,0.0,0.0,0.0,0.0,0.0,0.0,0.0,0.0,0.0,0.0,0.0,0.0,0.0,0.0,0.0,0.0,0.0,0.0,0.0,0.0,0.0,0.0,0.0,0.0,0.0,0.0,0.0,0.0,0.0,0.0,0.0,0.0,0.0,0.0,0.0,0.0,10.0013,10.0396,10.5165,10.6503,10.4002,10.1152,9.7313,0.0,0.0,0.0,0.0,0.0,0.0,0.0,0.0,0.0,0.0,0.0,0.0,0.0,0.0,0.0,0.0,0.0,0.0,0.0,0.0,0.0,0.0,0.0,0.0,0.0,0.0,0.0,0.0,0.0,0.0,0.0,0.0,0.0,0.0,0.0,0.0,0.0,0.0,0.0,0.0,0.0,0.0,0.0,0.0,0.0,0.0,0.0,0.0,0.0,0.0,0.0,0.0,0.0,0.0,0.0,0.0,0.0,0.0,0.0,0.0,0.0,0.0,0.0,0.0,0.0,0.0,0.0,0.0,0.0,0.0,0.0,0.0,0.0,0.0,0.0,0.0,0.0,0.0,0.0,0.0,0.0,0.0,0.0,0.0,0.0,0.0,0.0,0.0,0.0,0.0,0.0,0.0,0.0,0.0,0.0,0.0,0.0,0.0,0.0,0.0,0.0,0.0,0.0,0.0,0.0,0.0,0.0,0.0,9.8069,9.9581,10.313,10.342,10.0163,9.7604,9.487,0.0,0.0,0.0,0.0,0.0,0.0,0.0,0.0,0.0,0.0,0.0,0.0,0.0,0.0,0.0,0.0,0.0,0.0,0.0,0.0,0.0,0.0,0.0,0.0,0.0,0.0,0.0,0.0,0.0,0.0,0.0,0.0,0.0,0.0,0.0,0.0,0.0,0.0,0.0,0.0,0.0,0.0,0.0,0.0,0.0,0.0,0.0,0.0,0.0,0.0,0.0,0.0,0.0,0.0,0.0,0.0,0.0,0.0,0.0,0.0,0.0,0.0,0.0,0.0,0.0,0.0,0.0,0.0,0.0,0.0,0.0,0.0,0.0,0.0,0.0,0.0,0.0,0.0,0.0,0.0,0.0,0.0,0.0,0.0,0.0,0.0,0.0,0.0,0.0,0.0,0.0,0.0,0.0,0.0,0.0,0.0,0.0,0.0,0.0,0.0,0.0,0.0,0.0,0.0,0.0,0.0,0.0,0.0,0.0,9.8534,9.9756,9.9058,9.6178,9.4056,9.1962,0.0,0.0,0.0,0.0,0.0,0.0,0.0,0.0,0.0,0.0,0.0,0.0,0.0,0.0,0.0,0.0,0.0,0.0,0.0,0.0,0.0,0.0,0.0,0.0,0.0,0.0,0.0,0.0,0.0,0.0,0.0,0.0,0.0,0.0,0.0,0.0,0.0,0.0,0.0,0.0,0.0,0.0,0.0,0.0,0.0,0.0,0.0,0.0,0.0,0.0,0.0,0.0,0.0,0.0,0.0,0.0,0.0,0.0,0.0,0.0,0.0,0.0,0.0,0.0,0.0,0.0,0.0,0.0,0.0,0.0,0.0,0.0,0.0,0.0,0.0,0.0,0.0,0.0,0.0,0.0,0.0,0.0,0.0,0.0,0.0,0.0,0.0,0.0,0.0,0.0,0.0,0.0,0.0,0.0,0.0,0.0,0.0,0.0,0.0,0.0,0.0,0.0,0.0,0.0,0.0,0.0,0.0,0.0,0.0,9.6063,9.3765,9.2601,9.2311,9.0973,8.8449,0.0,0.0,0.0,0.0,0.0,0.0,0.0,0.0,0.0,0.0,0.0,0.0,0.0,0.0,0.0,0.0,0.0,0.0,0.0,0.0,0.0,0.0,0.0,0.0,0.0,0.0,0.0,0.0,0.0,0.0,0.0,0.0,0.0,0.0,0.0,0.0,0.0,0.0,0.0,0.0,0.0,0.0,0.0,0.0,0.0,0.0,0.0,0.0,0.0,0.0,0.0,0.0,0.0,0.0,0.0,0.0,0.0,0.0,0.0,0.0,0.0,0.0,0.0,0.0,0.0,0.0,0.0,0.0,0.0,0.0,0.0,0.0,0.0,0.0,0.0,0.0,0.0,0.0,0.0,0.0,0.0,0.0,0.0,0.0,0.0,0.0,0.0,0.0,0.0,0.0,0.0,0.0,0.0,0.0,0.0,0.0,0.0,0.0,0.0,0.0,0.0,0.0,0.0,0.0,0.0,0.0,0.0,0.0,0.0,9.3299,9.2427,9.1613,9.0715,8.8704,8.6145,8.3178,0.0,0.0,0.0,0.0,0.0,0.0,0.0,0.0,0.0,0.0,0.0,0.0,0.0,0.0,0.0,0.0,0.0,0.0,0.0,0.0,0.0,0.0,0.0,0.0,0.0,0.0,0.0,0.0,0.0,0.0,0.0,0.0,0.0,0.0,0.0,0.0,0.0,0.0,0.0,0.0,0.0,0.0,0.0,0.0,0.0,0.0,0.0,0.0,0.0,0.0,0.0,0.0,0.0,0.0,0.0,0.0,0.0,0.0,0.0,0.0,0.0,0.0,0.0,0.0,0.0,0.0,0.0,0.0,0.0,0.0,0.0,0.0,0.0,0.0,0.0,0.0,0.0,0.0,0.0,0.0,0.0,0.0,0.0,0.0,0.0,0.0,0.0,0.0,0.0,0.0,0.0,0.0,0.0,0.0,0.0,0.0,0.0,0.0,0.0,0.0,0.0,0.0,0.0,0.0,0.0,0.0,0.0,0.0,9.074,9.0333,8.9519,8.8158,8.6843,8.4749,0.0,0.0,0.0,0.0,0.0,0.0,0.0,0.0,0.0,0.0,0.0,0.0,0.0,0.0,0.0,0.0,0.0,0.0,0.0,0.0,0.0,0.0,0.0,0.0,0.0,0.0,0.0,0.0,0.0,0.0,0.0,0.0,0.0,0.0,0.0,0.0,0.0,0.0,0.0,0.0,0.0,0.0,0.0,0.0,0.0,0.0,0.0,0.0,0.0,0.0,0.0,0.0,0.0,0.0,0.0,0.0,0.0,0.0,0.0,0.0,0.0,0.0,0.0,0.0,0.0,0.0,0.0,0.0,0.0,0.0,0.0,0.0,0.0,0.0,0.0,0.0,0.0,0.0,0.0,0.0,0.0,0.0,0.0,0.0,0.0,0.0,0.0,0.0,0.0,0.0,0.0,0.0,0.0,0.0,0.0,0.0,0.0,0.0,0.0,0.0,0.0,0.0,0.0,0.0,0.0,0.0,0.0,0.0,9.074,8.8239,8.7017,8.5892,8.4381,8.5505,8.4284,0.0,0.0,0.0,0.0,0.0,0.0,0.0,0.0,0.0,0.0,0.0,0.0,0.0,0.0,0.0,0.0,0.0,0.0,0.0,0.0,0.0,0.0,0.0,0.0,0.0,0.0,0.0,0.0,0.0,0.0,0.0,0.0,0.0,0.0,0.0,0.0,0.0,0.0,0.0,0.0,0.0,0.0,0.0,0.0,0.0,0.0,0.0,0.0,0.0,0.0,0.0,0.0,0.0,0.0,0.0,0.0,0.0,0.0,0.0,0.0,0.0,0.0,0.0,0.0,0.0,0.0,0.0,0.0,0.0,0.0,0.0,0.0,0.0,0.0,0.0,0.0,0.0,0.0,0.0,0.0,0.0,0.0,0.0,0.0,0.0,0.0,0.0,0.0,0.0,0.0,0.0,0.0,0.0,0.0,0.0,0.0,0.0,0.0,0.0,0.0,0.0,0.0,0.0,0.0,0.0,0.0,0.0,0.0,0.0,9.0682,0.0,8.7657,0.0,8.5214,8.2672,0.0,0.0,0.0,0.0,0.0,0.0,0.0,0.0,0.0,0.0,0.0,0.0,0.0,0.0,0.0,0.0,0.0,0.0,0.0,0.0,0.0,0.0,0.0,0.0,0.0,0.0,0.0,0.0,0.0,0.0,0.0,0.0,0.0,0.0,0.0,0.0,0.0,0.0,0.0,0.0,0.0,0.0,0.0,0.0,0.0,0.0,0.0,0.0,0.0,0.0,0.0,0.0,0.0,0.0,0.0,0.0,0.0,0.0,0.0,0.0,0.0,0.0,0.0,0.0,0.0,0.0,0.0,0.0,0.0,0.0,0.0,0.0,0.0,0.0,0.0,0.0,0.0,0.0,0.0,0.0,0.0,0.0,0.0,0.0,0.0,0.0,0.0,0.0,0.0,0.0,0.0,0.0,0.0,0.0,0.0,0.0,0.0,0.0,0.0,0.0,0.0,0.0,0.0,0.0,0.0,0.0,0.0,0.0,0.0,8.9228,8.8413,8.8064,8.7868,8.661,8.3876,0.0,0.0,0.0,0.0,0.0,0.0,0.0,0.0,0.0,0.0,0.0,0.0,0.0,0.0,0.0,0.0,0.0,0.0,0.0,0.0,0.0,0.0,0.0,0.0,0.0,0.0,0.0,0.0,0.0,0.0,0.0,0.0,0.0,0.0,0.0,0.0,0.0,0.0,0.0,0.0,0.0,0.0,0.0,0.0,0.0,0.0,0.0,0.0,0.0,0.0,0.0,0.0,0.0,0.0,0.0,0.0,0.0,0.0,0.0,0.0,0.0,0.0,0.0,0.0,0.0,0.0,0.0,0.0,0.0,0.0,0.0,0.0,0.0,0.0,0.0,0.0,0.0,0.0,0.0,0.0,0.0,0.0,0.0,0.0,0.0,0.0,0.0,0.0,0.0,0.0,0.0,0.0,0.0,0.0,0.0,0.0,0.0,0.0,0.0,0.0,0.0,0.0,0.0,0.0,0.0,0.0,0.0,0.0,0.0,0.0,8.6901,8.6959,8.4555,8.8995,8.7483,0.0,0.0,0.0,0.0,0.0,0.0,0.0,0.0,0.0,0.0,0.0,0.0,0.0,0.0,0.0,0.0,0.0,0.0,0.0,0.0,0.0,0.0,0.0,0.0,0.0,0.0,0.0,0.0,0.0,0.0,0.0,0.0,0.0,0.0,0.0,0.0,0.0,0.0,0.0,0.0,0.0,0.0,0.0,0.0,0.0,0.0,0.0,0.0,0.0,0.0,0.0,0.0,0.0,0.0,0.0,0.0,0.0,0.0,0.0,0.0,0.0,0.0,0.0,0.0,0.0,0.0,0.0,0.0,0.0,0.0,0.0,0.0,0.0,0.0,0.0,0.0,0.0,0.0,0.0,0.0,0.0,0.0,0.0,0.0,0.0,0.0,0.0,0.0,0.0,0.0,0.0,0.0,0.0,0.0,0.0,0.0,0.0,0.0,0.0,0.0,0.0,0.0,0.0,0.0,0.0,0.0,0.0,0.0,0.0,0.0,8.8646,0.0,8.5796,8.5214,8.3953,8.145,0.0,0.0,0.0,0.0,0.0,0.0,0.0,0.0,0.0,0.0,0.0,0.0,0.0,0.0,0.0,0.0,0.0,0.0,0.0,0.0,0.0,0.0,0.0,0.0,0.0,0.0,0.0,0.0,0.0,0.0,0.0,0.0,0.0,0.0,0.0,0.0,0.0,0.0,0.0,0.0,0.0,0.0,0.0,0.0,0.0,0.0,0.0,0.0,0.0,0.0,0.0,0.0,0.0,0.0,0.0,0.0,0.0,0.0,0.0,0.0,0.0,0.0,0.0,0.0,0.0,0.0,0.0,0.0,0.0,0.0,0.0,0.0,0.0,0.0,0.0,0.0,0.0,0.0,0.0,0.0,0.0,0.0,0.0,0.0,0.0,0.0,0.0,0.0,0.0,0.0,0.0,0.0,0.0,0.0,0.0,0.0,0.0,0.0,0.0,0.0,0.0,0.0,0.0,0.0,0.0,0.0,0.0,0.0,0.0,0.0,0.0,8.5369,8.44,8.2946,0.0,0.0,0.0,0.0,0.0,0.0,0.0,0.0,0.0,0.0,0.0,0.0,0.0,0.0,0.0,0.0,0.0,0.0,0.0,0.0,0.0,0.0,0.0,0.0,0.0,0.0,0.0,0.0,0.0,0.0,0.0,0.0,0.0,0.0,0.0,0.0,0.0,0.0,0.0,0.0,0.0,0.0,0.0,0.0,0.0,0.0,0.0,0.0,0.0,0.0,0.0,0.0,0.0,0.0,0.0,0.0,0.0,0.0,0.0,0.0,0.0,0.0,0.0,0.0,0.0,0.0,0.0,0.0,0.0,0.0,0.0,0.0,0.0,0.0,0.0,0.0,0.0,0.0,0.0,0.0,0.0,0.0,0.0,0.0,0.0,0.0,0.0,0.0,0.0,0.0,0.0,0.0,0.0,0.0,0.0,0.0,0.0,0.0,0.0,0.0,0.0,0.0,0.0,0.0,0.0,0.0,0.0,0.0,0.0,0.0,0.0,8.6552,8.4381,8.504,0.0,7.9339,0.0,0.0,0.0,0.0,0.0,0.0,0.0,0.0,0.0,0.0,0.0,0.0,0.0,0.0,0.0,0.0,0.0,0.0,0.0,0.0,0.0,0.0,0.0,0.0,0.0,0.0,0.0,0.0,0.0,0.0,0.0,0.0,0.0,0.0,0.0,0.0,0.0,0.0,0.0,0.0,0.0,0.0,0.0,0.0,0.0,0.0,0.0,0.0,0.0,0.0,0.0,0.0,0.0,0.0,0.0,0.0,0.0,0.0,0.0,0.0,0.0,0.0,0.0,0.0,0.0,0.0,0.0,0.0,0.0,0.0,0.0,0.0,0.0,0.0,0.0,0.0,0.0,0.0,0.0,0.0,0.0,0.0,0.0,0.0,0.0,0.0,0.0,0.0,0.0,0.0,0.0,0.0,0.0,0.0,0.0,0.0,0.0,0.0,0.0,0.0,0.0,0.0,0.0,0.0,0.0,0.0,0.0,0.0,0.0,0.0,0.0,0.0,8.219,8.0619,8.145,0.0,0.0,0.0,0.0,0.0,0.0,0.0,0.0,0.0,0.0,0.0,0.0,0.0,0.0,0.0,0.0,0.0,0.0,0.0,0.0,0.0,0.0,0.0,0.0,0.0,0.0,0.0,0.0,0.0,0.0,0.0,0.0,0.0,0.0,0.0,0.0,0.0,0.0,0.0,0.0,0.0,0.0,0.0,0.0,0.0,0.0,0.0,0.0,0.0,0.0,0.0,0.0,0.0,0.0,0.0,0.0,0.0,0.0,0.0,0.0,0.0,0.0,0.0,0.0,0.0,0.0,0.0,0.0,0.0,0.0,0.0,0.0,0.0,0.0,0.0,0.0,0.0,0.0,0.0,0.0,0.0,0.0,0.0,0.0,0.0,0.0,0.0,0.0,0.0,0.0,0.0,0.0,0.0,0.0,0.0,0.0,0.0,0.0,0.0,0.0,0.0,0.0,0.0,0.0,0.0,0.0,0.0,0.0,0.0,0.0,8.3371,8.5078,8.2015,8.0693,8.145,0.0,0.0,0.0,0.0,0.0,0.0,0.0,0.0,0.0,0.0,0.0,0.0,0.0,0.0,0.0,0.0,0.0,0.0,0.0,0.0,0.0,0.0,0.0,0.0,0.0,0.0,0.0,0.0,0.0,0.0,0.0,0.0,0.0,0.0,0.0,0.0,0.0,0.0,0.0,0.0,0.0,0.0,0.0,0.0,0.0,0.0,0.0,0.0,0.0,0.0,0.0,0.0,0.0,0.0,0.0,0.0,0.0,0.0,0.0,0.0,0.0,0.0,0.0,0.0,0.0,0.0,0.0,0.0,0.0,0.0,0.0,0.0,0.0,0.0,0.0,0.0,0.0,0.0,0.0,0.0,0.0,0.0,0.0,0.0,0.0,0.0,0.0,0.0,0.0,0.0,0.0,0.0,0.0,0.0,0.0,0.0,0.0,0.0,0.0,0.0,0.0,0.0,0.0,0.0,0.0,0.0,0.0,0.0,0.0,0.0,0.0,0.0,0.0,0.0,8.0154,0.0,0.0,0.0,0.0,0.0,0.0,0.0,0.0,0.0,0.0,0.0,0.0,0.0,0.0,0.0,0.0,0.0,0.0,0.0,0.0,0.0,0.0,0.0,0.0,0.0,0.0,0.0,0.0,0.0,0.0,0.0,0.0,0.0,0.0,0.0,0.0,0.0,0.0,0.0,0.0,0.0,0.0,0.0,0.0,0.0,0.0,0.0,0.0,0.0,0.0,0.0,0.0,0.0,0.0,0.0,0.0,0.0,0.0,0.0,0.0,0.0,0.0,0.0,0.0,0.0,0.0,0.0,0.0,0.0,0.0,0.0,0.0,0.0,0.0,0.0,0.0,0.0,0.0,0.0,0.0,0.0,0.0,0.0,0.0,0.0,0.0,0.0,0.0,0.0,0.0,0.0,0.0,0.0,0.0,0.0,0.0,0.0,0.0,0.0,0.0,0.0,0.0,0.0,0.0,0.0,0.0,0.0,0.0,0.0,0.0,0.0,0.0,0.0,0.0,0.0,0.0,0.0,0.0,0.0,0.0,0.0,0.0,0.0,0.0,0.0,0.0,0.0,0.0,0.0,0.0,0.0,0.0,0.0,0.0,0.0,0.0,0.0,0.0,0.0,0.0,0.0,0.0,0.0,0.0,0.0,0.0,0.0,0.0,0.0,0.0,0.0,0.0,0.0,0.0,0.0,0.0,0.0,0.0,0.0,0.0,0.0,0.0,0.0,0.0,0.0,0.0,0.0,0.0,0.0,0.0,0.0,0.0,0.0,0.0,0.0,0.0,0.0,0.0,0.0,0.0,0.0,0.0,0.0,0.0,0.0,0.0,0.0,0.0,0.0,0.0,0.0,0.0,0.0,0.0,0.0,0.0,0.0,0.0,0.0,0.0,0.0,0.0,0.0,0.0,0.0,0.0,0.0,0.0,0.0,0.0,0.0,0.0,0.0,0.0,0.0,0.0,0.0,0.0,0.0,0.0,0.0,0.0,0.0,0.0,0.0,0.0,0.0,0.0,0.0,0.0,0.0,0.0,0.0,0.0,0.0,0.0,0.0,0.0,0.0,0.0,0.0,0.0,0.0,0.0,0.0,0.0,0.0,0.0,0.0,0.0,0.0,0.0,0.0,0.0,0.0,0.0,0.0,0.0,0.0,0.0,0.0,0.0,0.0,0.0,0.0,0.0,0.0,0.0,0.0,0.0,0.0,0.0,0.0,0.0,0.0,0.0,0.0,0.0,0.0,0.0,0.0,0.0,0.0,0.0,0.0,0.0,0.0,0.0,0.0,0.0,0.0,0.0,0.0,0.0,0.0,0.0,0.0,0.0,0.0,0.0,0.0,0.0,0.0,0.0,0.0,0.0,0.0,0.0,0.0,0.0,0.0,0.0,0.0,0.0,0.0,0.0,0.0,0.0,0.0,0.0,0.0,0.0,0.0,0.0,0.0,0.0,0.0,0.0,0.0,0.0,0.0,0.0,0.0,0.0,0.0,0.0,0.0,0.0,0.0,0.0,0.0,0.0,0.0,0.0,0.0,0.0,0.0,0.0,0.0,0.0,0.0,0.0,0.0,0.0,0.0,0.0,0.0,0.0,0.0,0.0,0.0,0.0,0.0,0.0,0.0,0.0,0.0,0.0,0.0,0.0,0.0,0.0,0.0,0.0,0.0,0.0,0.0,0.0,0.0,0.0,0.0,0.0,0.0,0.0,0.0,0.0,0.0,0.0,0.0,0.0,0.0,0.0,0.0,0.0,0.0,0.0,0.0,0.0,0.0,0.0,0.0,0.0,0.0,0.0,0.0,0.0,0.0,0.0,0.0,0.0,0.0,0.0,0.0,0.0,0.0,0.0,0.0,0.0,0.0,0.0,0.0,0.0,0.0,0.0,0.0,0.0,0.0,0.0,0.0,0.0,0.0,0.0,0.0,0.0,0.0,0.0,0.0,0.0,0.0,0.0,0.0,0.0,0.0,0.0,0.0,0.0,0.0,0.0,0.0,0.0,0.0,0.0,0.0,0.0,0.0,0.0,0.0,0.0,0.0,0.0,0.0,0.0,0.0,0.0,0.0,0.0,0.0,0.0,0.0,0.0,0.0,0.0,0.0,0.0,0.0,0.0,0.0,0.0,0.0,0.0,0.0,0.0,0.0,0.0,0.0,0.0,0.0,0.0,0.0,0.0,0.0,0.0,0.0,0.0,0.0,0.0,0.0,0.0,0.0,0.0,0.0,0.0,0.0,0.0,0.0,0.0,0.0,0.0,0.0,0.0,0.0,0.0,0.0,0.0,0.0,0.0,0.0,0.0,0.0,0.0,0.0,0.0,0.0,0.0,0.0,0.0,0.0,0.0,0.0,0.0,0.0,0.0,0.0,0.0,0.0,0.0,0.0,0.0,0.0,0.0,0.0,0.0,0.0,0.0,0.0,0.0,0.0,0.0,0.0,0.0,0.0,0.0,0.0,0.0,0.0,0.0,0.0,0.0,0.0,0.0,0.0,0.0,0.0,0.0,0.0,0.0,0.0,0.0,0.0,0.0,0.0,0.0,0.0,0.0,0.0,0.0,0.0,0.0,0.0,0.0,0.0,0.0,0.0,0.0,0.0,0.0,0.0,0.0,0.0,0.0,0.0,0.0,0.0,0.0,0.0,0.0,0.0,0.0,0.0,0.0,0.0,0.0,0.0,0.0,0.0,0.0,0.0,0.0,0.0,0.0,0.0,0.0,0.0,0.0,0.0,0.0,0.0,0.0,0.0,0.0,0.0,0.0,0.0,0.0,0.0,0.0,0.0,0.0,0.0,0.0,0.0,0.0,0.0,0.0,0.0,0.0,0.0,0.0,0.0,0.0,0.0,0.0,0.0,0.0,0.0,0.0,0.0,0.0,0.0,0.0,0.0,0.0,0.0,0.0,0.0,0.0,0.0,0.0,0.0,0.0,0.0,0.0,0.0,0.0,0.0,0.0,0.0,0.0,0.0,0.0,0.0,0.0,0.0,0.0,0.0,0.0,0.0,0.0,0.0,0.0,0.0,0.0,0.0,0.0,0.0,0.0,0.0,0.0,0.0,0.0,0.0,0.0,0.0,0.0,0.0,0.0,0.0,0.0,0.0,0.0,0.0,0.0,0.0,0.0,0.0,0.0,0.0,0.0,0.0,0.0,0.0,0.0,0.0,0.0,0.0,0.0,0.0,0.0,0.0,0.0,0.0,0.0,0.0,0.0,0.0,0.0,0.0,0.0,0.0,0.0,0.0,0.0,0.0,0.0,0.0,0.0,0.0,0.0,0.0,0.0,0.0,0.0,0.0,0.0,0.0,0.0,0.0,0.0,0.0,0.0,0.0,0.0,0.0,0.0,0.0,0.0,0.0,0.0,0.0,0.0,0.0,0.0,0.0,0.0,0.0,0.0,0.0,0.0,0.0,0.0,0.0,0.0,0.0,0.0,0.0,0.0,0.0,0.0,0.0,0.0,0.0,0.0,0.0,0.0,0.0,0.0,0.0,0.0,0.0,0.0,0.0,0.0,0.0,0.0,0.0,0.0,0.0,0.0,0.0,0.0,0.0,0.0,0.0,0.0,0.0,0.0,0.0,0.0,0.0,0.0,0.0,0.0,0.0,0.0,0.0,0.0,0.0,0.0,0.0,0.0,0.0,0.0,0.0,0.0,0.0,0.0,0.0,0.0,0.0,0.0,0.0,0.0,0.0,0.0,0.0,0.0,0.0,0.0,0.0,0.0,0.0,0.0,0.0,0.0,0.0,0.0,0.0,0.0,0.0,0.0,0.0,0.0,0.0,0.0,0.0,0.0,0.0,0.0,0.0,0.0,0.0,0.0,0.0,0.0,0.0,0.0,0.0,0.0,0.0,0.0,0.0,0.0,0.0,0.0,0.0,0.0,0.0,0.0,0.0,0.0,0.0,0.0,0.0,0.0,0.0,0.0,0.0,0.0,0.0,0.0,0.0,0.0,0.0,0.0,0.0,0.0,0.0,0.0,0.0,0.0,0.0,0.0,0.0,0.0,0.0,0.0,0.0,0.0,0.0,0.0,0.0,0.0,0.0,0.0,0.0,0.0,0.0,0.0,0.0,0.0,0.0,0.0,0.0,0.0,0.0,0.0,0.0,0.0,0.0,0.0,0.0,0.0,0.0,0.0,0.0,0.0,0.0,0.0,0.0,0.0,0.0,0.0,0.0,0.0,0.0,0.0,0.0,0.0,0.0,0.0,0.0,0.0,0.0,0.0,0.0,0.0,0.0,0.0,0.0,0.0,0.0,0.0,0.0,0.0,0.0,0.0,0.0,0.0,0.0,0.0,0.0,0.0,0.0,0.0,0.0,0.0,0.0,0.0,0.0,0.0,0.0,0.0,0.0,0.0,0.0,0.0,0.0,0.0]}]]]